[[{"header":{"parameterUnit":"m.s-1","parameterCategory":1,"la1":30.6,"la2":28.766,"lo1":-90.7593,"lo2":-88.6598,"dy":0.0162,"dx":0.0183,"nx":116,"ny":114,"refTime":"2023-04-08T00:00:00:Z","depth":0,"parameterNumber":2,"parameterNumberName":"U-component_of_WINDS"},"data":[0.0,0.0,0.0,0.0,0.0,0.0,0.0,0.0,0.0,0.0,0.0,0.0,0.0,0.0,0.0,0.0,0.0,0.0,0.0,0.0,0.0,0.0,0.0,0.0,0.0,0.0,0.0,0.0,0.0,0.0,0.0,0.0,0.0,0.0,0.0,0.0,0.0,0.0,0.0,0.0,0.0,0.0,0.0,0.0,0.0,0.0,0.0,0.0,0.0,0.0,0.0,0.0,0.0,0.0,0.0,0.0,0.0,0.0,0.0,0.0,0.0,0.0,0.0,0.0,0.0,0.0,0.0,0.0,0.0,0.0,0.0,0.0,0.0,0.0,0.0,0.0,0.0,0.0,0.0,0.0,0.0,0.0,0.0,0.0,0.0,0.0,0.0,0.0,0.0,0.0,0.0,0.0,0.0,0.0,0.0,0.0,0.0,0.0,0.0,0.0,0.0,0.0,0.0,0.0,0.0,0.0,0.0,0.0,0.0,0.0,0.0,0.0,0.0,0.0,0.0,0.0,0.0,0.0,0.0,0.0,0.0,0.0,0.0,0.0,0.0,0.0,0.0,0.0,0.0,0.0,0.0,0.0,0.0,0.0,0.0,0.0,0.0,0.0,0.0,0.0,0.0,0.0,0.0,0.0,0.0,0.0,0.0,0.0,0.0,0.0,0.0,0.0,0.0,0.0,0.0,0.0,0.0,0.0,0.0,0.0,0.0,0.0,0.0,0.0,0.0,0.0,0.0,0.0,0.0,0.0,0.0,0.0,0.0,0.0,0.0,0.0,0.0,0.0,0.0,0.0,0.0,0.0,0.0,0.0,0.0,0.0,0.0,0.0,0.0,0.0,0.0,0.0,0.0,0.0,0.0,0.0,0.0,0.0,0.0,0.0,0.0,0.0,0.0,0.0,0.0,0.0,0.0,0.0,0.0,0.0,0.0,0.0,0.0,0.0,0.0,0.0,0.0,0.0,0.0,0.0,0.0,0.0,0.0,0.0,0.0,0.0,0.0,0.0,0.0,0.0,0.0,0.0,0.0,0.0,0.0,0.0,0.0,0.0,0.0,0.0,0.0,0.0,0.0,0.0,0.0,0.0,0.0,0.0,0.0,0.0,0.0,0.0,0.0,0.0,0.0,0.0,0.0,0.0,0.0,0.0,0.0,0.0,0.0,0.0,0.0,0.0,0.0,0.0,0.0,0.0,0.0,0.0,0.0,0.0,0.0,0.0,0.0,0.0,0.0,0.0,0.0,0.0,0.0,0.0,0.0,0.0,0.0,0.0,0.0,0.0,0.0,0.0,0.0,0.0,0.0,0.0,0.0,0.0,0.0,0.0,0.0,0.0,0.0,0.0,0.0,0.0,0.0,0.0,0.0,0.0,0.0,0.0,0.0,0.0,0.0,0.0,0.0,0.0,0.0,0.0,0.0,0.0,0.0,0.0,0.0,0.0,0.0,0.0,0.0,0.0,0.0,0.0,0.0,0.0,0.0,0.0,0.0,0.0,0.0,0.0,0.0,0.0,0.0,0.0,0.0,0.0,0.0,0.0,0.0,0.0,0.0,0.0,0.0,0.0,0.0,0.0,0.0,0.0,0.0,0.0,0.0,0.0,0.0,0.0,0.0,0.0,0.0,0.0,0.0,0.0,0.0,0.0,0.0,0.0,0.0,0.0,0.0,0.0,0.0,0.0,0.0,0.0,0.0,0.0,0.0,0.0,0.0,0.0,0.0,0.0,0.0,0.0,0.0,0.0,0.0,0.0,0.0,0.0,0.0,0.0,0.0,0.0,0.0,0.0,0.0,0.0,0.0,0.0,0.0,0.0,0.0,0.0,0.0,0.0,0.0,0.0,0.0,0.0,0.0,0.0,0.0,0.0,0.0,0.0,0.0,0.0,0.0,0.0,0.0,0.0,0.0,0.0,0.0,0.0,0.0,0.0,0.0,0.0,0.0,0.0,0.0,0.0,0.0,0.0,0.0,0.0,0.0,0.0,0.0,0.0,0.0,0.0,0.0,0.0,0.0,0.0,0.0,0.0,0.0,0.0,0.0,0.0,0.0,0.0,0.0,0.0,0.0,0.0,0.0,0.0,0.0,0.0,0.0,0.0,0.0,0.0,0.0,0.0,0.0,0.0,0.0,0.0,0.0,0.0,0.0,0.0,0.0,0.0,0.0,0.0,0.0,0.0,0.0,0.0,0.0,0.0,0.0,0.0,0.0,0.0,0.0,0.0,0.0,0.0,0.0,0.0,0.0,0.0,0.0,0.0,0.0,0.0,0.0,0.0,0.0,0.0,0.0,0.0,0.0,0.0,0.0,0.0,0.0,0.0,0.0,0.0,0.0,0.0,0.0,0.0,0.0,0.0,0.0,0.0,0.0,0.0,0.0,0.0,0.0,0.0,0.0,0.0,0.0,0.0,0.0,0.0,0.0,0.0,0.0,0.0,0.0,0.0,0.0,0.0,0.0,0.0,0.0,0.0,0.0,0.0,0.0,0.0,0.0,0.0,0.0,0.0,0.0,0.0,0.0,0.0,0.0,0.0,0.0,0.0,0.0,0.0,0.0,0.0,0.0,0.0,0.0,0.0,0.0,0.0,0.0,0.0,0.0,0.0,0.0,0.0,0.0,0.0,0.0,0.0,0.0,0.0,0.0,0.0,0.0,0.0,0.0,0.0,0.0,0.0,0.0,0.0,0.0,0.0,0.0,0.0,0.0,0.0,0.0,0.0,0.0,0.0,0.0,0.0,0.0,0.0,0.0,0.0,0.0,0.0,0.0,0.0,0.0,0.0,0.0,0.0,0.0,0.0,0.0,0.0,0.0,0.0,0.0,0.0,0.0,0.0,0.0,0.0,0.0,0.0,0.0,0.0,0.0,0.0,0.0,0.0,0.0,0.0,0.0,0.0,0.0,0.0,0.0,0.0,0.0,0.0,0.0,0.0,0.0,0.0,0.0,0.0,0.0,0.0,0.0,0.0,0.0,0.0,0.0,0.0,0.0,0.0,0.0,0.0,0.0,0.0,0.0,0.0,0.0,0.0,0.0,0.0,0.0,0.0,0.0,0.0,0.0,0.0,0.0,0.0,0.0,0.0,0.0,0.0,0.0,0.0,0.0,0.0,0.0,0.0,0.0,0.0,0.0,0.0,0.0,0.0,0.0,0.0,0.0,0.0,0.0,0.0,0.0,0.0,0.0,0.0,0.0,0.0,0.0,0.0,0.0,0.0,0.0,0.0,0.0,0.0,0.0,0.0,0.0,0.0,0.0,0.0,0.0,0.0,0.0,0.0,0.0,0.0,0.0,0.0,0.0,0.0,0.0,0.0,0.0,0.0,0.0,0.0,0.0,0.0,0.0,0.0,0.0,0.0,0.0,0.0,0.0,0.0,0.0,0.0,0.0,0.0,0.0,0.0,0.0,0.0,0.0,0.0,0.0,0.0,0.0,0.0,0.0,0.0,0.0,0.0,0.0,0.0,0.0,0.0,0.0,0.0,0.0,0.0,0.0,0.0,0.0,0.0,0.0,0.0,0.0,0.0,0.0,0.0,0.0,0.0,0.0,0.0,0.0,0.0,0.0,0.0,0.0,0.0,0.0,0.0,0.0,0.0,0.0,0.0,0.0,0.0,0.0,0.0,0.0,0.0,0.0,0.0,0.0,0.0,0.0,0.0,0.0,0.0,0.0,0.0,0.0,0.0,0.0,0.0,0.0,0.0,0.0,0.0,0.0,0.0,0.0,0.0,0.0,0.0,0.0,0.0,0.0,0.0,0.0,0.0,0.0,0.0,0.0,0.0,0.0,0.0,0.0,0.0,0.0,0.0,0.0,0.0,0.0,0.0,0.0,0.0,0.0,0.0,0.0,0.0,0.0,0.0,0.0,0.0,0.0,0.0,0.0,0.0,0.0,0.0,0.0,0.0,0.0,0.0,0.0,0.0,0.0,0.0,0.0,0.0,0.0,0.0,0.0,0.0,0.0,0.0,0.0,0.0,0.0,0.0,0.0,0.0,0.0,0.0,0.0,0.0,0.0,0.0,0.0,0.0,0.0,0.0,0.0,0.0,0.0,0.0,0.0,0.0,0.0,0.0,0.0,0.0,0.0,0.0,0.0,0.0,0.0,0.0,0.0,0.0,0.0,0.0,0.0,0.0,0.0,0.0,0.0,0.0,0.0,0.0,0.0,0.0,0.0,0.0,0.0,0.0,0.0,0.0,0.0,0.0,0.0,0.0,0.0,0.0,0.0,0.0,0.0,0.0,0.0,0.0,0.0,0.0,0.0,0.0,0.0,0.0,0.0,0.0,0.0,0.0,0.0,0.0,0.0,0.0,0.0,0.0,0.0,0.0,0.0,0.0,0.0,0.0,0.0,0.0,0.0,0.0,0.0,0.0,0.0,0.0,0.0,0.0,0.0,0.0,0.0,0.0,0.0,0.0,0.0,0.0,0.0,0.0,0.0,0.0,0.0,0.0,0.0,0.0,0.0,0.0,0.0,0.0,0.0,0.0,0.0,0.0,0.0,0.0,0.0,0.0,0.0,0.0,0.0,0.0,0.0,0.0,0.0,0.0,0.0,0.0,0.0,0.0,0.0,0.0,0.0,0.0,0.0,0.0,0.0,0.0,0.0,0.0,0.0,0.0,0.0,0.0,0.0,0.0,0.0,0.0,0.0,0.0,0.0,0.0,0.0,0.0,0.0,0.0,0.0,0.0,0.0,0.0,0.0,0.0,0.0,0.0,0.0,0.0,0.0,0.0,0.0,0.0,0.0,0.0,0.0,0.0,0.0,0.0,0.0,0.0,0.0,0.0,0.0,0.0,0.0,0.0,0.0,0.0,0.0,0.0,0.0,0.0,0.0,0.0,0.0,0.0,0.0,0.0,0.0,0.0,0.0,0.0,0.0,0.0,0.0,0.0,0.0,0.0,0.0,0.0,0.0,0.0,0.0,0.0,0.0,0.0,0.0,0.0,0.0,0.0,0.0,0.0,0.0,0.0,0.0,0.0,0.0,0.0,0.0,0.0,0.0,0.0,0.0,0.0,0.0,0.0,0.0,0.0,0.0,0.0,0.0,0.0,0.0,0.0,0.0,0.0,0.0,0.0,0.0,0.0,0.0,0.0,0.0,0.0,0.0,0.0,0.0,0.0,0.0,0.0,0.0,0.0,0.0,0.0,0.0,0.0,0.0,0.0,0.0,0.0,0.0,0.0,0.0,0.0,0.0,0.0,0.0,0.0,0.0,0.0,0.0,0.0,0.0,0.0,0.0,0.0,0.0,0.0,0.0,0.0,0.0,0.0,0.0,0.0,0.0,0.0,0.0,0.0,0.0,0.0,0.0,0.0,0.0,0.0,0.0,0.0,0.0,0.0,0.0,0.0,0.0,0.0,0.0,0.0,0.0,0.0,0.0,0.0,0.0,0.0,0.0,0.0,0.0,0.0,0.0,0.0,0.0,0.0,0.0,0.0,0.0,0.0,0.0,0.0,0.0,0.0,0.0,0.0,0.0,0.0,0.0,0.0,0.0,0.0,0.0,0.0,0.0,0.0,0.0,0.0,0.0,0.0,0.0,0.0,0.0,0.0,0.0,0.0,0.0,0.0,0.0,0.0,0.0,0.0,0.0,0.0,0.0,0.0,0.0,0.0,0.0,0.0,0.0,0.0,0.0,0.0,0.0,0.0,0.0,0.0,0.0,0.0,0.0,0.0,0.0,0.0,0.0,0.0,0.0,0.0,0.0,0.0,0.0,0.0,0.0,0.0,0.0,0.0,0.0,0.0,0.0,0.0,0.0,0.0,0.0,0.0,0.0,0.0,0.0,0.0,0.0,0.0,0.0,0.0,0.0,0.0,0.0,0.0,0.0,0.0,0.0,0.0,0.0,0.0,0.0,0.0,0.0,0.0,0.0,0.0,0.0,0.0,0.0,0.0,0.0,0.0,0.0,0.0,0.0,0.0,0.0,0.0,0.0,0.0,0.0,0.0,0.0,0.0,0.0,0.0,0.0,0.0,0.0,0.0,0.0,0.0,0.0,0.0,0.0,0.0,0.0,0.0,0.0,0.0,0.0,0.0,0.0,0.0,0.0,0.0,0.0,0.0,0.0,0.0,0.0,0.0,0.0,0.0,0.0,0.0,0.9226,0.9369,0.0,0.0,0.0,0.0,0.0,0.0,0.0,0.0,0.0,0.0,0.0,0.0,0.0,0.0,0.0,0.0,0.0,0.0,0.0,0.0,0.0,0.0,0.0,0.0,0.0,0.0,0.0,0.0,0.0,0.0,0.0,0.0,0.0,0.0,0.0,0.0,0.0,0.2088,0.2088,0.2088,0.2088,0.2739,0.3742,0.5072,0.0,0.0,0.0,0.0,0.0,0.0,0.0,0.0,0.0,0.0,0.0,0.0,0.0,0.0,0.0,0.0,0.0,0.0,0.0,0.0,0.0,0.0,0.0,0.0,0.0,0.0,0.0,0.0,0.0,0.0,0.0,0.0,0.0,0.0,0.0,0.0,0.0,0.0,0.0,0.0,0.0,0.0,0.0,0.0,0.0,0.0,0.0,0.0,0.0,0.0,0.0,0.0,0.0,0.0,0.0,0.0,0.0,0.0,0.0,0.0,0.0,0.0,0.0,0.0,0.0,0.0,0.0,0.0,0.0,0.0,0.9564,0.9456,0.0,0.0,0.0,0.0,0.0,0.0,0.0,0.0,0.0,0.0,0.0,0.0,0.0,0.0,0.0,0.0,0.0,0.0,0.0,0.0,0.0,0.0,0.0,0.2634,0.2414,0.0202,0.1008,0.1662,0.0,0.0,0.0,0.0,0.0,0.0,0.0025,0.0,0.0,0.0,0.0,0.0,0.0026,0.1145,0.2236,0.3321,0.3802,0.0,0.0,0.0,0.0,0.0,0.0,0.0,0.0,0.0,0.0,0.0,0.0,0.0,0.0,0.0,0.0,0.0,0.0,0.0,0.0,0.0,0.0,0.0,0.0,0.0,0.0,0.0,0.0,0.0,0.0,0.0,0.0,0.0,0.0,0.0,0.0,0.0,0.0,0.0,0.0,0.0,0.0,0.0,0.0,0.0,0.0,0.0,0.0,0.0,0.0,0.0,0.0,0.0,0.0,0.0,0.0,0.0,0.0,0.0,0.0,0.0,0.0,0.0,1.0211,1.0319,1.0473,1.0473,1.0555,1.0656,1.0141,0.9924,0.9893,0.9724,0.0,0.0,0.0,0.0,0.0,0.0,0.0,0.0,0.0,0.0,0.0,0.0,0.0,0.0,0.0,0.0,0.0,0.0,0.0,0.0,0.0,0.0425,0.0378,0.0025,0.0151,0.0252,0.0252,0.0,0.0,0.0,0.0,0.0,0.0,0.0,0.0,0.0,0.0,0.0,0.0,0.0185,0.037,0.0634,0.2956,0.4001,0.4007,0.0,0.0,0.0,0.0,0.0,0.0,0.0,0.0,0.0,0.0,0.0,0.0,0.0,0.0,0.0,0.0,0.0,0.0,0.0,0.0,0.0,0.0,0.0,0.0,0.0,0.0,0.0,0.0,0.0,0.0,0.0,0.0,0.0,0.0,0.0,0.0,0.0,0.0,0.0,0.0,0.0,0.9301,0.9322,0.0,0.0,0.0,0.0,0.0,0.0,0.0,0.0,0.0,0.0,0.0,0.0,0.0,0.9869,1.0193,1.0412,1.0575,1.0603,1.1029,1.1226,1.1246,1.1246,1.1328,1.1421,1.1246,0.0,1.0385,1.0076,0.0,0.0,0.0,0.0,0.0,0.0,0.0,0.0,0.0,0.0,0.0,0.0,0.0,0.0,0.0,0.0,0.0,0.0,0.0,0.0,0.0,0.0,0.0,0.0,0.0,0.0,0.0,0.0,0.0,0.0,0.0,0.0,0.0,0.0,0.0,0.0,0.0,0.0,0.0,0.0,0.0,0.0055,0.124,0.1753,0.1812,0.255,0.0,0.0,0.0,0.0,0.0,0.0,0.0,0.0,0.0,0.0,0.0,0.0,0.0,0.0,0.0,0.0,0.0,0.0,0.0,0.0,0.0,0.0,0.0,0.0,0.0,0.0,0.0,0.0,0.0,0.0,0.0,0.0,0.0,0.0,0.0,0.0,0.0,0.0,0.0,0.9422,0.9693,0.953,0.9517,0.9401,0.0,0.0,0.0,0.0,0.0,0.0,0.0,0.0,0.0,1.0222,1.0346,1.061,1.1029,1.1077,1.1267,1.1606,1.1714,1.1809,1.1898,1.1898,1.1884,1.1864,1.1832,1.1572,1.1171,1.0711,1.0434,1.0258,0.0,0.0,0.0,0.0,0.9686,0.9724,0.0,0.0,0.0,0.0,0.0,0.0,0.0,0.0,0.0,0.0,0.0,0.0,0.0,0.0,0.0,0.0,0.0,0.0,0.0,0.0,0.0,0.0,0.0,0.0,0.0,0.0,0.0,0.0,0.0,0.0,0.0,0.0,0.0,0.0,0.0,0.0,0.0054,0.1076,0.1489,0.1572,0.0,0.0,0.0,0.0,0.0,0.0,0.0,0.0,0.0,0.0,0.0,0.0,0.0,0.0,0.0,0.0,0.0,0.0,0.0,0.0,0.0,0.0,0.0,0.0,0.0,0.0,0.0,0.0,0.0,0.0,0.0,0.0,0.0,0.0,0.0,0.0,0.0,0.991,1.0177,0.9876,1.0069,1.0073,0.0,0.0,0.0,0.0,0.0,0.0,1.0292,1.048,1.0717,1.105,1.1178,1.1455,1.1861,1.1789,1.1979,1.2499,1.2383,1.239,1.2461,1.2461,1.2438,1.2329,1.2329,1.2182,1.1922,1.1327,1.0975,1.0799,1.0393,1.0229,1.0186,1.008,1.0069,1.0136,0.0,0.0,0.0,0.0,0.0,0.0,0.0,0.0,0.0,0.0,0.0,0.0,0.0,0.0,0.0,0.0,0.0,0.0,0.0,0.0,0.0,0.0,0.0,0.0,0.0,0.0,0.0,0.0,0.0,0.0,0.0,0.0,0.0,0.0,0.0,0.0,0.0,0.0083,0.0109,0.0109,0.0184,0.0,0.0,0.0,0.0,0.0,0.0,0.0,0.0,0.0,0.0,0.0,0.0,0.0,0.0,0.0,0.0,0.0,0.0,0.0,0.0,0.0,0.0,0.0,0.0,0.0,0.0,0.0,0.0,0.0,0.0,0.0,0.0,0.0,0.0,0.0,0.0,0.0,0.0,1.05,1.109,0.0,0.0,0.0,0.0,1.0446,1.0582,1.0799,1.1125,1.1288,1.1574,1.2016,1.2142,1.2366,1.2632,1.2625,1.2752,1.2969,1.2962,1.2962,1.2969,1.2969,1.2962,1.2955,1.2955,1.2785,1.242,1.1793,1.1409,1.1159,1.0934,1.0691,1.0487,1.0622,1.0588,1.0487,0.0,0.0,0.0,0.0,0.0,0.0,0.0,0.0,0.0,0.0,0.0,0.0,0.0,0.0,0.0,0.0,0.0,0.0,0.0,0.0,0.0,0.0,0.0,0.0,0.0,0.0,0.0,0.0,0.0,0.0,0.0,0.0,0.0,0.0,0.0,0.0,0.0,0.0,0.0,0.0,0.0,0.0,0.0,0.0,0.0,0.0,0.0,0.0,0.0,0.0,0.0,0.0,0.0,0.0,0.0,0.0,0.0,0.0,0.0,0.0,0.0,0.0,0.0,0.0,0.0,0.0,0.0,0.0,0.0,0.0,0.0,0.0,0.0,0.0,0.0,0.0,0.0,0.0,0.0,1.1246,1.184,0.0,1.1416,1.1491,1.1594,1.154,1.164,1.1857,1.2155,1.2223,1.2413,1.2805,1.2827,1.3003,1.3267,1.3173,1.3281,1.3526,1.3437,1.3342,1.3247,1.3349,1.3234,1.3009,1.3098,1.3023,1.2812,1.2461,1.2003,1.1579,1.1401,1.1279,1.1212,1.1165,1.1118,1.1063,0.0,0.0,0.0,0.0,0.0,0.0,0.0,0.0,0.0,0.0,0.0,0.0,0.0,0.0,0.0,0.0,0.0,0.0,0.0,0.0,0.0,0.0,0.0,0.0,0.0,0.0,0.0,0.0,0.0,0.0,0.0,0.0,0.0,0.0,0.0,0.0,0.0,0.0,0.0,0.0,0.0,0.0,0.0,0.0,0.0,0.0,0.0,0.0,0.0,0.0,0.0,0.0,0.0,0.0,0.0,0.0,0.0,0.0,0.0,0.0,0.0,0.0,0.0,0.0,0.0,0.0,0.0,0.0,0.0,0.0,0.0,0.0,0.0,0.0,0.0,0.0,0.0,1.143,1.2006,1.1864,1.2549,1.276,1.2152,1.2366,1.2533,1.2479,1.2615,1.2773,1.2983,1.299,1.3146,1.339,1.3397,1.3519,1.3777,1.3627,1.3675,1.3919,1.3727,1.3605,1.3553,1.3612,1.3539,1.3261,1.3356,1.3288,1.3105,1.2996,1.2664,1.2189,1.1945,1.1782,1.1651,1.1633,1.1586,1.1531,0.0,0.0,0.0,0.0,0.0,0.0,0.0,0.0,0.0,0.0,0.0,0.0,0.0,0.0,0.0,0.0,0.0,0.0,0.0,0.0,0.0,0.0,0.0,0.0,0.0,0.0,0.0,0.0,0.0,0.0,0.0,0.0,0.0,0.0,0.0,0.0,0.0,0.0,0.0,0.0,0.0,0.0,0.0,0.0,0.0,0.0,0.0,0.0,0.0,0.0,0.0,0.0,0.0,0.0,0.0,0.0,0.0,0.0,0.0,0.0,0.0,0.0,0.0,0.0,0.0,0.0,0.0,0.0,0.0,0.0,0.0,0.0,0.0,0.0,0.0,0.0,1.1281,1.1972,1.2488,1.2359,1.3119,1.3382,1.2801,1.3173,1.3363,1.3261,1.3342,1.3492,1.3599,1.3605,1.3666,1.3808,1.3808,1.3876,1.4119,1.3933,1.3933,1.4119,1.3926,1.3808,1.3802,1.3808,1.3808,1.3795,1.3795,1.3632,1.341,1.3397,1.3227,1.2962,1.2481,1.2128,1.184,1.202,1.1972,1.182,0.0,0.0,0.0,0.0,0.0,0.0,0.0144,0.0,0.0,0.0,0.0,0.0,0.0,0.0,0.0,0.0,0.0,0.0,0.0,0.0,0.0,0.0,0.0,0.0,0.0,0.0,0.0,0.0,0.0,0.0,0.0,0.0,0.0,0.0,0.0,0.0,0.0,0.0,0.0,0.0,0.0,0.0,0.0,0.0,0.0,0.0,0.0,0.0,0.0,0.0,0.0,0.0,0.0,0.0,0.0,0.0,0.0,0.0,0.0,0.0,0.0,0.0,0.0,0.0,0.0,0.0,0.0,0.0,0.0,0.0,0.0,0.0,0.0,0.0,1.1714,1.2115,1.2128,1.282,1.3383,1.3559,1.3987,1.4204,1.4034,1.3939,1.3919,1.3987,1.3926,1.3953,1.4109,1.4014,1.4021,1.417,1.4068,1.4082,1.4238,1.4197,1.4197,1.4238,1.4197,1.4116,1.4014,1.4122,1.4011,1.3795,1.3795,1.3693,1.3546,1.3329,1.3227,1.3132,1.2907,1.2657,1.2436,1.2406,1.2216,1.2043,0.0,0.0,0.0,0.0,0.0,0.0,0.0938,0.0797,0.0635,0.0076,0.0,0.0,0.0,0.0,0.0,0.0,0.0,0.0,0.0,0.0,0.0,0.0,0.0,0.0,0.0,0.0,0.0,0.0,0.0,0.0,0.0,0.0,0.0,0.0,0.0,0.0,0.0,0.0,0.0,0.0,0.0,0.0,0.0,0.0,0.0,0.0,0.0,0.0,0.0,0.0,0.0,0.0,0.0,0.0,0.0,0.0,0.0,0.0,0.0,0.0,0.0,0.0,0.0,0.0,0.0,0.0,0.0,0.0,0.0,0.0,0.0,0.0,0.0,0.0,1.2589,1.3057,1.339,1.3654,1.3946,1.4306,1.4502,1.4559,1.4559,1.4448,1.4387,1.4475,1.4401,1.4387,1.4482,1.4401,1.4367,1.4387,1.4299,1.4272,1.4299,1.4299,1.4299,1.4299,1.4299,1.4251,1.417,1.4258,1.4204,1.3991,1.3991,1.3953,1.3797,1.3553,1.3417,1.3336,0.0,0.0,0.0,0.0,1.2542,1.2338,0.0,0.0,0.0,0.0,0.0,0.0,0.2242,0.2157,0.1736,0.0412,0.0237,0.0162,0.0028,0.0,0.0,0.0,0.0,0.0,0.0,0.0,0.0,0.0,0.0,0.0,0.0,0.0,0.0,0.0,0.0,0.0,0.0,0.0,0.0,0.0,0.0,0.0,0.0,0.0,0.0,0.0,0.0,0.0,0.0,0.0,0.0,0.0,0.0,0.0,0.0,0.0,0.0,0.0,0.0,0.0,0.0,0.0,0.0,0.0,0.0,0.0,0.0,0.0,0.0,0.0,0.0,0.0,0.0,0.0,0.0,0.0,0.0,0.0,0.0,0.0,1.3627,1.4092,1.4708,1.4502,1.4387,1.4721,1.4769,1.4775,1.4796,1.4762,1.4748,1.4769,1.4755,1.4741,1.4741,1.4741,0.0,0.0,0.0,1.4468,1.4326,1.4306,1.4299,1.4299,1.4299,1.4299,1.4299,1.4299,1.4299,1.4299,1.4285,1.4197,1.4061,1.3862,1.3727,1.3565,1.3159,1.3023,1.3023,1.3009,1.2874,1.272,0.0,0.0,0.0,0.0,0.0,0.0,0.3755,0.3595,0.3131,0.1792,0.1615,0.1194,0.0106,0.0,0.0,0.0,0.0,0.0,0.0,0.0,0.0,0.0,0.0,0.0,0.0,0.0,0.0,0.0,0.0,0.0,0.0,0.0,0.0,0.0,0.0,0.0,0.0,0.0,0.0,0.0,0.0,0.0,0.0,0.0,0.0,0.0,0.0,0.0,0.0,0.0,0.0,0.0,0.0,0.0,0.0,0.0,0.0,0.0,0.0,0.0,0.0,0.0,0.0,0.0,0.0,0.0,0.0,0.0,0.0,0.0,0.0,0.0,0.0,1.3558,1.4089,1.4586,1.5316,1.5343,1.5323,1.5282,1.5282,1.533,1.5404,1.5242,1.5147,1.5269,1.5167,1.5099,1.5099,1.5099,1.5031,1.4935,1.476,1.4579,1.4475,1.4353,1.4299,1.4299,1.4299,0.0,1.4299,1.4299,1.4299,1.4292,1.417,1.4102,1.4061,1.3862,1.3781,1.3714,1.3308,1.3173,1.3159,1.3043,1.2982,1.2955,0.0,0.0,0.0,0.0,0.0,0.0,0.5085,0.4954,0.4516,0.3177,0.241,0.1758,0.1077,0.0398,0.0,0.0,0.0,0.0,0.0,0.0,0.0,0.0,0.0,0.0,0.0,0.0,0.0,0.0,0.0,0.0,0.0,0.0,0.0,0.0,0.0,0.0,0.0,0.0,0.0,0.0,0.0,0.0,0.0,0.0,0.0,0.0,0.0,0.0,0.0,0.0,0.0,0.0,0.0,0.0751,0.1616,0.0,0.0,0.0,0.0,0.0,0.0,0.0,0.0,0.0,0.0,0.0,0.0,0.0,0.0,1.2305,1.2766,0.0,1.3878,1.4572,1.4991,1.5371,1.59,1.5974,1.592,1.5764,1.5744,1.5744,1.5744,1.5608,1.5595,1.5628,1.5609,1.5602,1.5628,1.5609,1.5452,1.5309,1.5079,1.4889,1.474,1.4597,1.4482,1.4407,1.4407,1.4367,1.4299,1.4299,1.4299,1.4299,1.4217,1.4183,1.4177,1.4021,1.3912,1.3774,1.3593,1.3464,1.3383,1.3234,1.3173,1.3105,0.0,0.0,0.0,0.0,0.0,0.0,0.0,0.6317,0.5907,0.4563,0.3454,0.2674,0.2416,0.1434,0.0673,0.0413,0.0156,0.0,0.0,0.0,0.0,0.0,0.0,0.0,0.0,0.0,0.0,0.0,0.0,0.0,0.0,0.0,0.0,0.0,0.0,0.0,0.0,0.0,0.0,0.0,0.0,0.0,0.0,0.0,0.0,0.0,0.0,0.0,0.0,0.0,0.0,0.0077,0.0538,0.1906,0.337,0.3405,0.4941,0.0,0.0,0.0,0.0,0.0,0.0,0.0,0.0,1.145,1.1689,1.2162,1.2603,1.3105,1.3761,1.4272,1.4814,1.5553,1.5845,1.6049,1.6354,1.6395,1.6361,1.6266,1.6205,1.6117,1.6044,1.603,1.603,1.603,1.603,1.6035,1.6157,1.6071,1.5872,1.5681,1.5432,1.5201,1.5059,1.4903,1.4746,1.4604,1.4604,1.4523,1.4387,1.4387,1.4367,1.434,1.4312,1.4299,1.4292,1.4163,1.4041,1.3883,1.3856,1.3774,1.3695,1.3546,1.341,1.3302,0.0,0.0,0.0,0.0,0.0,0.0,0.0,0.0,0.7291,0.5947,0.5651,0.5112,0.3897,0.3633,0.3079,0.1871,0.0678,0.0,0.0,0.0,0.0,0.0,0.0,0.0,0.0,0.0,0.0,0.0,0.0,0.0,0.0,0.0,0.0,0.0,0.0,0.0,0.0,0.0,0.0,0.0,0.0,0.0,0.0,0.0,0.0,0.0,0.0,0.0,0.0,0.0,0.0,0.0388,0.2514,0.3378,0.3892,0.5425,0.6101,0.6204,0.5588,0.6701,0.8569,1.0658,1.1219,1.1544,0.0,1.288,1.3003,1.3717,1.4068,1.4434,1.4916,1.5269,1.556,1.5974,1.6157,1.6361,1.6608,1.6648,1.6748,1.6863,1.6639,1.6463,1.6449,1.6442,1.6442,1.6442,1.6442,1.6456,1.6469,1.6334,1.6191,1.6035,1.5744,1.5465,1.5364,1.5208,1.5059,1.4923,1.4923,1.4841,1.4647,1.4647,1.4572,1.4482,1.4353,1.4299,1.4299,1.4278,1.4265,1.4238,1.4102,1.4078,1.4,1.3851,1.3741,1.372,0.0,0.0,0.0,0.0,0.0,0.0,0.0,0.0,0.0,0.7235,0.6475,0.5775,0.5227,0.4473,0.3773,0.3218,0.273,0.2517,0.2713,0.1825,0.1379,0.1561,0.0551,0.0,0.0,0.0,0.0,0.0,0.0,0.0,0.0,0.0,0.0,0.0,0.0,0.0,0.0,0.0,0.0,0.0,0.0,0.0,0.0,0.0,0.0,0.0,0.0,0.0,0.0,0.0,0.0812,0.199,0.299,0.495,0.6966,0.7528,0.8637,0.961,0.9376,0.9906,1.0767,1.184,1.2332,1.2657,1.3186,1.339,1.3634,1.4211,1.4706,1.5147,1.5554,1.5893,1.6225,1.6385,1.6598,1.6748,1.687,1.6883,1.691,1.6971,1.687,1.6754,1.6615,1.6601,1.6601,1.6601,1.6601,1.6693,1.6781,1.6646,1.6486,1.6469,1.6185,1.6001,1.5934,1.5696,1.5499,1.5357,1.5269,1.5147,1.4997,1.4909,1.4787,1.4593,1.4584,1.4509,1.4503,1.5808,1.6334,1.6326,1.63,1.6269,1.6063,1.4392,1.3795,1.3795,0.0,0.0,0.0,0.0,0.0,0.0,0.0,0.0,0.0,0.0,0.716,0.6556,0.6556,0.5347,0.4543,0.4543,0.4309,0.4283,0.4619,0.3556,0.3061,0.344,0.2211,0.1574,0.1596,0.1653,0.1635,0.161,0.1094,0.0852,0.0784,0.0252,0.0,0.0,0.0,0.0,0.0,0.0,0.0,0.0,0.0,0.0,0.0,0.0,0.0,0.0,0.0,0.0,0.0074,0.0561,0.1737,0.3178,0.433,0.6715,0.9169,0.9473,1.0638,1.188,1.2002,1.2125,1.2322,1.2705,1.318,1.3593,1.379,1.4027,1.434,1.4787,1.5228,1.5649,1.6029,1.6368,1.6594,1.679,1.6965,1.7039,1.7039,1.7039,1.7026,1.6985,1.6944,1.689,1.677,1.6763,1.6763,1.6763,1.6763,1.6863,1.6978,1.6836,1.6696,1.6696,1.6503,1.6368,1.6368,1.6151,1.5947,1.5757,1.5649,1.5493,1.5303,1.516,1.5004,1.4862,1.4821,1.4713,1.4698,1.6261,1.692,1.6969,1.762,1.7849,1.7642,1.6348,1.5031,1.3923,0.0,0.0,0.0,0.0,0.0,0.0,0.0,0.0,0.0,0.0,0.0,0.0,0.0,0.6731,0.5927,0.5927,0.4753,0.4148,0.4473,0.4578,0.4825,0.5312,0.539,0.5498,0.5611,0.5757,0.5761,0.5618,0.387,0.2924,0.2775,0.089,0.0,0.0,0.0,0.0,0.0,0.0,0.0,0.0,0.0,0.0,0.0,0.0,0.0,0.0,0.0,0.0,0.0282,0.2022,0.2673,0.3421,0.7463,0.8829,0.9286,1.1143,1.1496,1.1322,1.1685,1.2155,1.2664,1.341,1.4034,1.455,1.4901,1.5085,1.5269,1.5765,1.5874,1.6071,1.656,1.6682,1.6784,1.7134,1.7182,1.7182,1.7182,1.7182,1.7134,1.6998,1.6849,1.6763,1.6958,1.6971,1.6971,1.6971,1.6971,1.6978,1.6978,1.6836,1.6696,1.6696,1.6547,1.6517,1.6517,1.6503,1.6354,1.6069,1.6062,1.5906,1.5573,1.5466,1.5316,1.516,1.5071,1.4875,1.4687,1.4772,1.4729,1.4816,1.7109,1.7924,1.806,2.0173,1.8139,1.4285,0.0,0.0,0.0,0.0,0.0,0.0,0.0,0.0,0.0,0.0,0.0,0.0,0.0,0.0,0.0,0.0,0.7037,0.6975,0.7259,0.6589,0.6342,0.6696,0.6019,0.5608,0.565,0.5884,0.5965,0.5949,0.5462,0.5247,0.5275,0.4632,0.435,0.4433,0.445,0.4429,0.4446,0.4465,0.4491,0.456,0.429,0.4281,0.4406,0.3919,0.3706,0.3687,0.0,0.28,0.2046,0.3712,0.5282,0.6809,0.8177,0.9474,1.053,1.1056,1.1381,1.1708,1.2155,1.278,1.3504,1.416,1.4769,1.5242,1.5391,1.5601,1.5825,1.6024,1.5976,1.5996,1.6252,1.6388,1.6524,1.6714,1.6998,1.7229,1.7331,1.7344,1.729,1.7141,1.7073,1.7026,1.6985,1.689,1.687,1.6971,1.7066,1.708,1.6985,1.7019,1.6998,1.6904,1.6856,1.6829,1.6829,1.6727,1.6574,1.6524,1.6327,1.613,1.5934,1.5879,1.5716,1.5568,1.7051,1.7506,1.7405,2.0606,2.1757,2.1599,2.2387,2.2694,2.2511,2.1575,2.0226,1.8889,0.0,0.0,0.0,0.0,0.0,0.0,0.0,0.0,0.0,0.0,0.0,0.0,0.0,0.0,0.0,0.0,0.0,0.8316,0.8608,0.7979,0.7794,0.8175,0.754,0.7213,0.7285,0.7484,0.7617,0.7678,0.7163,0.701,0.7201,0.6486,0.6283,0.6446,0.6454,0.6492,0.6556,0.6556,0.6553,0.6499,0.6217,0.6111,0.6087,0.5689,0.5493,0.0,0.6047,0.5526,0.476,0.5785,0.7116,0.8436,0.9095,1.0172,1.1213,1.1212,1.1611,1.2216,1.2881,1.36,1.4275,1.4977,1.5513,1.5844,1.5891,1.6103,1.6239,1.6239,1.6076,1.6017,1.6062,1.6076,1.6117,1.6259,1.6571,1.6883,1.7148,1.7128,1.7182,1.7195,1.7148,1.708,1.6992,1.689,1.6876,1.6971,1.7066,1.708,1.6985,1.7066,1.7073,1.6985,1.6978,1.6978,1.6978,1.6883,1.675,1.6696,1.7401,1.7636,1.7582,1.8507,1.876,1.8568,1.9945,2.0376,2.029,2.3306,2.4375,2.4183,2.5041,2.5334,2.5172,2.4223,2.3819,2.3593,0.0,0.0,0.0,0.0,0.0,0.0,0.0,0.0,0.0,0.0,0.0,0.0,0.0,0.0,0.0,0.0,0.0,0.0,0.8478,0.8737,0.9102,0.9564,0.9852,1.0089,1.0263,1.0419,1.0568,1.0684,0.8978,0.8313,0.8595,0.6764,0.6055,0.63,0.63,0.6377,0.6558,0.6562,0.6403,0.611,0.611,0.5843,0.5466,0.5596,0.5553,0.5626,0.7327,0.8035,0.8138,0.8117,0.8135,0.8462,1.0198,1.0982,1.1342,1.1755,1.221,1.2793,1.3867,1.4441,1.497,1.5745,1.611,1.6374,1.6503,1.6537,1.6537,1.6466,1.6259,1.6042,1.6029,1.5811,1.5689,1.5888,1.6029,1.6307,1.6696,1.6763,1.6865,1.7195,1.7107,1.7026,1.7019,1.7005,1.7005,1.7005,1.7005,1.6998,1.6992,1.7005,1.7005,1.6992,1.6992,1.6985,1.6978,1.7136,1.7165,1.7169,1.9367,2.0432,2.0532,2.2876,2.3876,2.37,2.3514,2.3337,2.3169,2.3036,2.2901,2.291,2.5126,2.5923,2.6026,2.7935,2.8631,2.7964,0.0,0.0,0.0,0.0,0.0,0.0,0.0,0.0,0.0,0.0,0.0,0.0,0.0,0.0,0.0,0.0,0.0,0.0,0.8342,0.8683,0.9007,0.9288,0.9737,1.0004,1.0076,1.0358,1.0568,1.0684,1.0327,1.0335,1.0637,1.0132,0.9998,1.019,1.019,1.0201,1.0279,1.0367,1.0367,1.0253,1.0069,1.0034,1.0051,0.9543,0.9395,0.9474,0.9842,0.9926,0.987,0.9876,1.0168,1.0655,1.1299,1.1755,1.2094,1.2542,1.3064,1.3612,1.4329,1.5059,1.5669,1.609,1.6503,1.6788,1.6655,1.6781,1.6768,1.6435,1.5947,1.5513,1.5343,1.5466,1.5723,1.5981,1.6619,1.7195,1.7534,1.7684,1.7738,1.7704,1.767,1.7595,1.7433,1.7372,1.7311,1.7311,1.7311,1.7256,1.7148,1.7358,1.7372,1.7148,1.7141,1.7087,1.6985,1.9044,2.1077,2.3021,2.3523,2.3803,2.3783,2.4047,2.418,2.4207,2.5652,2.6135,2.6026,2.7744,2.8214,2.7982,2.8385,2.8523,2.852,2.8814,2.8881,2.8711,0.0,0.0,0.0,0.0,0.0,0.0,0.0,0.0,0.0,0.0,0.0,0.0,0.0,0.0,0.0,0.0,0.0,0.0,0.0,0.8601,0.8804,0.8981,0.9318,0.9505,0.9505,0.9788,1.0012,1.0236,1.0285,1.0549,1.0995,1.0934,1.1056,1.1286,1.1286,1.1327,1.1423,1.1504,1.1463,0.0,0.0,1.1118,1.1111,1.0758,1.067,1.0711,1.0691,1.0792,1.0914,1.1118,1.1438,1.1735,1.2033,1.2338,1.2737,1.3322,1.3824,1.4336,1.5045,1.5676,1.6218,1.653,1.6795,1.6924,1.6648,1.6666,1.6537,1.6022,1.554,1.5147,1.4909,1.5133,1.5425,1.5649,1.6388,1.708,1.7507,1.7704,1.7846,1.7948,1.7968,1.7901,1.7758,1.8907,1.9596,1.9446,1.8147,1.7385,1.7297,1.8671,1.9378,1.9243,2.0449,2.0986,2.0759,2.2175,2.3672,2.5215,2.6251,2.6688,2.6728,2.7384,2.7706,2.7768,2.8629,2.8924,2.8902,3.0096,3.0448,3.0274,2.998,2.9918,2.9864,2.9392,2.9232,2.9192,0.0,0.0,0.0,0.0,0.0,0.0,0.0,0.0,0.0,0.0,0.8265,0.0,0.0,0.0,0.0,0.0,0.0,0.0,0.0,0.0,0.8581,0.873,0.8838,0.8912,0.8912,0.9062,0.9301,0.9578,0.9578,0.9863,1.0399,1.0276,1.0426,1.0765,1.0765,1.0833,1.1023,1.1036,1.0853,1.0569,1.0643,1.0507,1.0297,0.0,1.0507,1.0541,1.0697,1.1029,1.1463,1.1996,1.22,1.2309,1.2603,1.2935,1.3384,1.4112,1.457,1.5045,1.5799,1.6259,1.6653,1.6937,1.7026,1.6951,1.6598,1.6415,1.613,1.5486,1.5133,1.4889,1.4667,1.4841,1.5091,1.5262,1.59,1.6598,1.7249,1.7845,1.8327,1.8762,1.919,1.9383,1.9175,2.1665,2.3095,2.2674,2.0201,1.8661,1.8564,2.1017,2.2397,2.2424,2.4827,2.6138,2.6161,2.5923,2.5964,2.628,2.8468,2.9517,2.9555,3.1367,3.2225,3.2185,3.1597,3.1343,3.1316,3.0982,3.0849,3.0822,3.0574,3.044,3.0346,2.9838,2.9579,2.9499,0.0,0.0,0.0,0.0,0.0,0.0,0.0,0.0,0.0,0.0,0.9658,0.8253,0.0,0.0,0.0,0.0,0.0,0.0,0.0,0.0,0.0,0.8865,0.8899,0.8912,0.8912,0.8933,0.9123,0.9422,0.9422,0.9598,0.9907,0.991,0.9913,0.9988,0.9988,1.0001,1.0059,1.0157,1.0109,0.9967,1.0256,1.0324,1.0297,1.0439,1.0568,0.0,1.0819,1.1118,1.1497,1.2189,1.2671,1.3118,1.3669,1.4089,1.4512,1.5181,1.5506,1.5771,1.6273,1.6646,1.6944,1.7114,1.7249,1.7202,1.6646,1.6415,1.6069,1.5221,1.4903,1.4654,1.4428,1.4699,1.5228,1.5825,1.6347,1.6959,1.7982,2.0525,2.2373,2.267,2.4906,2.6259,2.5973,2.6329,2.6474,2.6152,2.5622,2.5176,2.4768,2.5341,2.5629,2.5496,2.591,2.708,2.9026,2.9043,2.999,3.1969,3.2433,3.262,3.2607,3.2775,3.2826,3.2786,3.2211,3.1944,3.1904,3.137,3.1156,3.1116,3.0835,3.0614,3.04,3.0293,3.0047,2.9806,0.0,0.0,0.0,0.0,0.0,0.0,0.0,1.3292,1.3189,1.2688,1.1667,1.0627,0.9644,0.8979,0.8601,0.0,0.0,0.0,0.0,0.0,0.0,0.8906,0.8912,0.8912,0.8912,0.9061,0.9239,0.941,0.0,0.9612,0.9792,0.9717,0.9717,0.9792,0.9792,0.9792,0.9798,0.9954,0.9974,0.9927,1.0188,1.0324,1.0399,1.0466,1.0636,0.0,1.1009,1.1301,1.1701,1.2216,1.2847,1.3512,1.4109,1.4611,1.5072,1.5594,1.5913,1.6191,1.6639,1.6924,1.7148,1.7372,1.7311,1.7032,1.6429,1.6056,1.5608,1.4787,1.4563,1.4468,1.4326,1.4665,1.516,1.5547,1.7205,1.8825,2.0046,2.2949,2.5236,2.6002,2.7362,2.8068,2.7788,2.9008,2.9646,2.9349,3.0653,3.0148,2.7037,2.823,2.9644,3.1083,3.081,3.1114,3.2109,3.2021,3.2429,3.3414,3.3414,3.3414,3.34,3.3106,3.2973,3.2946,3.2358,3.2104,3.2064,3.1637,3.145,3.1423,3.1129,3.0929,3.0768,3.052,3.0319,3.01,0.0,0.0,0.0,0.0,0.0,0.0,0.0,1.4898,1.4668,1.4008,1.4019,1.3534,1.2068,1.0673,0.9818,0.0,0.0,0.0,0.0,0.0,0.0,0.0,0.0,0.0,0.8953,0.0,0.0,0.9429,0.9551,0.0,0.0,0.0,0.0,0.0,0.9792,0.9792,0.9798,0.992,0.9988,0.0,0.0,1.0365,1.0493,0.0,0.0,0.0,0.0,1.1409,1.1796,1.2203,1.2847,1.3587,1.4183,1.4767,1.5323,1.582,1.6144,1.6497,1.691,1.7154,1.7338,1.7494,1.7311,1.6849,1.6235,1.571,1.5335,1.5111,1.5036,1.5036,1.5036,1.574,1.6215,1.5975,1.8496,2.0959,2.2486,2.5429,2.7918,2.9187,2.9976,3.0269,2.9887,3.1853,3.2949,3.2392,3.4486,3.3842,2.9295,3.1045,3.3251,3.5431,3.5097,3.471,3.4416,3.4122,3.3828,3.3507,3.344,3.3414,3.34,3.3173,3.3066,3.304,3.2452,3.2225,3.2265,3.1837,3.1751,3.173,3.1436,3.1276,3.1169,3.0715,3.056,3.0467,0.0,0.0,0.0,0.0,0.0,0.0,0.0,1.6735,1.708,1.7461,1.6652,1.5981,1.5795,1.4494,1.3418,0.0,0.0,0.0,0.0,0.0,0.0,0.0,0.0,0.0,0.0,0.0,0.0,0.9591,0.9605,0.0,0.0,0.0,0.0,0.0,0.0,0.9792,0.9792,0.9805,0.0,0.0,0.0,0.0,0.0,0.0,0.0,0.0,0.0,1.1315,1.1538,1.2244,1.2725,1.3166,1.3673,1.4539,1.5479,1.5927,1.6368,1.6723,1.7087,1.7385,1.7527,1.7412,1.7304,1.6944,1.6126,1.5635,1.5798,1.7214,1.7501,1.7501,1.7501,1.9195,2.0132,1.853,2.0334,2.2585,2.463,2.8132,3.1052,3.248,3.5418,3.7028,3.6148,3.6597,3.6434,3.531,3.5977,3.5869,3.4556,3.4952,3.5232,3.5244,3.5191,3.5017,3.4775,3.4429,3.4135,3.3841,3.3547,3.3414,3.3414,3.3387,3.3374,3.3334,3.2808,3.2701,3.2826,3.2059,3.1824,3.2038,3.1744,3.1463,3.1176,3.1122,3.0982,3.0755,0.0,0.0,0.0,0.0,0.0,0.0,1.662,1.6685,1.6993,1.7889,1.7613,1.74,1.7606,1.7431,1.6343,1.3978,0.0,0.0,0.0,0.0,0.0,0.0,0.0,0.0,0.0,0.0,0.9424,0.9612,0.9693,0.0,0.0,0.0,0.0,0.0,0.0,0.9792,0.9805,1.0019,0.0,0.0,0.0,0.0,0.0,0.0,0.0,0.0,0.0,0.0,1.1714,1.2108,1.2501,1.2881,1.3207,1.3905,1.4746,1.5466,1.7281,1.8798,1.7527,1.9952,2.2417,2.069,2.0897,2.1341,2.0857,1.9943,1.9336,1.9759,1.9836,1.9836,1.9836,2.0572,2.0985,2.028,2.2268,2.4459,2.6001,2.9027,3.1946,3.4304,3.5681,3.662,3.7155,3.6834,3.6259,3.5431,3.5912,3.5939,3.5231,3.5645,3.5765,3.5471,3.5284,3.4977,3.4496,3.4376,3.4082,3.3601,3.3467,3.3414,3.3414,3.3414,3.3414,3.3387,3.2986,3.2915,3.2933,3.246,3.2206,3.2091,3.1971,3.1744,3.1476,3.1289,3.1156,3.1049,0.0,0.0,0.0,0.0,0.0,1.6008,1.662,1.6632,1.6953,1.8009,1.8223,1.8396,1.8718,1.9147,1.8394,1.5875,1.5024,0.0,0.0,0.0,0.0,0.0,0.0,0.0,0.0,0.0,1.001,0.9673,1.0263,1.032,0.0,0.0,0.9832,0.9792,0.0,0.0,0.0,0.0,0.0,0.0,0.0,0.0,0.0,0.0,0.0,0.0,0.0,0.0,0.0,0.0,0.0,1.3657,1.445,1.5172,1.5803,1.6136,1.8231,2.0317,1.9469,2.2671,2.5788,2.38,2.3866,2.4327,2.3959,2.2792,2.1917,2.2199,2.2256,2.2256,2.2256,2.2815,2.303,2.2342,2.4359,2.6455,2.7755,2.9739,3.2024,3.4549,3.475,3.5191,3.6473,3.6206,3.5778,3.5351,3.5712,3.5725,3.5217,3.5672,3.5805,3.5511,3.5311,3.495,3.4456,3.4362,3.4068,3.3547,3.3454,3.3414,3.3414,3.3414,3.3414,3.34,3.3106,3.3026,3.308,3.2755,3.2527,3.2358,3.2265,3.2104,3.1952,3.169,3.161,3.1597,0.0,0.0,0.0,0.0,0.0,0.0,1.662,1.6979,1.7488,1.837,1.8731,1.9025,1.9361,1.9388,1.9401,1.9359,1.7708,0.0,0.0,0.0,0.0,0.0,0.0,0.0,0.0,0.0,1.126,0.9792,1.1524,1.1486,0.9792,0.9947,0.9934,0.9792,0.0,0.0,0.0,0.0,0.0,0.0,0.0,0.0,1.0704,0.0,0.0,0.0,0.0,0.0,0.0,0.0,0.0,0.0,0.0,1.9134,1.9471,1.8443,1.9124,2.0753,2.333,2.5046,2.6038,2.5922,2.5305,2.4578,2.3883,2.2849,2.2602,2.4327,2.4648,2.4648,2.4648,2.6546,2.7363,2.5032,2.663,2.8671,3.0154,3.0608,3.1343,3.2826,3.328,3.3814,3.4762,3.5297,3.5578,3.5631,3.5578,3.5511,3.5204,3.5471,3.5498,3.5204,3.5191,3.5057,3.4815,3.4469,3.4175,3.3881,3.3561,3.3414,3.3414,3.3414,3.3414,3.34,3.3106,3.3146,3.336,3.2835,3.2755,3.2946,3.2701,3.2581,3.2581,3.2581,3.2581,3.2541,0.0,0.0,0.0,0.0,0.0,0.0,0.0,1.6313,1.6633,1.7729,1.7943,1.8277,1.8985,1.9267,1.9401,1.9401,1.8677,0.0,0.0,0.0,0.0,0.0,0.0,0.0,0.0,0.0,1.2942,1.1586,1.2133,1.1611,1.0134,1.0181,1.0181,1.0134,1.0134,1.0161,0.0,0.0,0.0,0.0,0.0,1.4313,1.4425,0.0,0.0,0.0,0.0,0.0,0.0,0.0,0.0,0.0,0.0,0.0,0.0,2.1599,2.3103,2.3995,2.3284,2.6422,2.9454,2.7372,2.7764,2.8497,2.8014,2.7201,2.6655,2.7029,2.7109,2.7109,2.7109,2.7701,2.8034,2.7465,2.7974,2.8631,2.9098,2.9927,3.1162,3.2786,3.4843,3.6086,3.5965,3.5939,3.5845,3.5645,3.5444,3.5297,3.5204,3.5284,3.5204,3.4962,3.4949,3.467,3.4175,3.4068,3.3868,3.3561,3.3454,3.3414,3.3414,3.3414,3.3414,3.3414,3.332,3.332,3.34,3.3213,3.308,3.2973,3.2929,3.2768,3.2594,3.2594,3.2594,3.2607,0.0,0.0,0.0,0.0,0.0,0.0,0.0,1.6046,1.6339,1.7327,1.7541,1.7929,1.8796,1.9092,1.9292,1.9535,1.9359,0.0,0.0,0.0,0.0,0.0,0.0,0.0,0.0,1.5062,1.4717,1.3377,1.4033,1.3651,1.2248,1.2313,1.2305,1.2248,1.2248,1.2281,0.0,0.0,0.0,0.0,1.5459,1.5939,1.6057,0.0,0.0,0.0,0.0,0.0,0.0,0.0,0.0,0.0,0.0,0.0,0.0,0.0,2.5652,2.6299,2.5423,2.8268,3.1065,2.9225,2.9589,3.0333,2.998,2.9232,2.8524,2.8245,2.8179,2.8179,2.8179,2.8179,2.8245,2.8404,2.843,2.8551,2.8885,2.9659,3.0808,3.2452,3.4857,3.6206,3.5725,3.6019,3.6072,3.5605,3.5458,3.5311,3.5204,3.5191,3.5057,3.4829,3.4815,3.4641,3.4229,3.4002,3.3788,3.3587,3.3467,3.3414,3.3414,3.3414,3.3414,3.3414,3.3414,3.3414,0.0,3.3414,3.3307,3.3146,3.3146,3.3026,3.2929,3.2929,3.2929,3.2915,0.0,0.0,0.0,0.0,0.0,0.0,0.0,1.6059,1.6471,1.7085,1.7394,1.7889,1.8798,1.889,1.913,1.9746,0.0,0.0,0.0,0.0,0.0,0.0,0.0,0.0,0.0,1.6301,1.6551,1.5196,1.6836,1.6909,1.5535,1.5667,1.5656,1.5525,1.5525,1.5606,0.0,0.0,0.0,0.0,1.6268,1.63,0.0,0.0,0.0,0.0,0.0,0.0,0.0,0.0,0.0,0.0,0.0,0.0,0.0,0.0,0.0,0.0,0.0,3.0181,3.1009,3.1009,3.0621,3.0199,2.986,2.9179,0.0,2.8245,2.8179,2.8179,2.8179,2.8179,2.8192,2.8219,2.8219,2.8526,2.9366,2.9873,3.0702,3.2144,3.3855,3.479,3.4482,3.5698,3.6273,3.5698,3.5591,3.5498,3.5204,3.5191,3.507,3.4855,3.4802,3.4775,3.4748,3.4162,3.3881,3.3855,3.3547,3.3414,3.3414,3.3414,3.3414,3.3414,3.3414,3.3414,3.3414,3.3414,3.3414,3.3414,3.3414,3.3414,3.3414,3.3414,3.3414,3.3334,0.0,0.0,0.0,0.0,0.0,0.0,0.0,0.0,0.0,0.0,1.7086,1.7622,1.849,1.8784,1.913,0.0,0.0,0.0,0.0,0.0,0.0,0.0,0.0,0.0,0.0,1.8816,1.8429,1.7001,1.7653,1.7245,1.5794,1.5844,1.5844,1.5826,1.5826,1.5824,0.0,0.0,0.0,0.0,1.9727,2.0257,0.0,0.0,0.0,0.0,2.2186,2.2534,0.0,0.0,0.0,0.0,0.0,0.0,0.0,0.0,2.7202,2.7483,2.8286,0.0,2.8915,2.8915,2.8938,2.8938,0.0,2.8591,2.8524,2.8245,2.8179,2.8179,2.8179,2.8179,2.8259,2.8457,2.8497,2.8724,2.9392,3.1276,3.3053,3.4322,3.5631,3.6219,3.5712,3.6166,3.6353,3.5992,3.5752,3.5498,3.5204,3.5191,3.5164,3.5097,3.4656,3.4322,3.4095,3.3961,3.3761,3.3521,3.3454,3.3414,3.3414,3.3414,3.3414,3.3414,3.3414,3.3414,3.3414,3.3414,3.3414,3.3414,3.3414,3.3414,3.3414,3.3414,3.3414,3.3387,0.0,0.0,0.0,0.0,0.0,0.0,0.0,0.0,0.0,0.0,0.0,1.726,1.8023,1.8464,0.0,0.0,0.0,0.0,0.0,0.0,0.0,0.0,0.0,1.9158,1.9158,1.9586,1.9485,1.8802,1.9137,1.8959,1.8276,1.8276,1.8276,1.8276,1.8276,1.8276,0.0,0.0,1.99,2.0293,2.1213,0.0,0.0,0.0,0.0,0.0,2.3006,2.3514,0.0,2.4262,2.4596,2.4917,0.0,0.0,0.0,0.0,2.7095,2.7403,2.7857,2.8085,2.8179,2.8179,2.8312,2.8393,2.8219,2.8312,2.8393,2.8219,2.8179,2.8179,2.8179,2.8299,2.8406,2.839,2.8738,2.9352,3.0386,3.2171,3.3855,3.5057,3.5992,3.6473,3.6286,3.6393,3.6326,3.5899,3.5725,3.5498,3.5204,3.5191,3.5191,3.5191,3.4883,3.4576,3.4347,3.3881,3.3654,3.3627,3.348,3.3414,3.3414,3.3414,3.3414,3.3414,3.3414,3.3414,3.3414,3.3414,3.3414,3.3414,3.3414,3.3414,3.3414,3.3414,3.3414,3.3387,0.0,0.0,0.0,0.0,0.0,0.0,0.0,0.0,0.0,0.0,0.0,0.0,0.0,0.0,0.0,0.0,0.0,0.0,0.0,0.0,0.0,0.0,0.0,1.9011,1.9023,1.9586,2.0013,2.0264,2.0695,2.1002,2.1243,2.1283,2.1256,2.1176,2.1229,2.1189,0.0,0.0,2.1309,2.1649,2.1649,0.0,0.0,0.0,0.0,0.0,0.0,0.0,0.0,2.4409,2.4796,2.5168,2.5424,0.0,0.0,0.0,0.0,0.0,2.7669,2.8058,2.8299,2.8205,2.8179,2.8179,2.8179,2.8179,2.8179,2.8179,2.8179,2.8205,2.8245,2.843,2.8537,2.8353,2.9155,3.0274,3.1845,3.2973,3.4082,3.5137,3.5819,3.6273,3.6433,3.6513,3.6326,3.5738,3.5698,3.5551,3.5217,3.5151,3.5151,3.5191,3.511,3.4963,3.4815,3.3961,3.3641,3.3814,3.3534,3.3414,3.3414,3.3414,3.3414,3.3414,3.3414,3.3414,3.3414,3.3414,3.3414,3.3414,3.3414,3.3414,3.3414,3.3414,3.3414,3.3374,0.0,0.0,0.0,0.0,0.0,0.0,0.0,0.0,0.0,0.0,0.0,0.0,0.0,0.0,0.0,0.0,0.0,0.0,0.0,0.0,0.0,2.0024,1.9559,1.9441,1.9666,2.0,2.0307,2.0615,2.1403,2.1804,2.1857,2.2098,2.1951,2.1529,2.177,2.1577,2.1109,0.0,2.1416,2.1957,2.1957,0.0,0.0,0.0,0.0,0.0,0.0,0.0,0.0,2.4235,2.4636,2.5168,2.5424,0.0,0.0,0.0,0.0,0.0,2.7965,2.8484,2.8778,2.8312,2.8179,2.8179,2.8179,2.8179,2.8179,2.8179,2.8179,2.8272,2.8484,2.8577,2.8671,2.8871,3.006,3.157,3.3307,3.4336,3.5084,3.5511,3.6245,3.662,3.6179,3.658,3.662,3.6046,3.6006,3.5765,3.5231,3.4963,3.495,3.5191,3.471,3.4549,3.4815,3.4376,3.3948,3.348,3.3427,3.3414,3.3414,3.3414,3.3414,3.3414,3.3414,3.3414,3.3414,3.3414,3.3414,3.3414,3.3414,3.3414,3.3414,3.3414,3.3414,3.34,0.0,0.0,0.0,0.0,0.0,0.0,0.0,0.0,0.0,0.0,0.0,0.0,0.0,0.0,0.0,0.0,0.0,0.0,0.0,0.0,2.0441,2.0468,2.0067,1.9893,1.9997,2.0481,2.0855,2.1181,2.2064,2.2552,2.2712,2.2478,2.2191,2.181,2.159,2.1456,2.1381,2.1381,2.1683,2.2218,0.0,0.0,0.0,0.0,0.0,0.0,0.0,0.0,0.0,0.0,2.4823,2.5371,2.5651,0.0,0.0,0.0,0.0,0.0,2.759,2.7989,2.8364,2.8577,2.8871,2.9058,2.8941,2.8915,2.8861,2.8657,2.8511,2.8537,2.8991,2.9339,2.9913,3.0996,3.173,3.2572,3.3721,3.4643,3.5364,3.5819,3.65,3.6779,3.658,3.6739,3.6592,3.5885,3.5832,3.5645,3.5217,3.507,3.5057,3.5191,3.4937,3.471,3.4523,3.4549,3.4255,3.3668,3.3668,3.3574,3.3414,3.3414,3.3414,3.3414,3.3414,3.3414,3.3414,3.3414,3.3414,3.3414,3.3414,3.3414,3.3414,3.3414,3.3414,3.3414,0.0,0.0,0.0,0.0,0.0,0.0,0.0,0.0,0.0,0.0,0.0,0.0,0.0,0.0,0.0,0.0,0.0,0.0,0.0,0.0,2.0468,2.0762,2.0561,2.041,2.041,2.1015,2.1496,2.189,2.292,2.3541,2.3785,2.3118,2.2605,2.2198,2.1643,2.147,2.1582,2.1662,2.1984,2.2432,0.0,0.0,0.0,0.0,0.0,0.0,0.0,0.0,0.0,0.0,0.0,0.0,0.0,0.0,0.0,2.656,2.6747,2.7001,2.7416,2.7736,2.8163,2.8735,2.9219,2.9539,2.9659,2.9579,2.9486,2.9415,2.9272,2.9232,2.9619,3.0167,3.1162,3.2812,3.32,3.3601,3.4482,3.5177,3.5819,3.6461,3.6794,3.6992,3.6992,3.6981,3.6552,3.5792,3.5738,3.5605,3.5311,3.5164,3.5151,3.5297,3.5164,3.491,3.4523,3.475,3.4536,3.3881,3.3881,3.3761,3.3521,3.344,3.3414,3.3414,3.3414,3.3414,3.3414,3.3414,3.3414,3.3414,3.3414,3.3414,3.3414,3.3414,3.3414,3.3414,0.0,0.0,0.0,0.0,0.0,0.0,0.0,0.0,0.0,0.0,0.0,0.0,0.0,0.0,0.0,0.0,0.0,0.0,0.0,0.0,2.0806,2.1069,2.1056,2.1042,2.1042,2.1617,2.2238,2.28,2.4245,2.5077,2.5331,2.4476,2.3621,2.2813,2.2472,2.2031,2.1609,2.1877,2.2138,2.2445,2.2746,0.0,0.0,0.0,0.0,0.0,0.0,0.0,0.0,0.0,0.0,0.0,0.0,0.0,2.6493,2.7081,2.7255,2.7403,2.7965,2.8497,2.8855,2.8684,2.8457,2.8674,3.0038,2.9918,2.9713,3.0501,3.0648,3.0568,3.0386,3.0768,3.165,3.3133,3.3855,3.4803,3.6473,3.6754,3.6992,3.7635,3.7489,3.7342,3.7342,3.7088,3.6687,3.6086,3.6046,3.5912,3.5618,3.5084,3.5044,3.5578,3.5084,3.491,3.5124,3.5151,3.4736,3.3881,3.3881,3.3881,3.3841,3.3547,3.3414,3.3414,3.3414,3.3414,3.3414,3.3414,3.3414,3.3414,3.3414,3.3414,3.3414,3.3414,3.3414,3.3414,0.0,0.0,0.0,0.0,0.0,0.0,0.0,0.0,0.0,0.0,0.0,0.0,0.0,0.0,0.0,0.0,0.0,0.0,0.0,2.008,2.0535,2.0828,2.1015,2.1189,2.1422,2.2171,2.3041,2.3968,2.5264,2.5758,2.5491,2.4609,2.3728,2.288,2.2365,2.2124,2.2098,2.2205,2.2539,2.2958,2.3113,2.326,0.0,0.0,0.0,0.0,0.0,0.0,0.0,0.0,2.5277,2.5558,2.5904,2.6198,2.6466,2.6867,2.6867,2.6894,2.7483,2.7804,2.8043,2.8497,2.8419,2.8674,3.0474,3.0728,3.0715,3.1236,3.1476,3.1637,3.1751,3.2358,3.312,3.3855,3.4629,3.5431,3.6286,3.7021,3.7555,3.7782,3.7889,3.7863,3.7676,3.7382,3.6981,3.6393,3.634,3.6139,3.5658,3.5418,3.5324,3.5364,3.5151,3.5004,3.4923,3.511,3.4937,3.4481,3.4242,3.4055,3.3881,3.3561,3.3414,3.3414,3.3414,3.3414,3.3414,3.3414,3.3414,3.3414,3.3414,3.3414,3.3414,3.3414,3.3414,3.3414,0.0,0.0,0.0,0.0,0.0,0.0,0.0,0.0,0.0,0.0,0.0,0.0,0.0,0.0,0.0,0.0,0.0,0.0,1.9374,1.9826,2.0267,2.0686,2.0869,2.1243,2.185,2.2639,2.3541,2.4599,2.5905,2.6226,2.5638,2.4663,2.3875,2.3281,2.2472,2.2338,2.2665,2.2665,2.2905,2.3305,2.3492,2.3674,0.0,0.0,0.0,0.0,0.0,0.0,0.0,0.0,2.5344,2.5585,2.5972,2.6265,2.6453,2.6734,2.6747,2.6774,2.7309,2.7443,2.7643,2.8404,2.8444,2.8874,3.0889,3.1289,3.1476,3.2332,3.2438,3.2465,3.2808,3.3253,3.3761,3.4242,3.5137,3.5899,3.6286,3.7128,3.7702,3.7809,3.7929,3.7863,3.7555,3.7342,3.7008,3.6393,3.6473,3.6326,3.5925,3.5671,3.5578,3.5471,3.5297,3.5097,3.4949,3.5097,3.5097,3.4897,3.4603,3.4362,3.4148,3.3641,3.3467,3.3561,3.3454,3.3414,3.3414,3.3414,3.3414,3.3414,3.3414,3.3414,3.3414,3.3414,3.3414,3.3414,0.0,0.0,0.0,0.0,0.0,0.0,0.0,0.0,0.0,0.0,0.0,0.0,0.0,0.0,0.0,0.0,0.0,0.0,1.9374,1.9639,2.0054,2.0672,2.0712,2.1216,2.2345,2.2972,2.3719,2.4613,2.6067,2.652,2.5957,2.4756,2.4209,2.4142,2.2966,2.2732,2.3292,2.3292,2.3292,2.3345,2.3968,2.4035,0.0,0.0,0.0,0.0,0.0,0.0,0.0,0.0,2.5518,2.5625,2.6199,2.6386,2.6453,2.6734,2.7028,2.7362,2.7615,2.7696,2.7843,2.8457,2.8604,2.9152,3.1256,3.145,3.1824,3.3895,3.3614,3.308,3.3374,3.3187,3.328,3.4175,3.5297,3.6273,3.6805,3.7195,3.7489,3.7782,3.7555,3.7275,3.6912,3.6885,3.6687,3.6126,3.634,3.65,3.65,3.5952,3.5765,3.6059,3.5498,3.5204,3.5191,3.5191,3.5191,3.5191,3.4949,3.4815,3.4788,3.3828,3.3587,3.3868,3.3547,3.3414,3.3414,3.3414,3.3414,3.3414,3.3414,3.3414,3.3414,3.3414,3.3414,3.3414,0.0,0.0,0.0,0.0,0.0,0.0,0.0,0.0,0.0,0.0,0.0,0.0,0.0,0.0,0.0,0.0,0.0,0.0,1.9374,1.9639,1.9973,2.0317,2.0561,2.0967,2.1483,2.2665,2.4062,2.5558,2.5999,2.5812,2.5024,2.4639,2.4146,2.3559,2.3647,2.3541,2.3292,2.3292,2.3447,2.3661,2.387,2.4088,0.0,0.0,0.0,0.0,0.0,0.0,0.0,0.0,0.0,0.0,2.6065,2.636,2.6707,2.68,2.6881,2.6974,2.7054,2.7228,2.7576,2.8179,2.8794,2.97,3.1557,3.1904,3.2425,3.4509,3.4389,3.4015,3.4309,3.4122,3.4082,3.4549,3.5097,3.5658,3.6246,3.6754,3.7021,3.6901,3.6952,3.6941,3.6647,3.6433,3.634,3.638,3.6473,3.65,3.65,3.634,3.6099,3.5765,3.5591,3.5404,3.5204,3.5191,3.5191,3.5191,3.4949,3.4815,3.4788,3.4055,3.3801,3.3868,3.3547,3.3414,3.3414,3.3414,3.3414,3.3414,3.3414,3.3414,3.3414,3.3414,3.3414,3.3414,0.0,0.0,0.0,0.0,0.0,0.0,0.0,0.0,0.0,0.0,0.0,0.0,0.0,0.0,0.0,0.0,0.0,0.0,0.0,1.9629,1.9813,2.0184,2.0521,2.106,2.179,2.2913,2.4022,2.5128,2.5476,2.5195,2.4302,2.4492,2.4372,2.4035,2.4396,2.4356,2.4022,2.3865,2.3888,2.3991,2.4062,2.4396,2.481,0.0,0.0,0.0,0.0,0.0,0.0,0.0,0.0,0.0,2.6131,2.6373,2.668,2.6787,2.6787,2.6827,2.7108,2.7308,2.771,2.866,2.9383,3.0327,3.2211,3.308,3.3855,3.511,3.499,3.4723,3.4897,3.4603,3.4416,3.471,3.5097,3.5498,3.5845,3.6299,3.658,3.6513,3.654,3.654,3.6353,3.6179,3.6099,3.6153,3.638,3.6473,3.634,3.6326,3.6112,3.5645,3.5511,3.5378,3.5191,3.5191,3.5137,3.5017,3.4895,3.4748,3.4576,3.4095,3.3881,3.3868,3.3547,3.3414,3.3414,3.3414,3.3414,3.3414,3.3414,3.3414,3.3414,3.3414,3.3414,3.3414,0.0,0.0,0.0,0.0,0.0,0.0,0.0,0.0,0.0,0.0,0.0,0.0,0.0,0.0,0.0,0.0,0.0,0.0,0.0,0.0,1.9653,2.0184,2.0575,2.1448,2.2867,2.3415,2.371,2.3763,2.4593,2.4593,2.3817,2.4369,2.4796,2.5115,2.5141,2.5128,2.5024,2.469,2.4409,2.4195,2.4439,2.477,2.5037,2.5101,0.0,0.0,0.0,0.0,0.0,0.0,0.0,0.0,2.6279,2.6386,2.648,2.6707,2.6814,2.6987,2.7549,2.7762,2.8177,2.9633,3.0341,3.1183,3.312,3.4604,3.5658,3.5631,3.5458,3.5311,3.5284,3.4817,3.4471,3.4738,3.5205,3.5551,3.5631,3.5859,3.6126,3.6353,3.6179,3.6019,3.5992,3.6046,3.5899,3.5591,3.6126,3.6326,3.6086,3.6072,3.5939,3.5591,3.5378,3.5217,3.5191,3.5191,3.5057,3.4815,3.4815,3.4589,3.4269,3.4002,3.3868,3.3828,3.3534,3.3414,3.3414,3.3414,3.3414,3.3414,3.3414,3.3414,3.3414,3.3414,3.3414,3.3414,0.0,0.0,0.0,0.0,0.0,0.0,0.0,0.0,0.0,0.0,0.0,0.0,0.0,0.0,0.0,0.0,0.0,0.0,0.0,0.0,1.9867,2.0184,2.0962,2.1863,2.288,2.2766,2.2939,2.342,2.3848,2.3991,2.3817,2.4369,2.4796,2.5128,2.5317,2.5157,2.4703,2.4182,2.3928,2.3924,2.4182,2.4476,2.4756,2.4997,0.0,0.0,0.0,0.0,0.0,0.0,0.0,0.0,2.6145,2.636,2.6694,2.6533,2.6814,2.7296,2.7602,2.8217,2.9001,3.0287,3.1877,3.336,3.4269,3.5257,3.5912,3.5672,3.5952,3.6153,3.5925,3.5591,3.5311,3.5378,3.5351,3.5364,3.5591,3.5685,3.5658,3.5498,3.5618,3.5631,3.5404,3.5391,3.5458,3.5565,3.5752,3.5899,3.6059,3.6072,3.5939,3.5591,3.5511,3.5431,3.5204,3.5191,3.5057,3.4815,3.4815,3.4482,3.3975,3.3921,3.3748,3.3507,3.344,3.3414,3.3414,3.3414,3.3414,3.3414,3.3414,3.3414,3.3414,3.3414,3.3414,3.3414,0.0,0.0,0.0,0.0,0.0,0.0,0.0,0.0,0.0,0.0,0.0,0.0,0.0,0.0,0.0,0.0,0.0,0.0,0.0,0.0,2.012,2.0828,2.1475,2.2144,2.288,2.2746,2.2779,2.31,2.3295,2.3407,2.3567,2.4155,2.4743,2.5304,2.5598,2.5398,2.4823,2.4529,2.4315,2.4209,2.4502,2.4796,2.5039,2.5224,0.0,0.0,0.0,0.0,0.0,0.0,0.0,0.0,0.0,0.0,2.6613,2.66,2.6814,2.7175,2.7804,2.8564,2.9673,3.141,3.2973,3.4215,3.4708,3.5498,3.5992,3.5698,3.5979,3.6206,3.5912,3.5618,3.5418,3.5418,3.5297,3.5244,3.5404,3.5418,3.5418,3.5404,3.5418,3.5418,3.5404,3.5284,3.5257,3.5404,3.5551,3.5631,3.5658,3.5792,3.5725,3.5431,3.5418,3.5284,3.499,3.499,3.4776,3.44,3.44,3.4108,3.3654,3.3654,3.3574,3.3414,3.3414,3.3414,3.3414,3.3414,3.3414,3.3414,3.3414,3.3414,3.3414,3.3414,3.3414,3.3414,0.0,0.0,0.0,0.0,0.0,0.0,0.0,0.0,0.0,0.0,0.0,0.0,0.0,0.0,0.0,0.0,0.0,0.0,0.0,0.0,0.0,2.1609,2.189,2.2285,2.296,2.292,2.292,2.2974,2.292,2.3073,2.3452,2.4022,2.477,2.5665,2.585,2.5623,2.5077,2.5007,2.4756,2.4479,2.4863,2.5144,2.5371,2.5424,2.5104,2.4666,2.5251,2.5438,2.5531,2.6119,0.0,0.0,0.0,0.0,2.644,2.668,2.6814,2.7068,2.7898,2.8955,3.0327,3.2572,3.3734,3.4416,3.4763,3.5444,3.5912,3.5618,3.5872,3.6046,3.5698,3.5431,3.5257,3.5204,3.5191,3.5191,3.5191,3.5191,3.5284,3.5525,3.5351,3.5284,3.5538,3.5338,3.5191,3.5191,3.5418,3.5444,3.5204,3.5418,3.5444,3.5204,3.5191,3.5057,3.4815,3.4815,3.4521,3.3881,3.3828,3.3668,3.3414,3.3414,3.3414,3.3414,3.3414,3.3414,3.3414,3.3414,3.3414,3.3414,3.3414,3.3414,3.3414,3.3414,3.3414,3.3414,0.0,0.0,0.0,0.0,0.0,0.0,0.0,0.0,0.0,0.0,1.9093,0.0,0.0,0.0,0.0,0.0,0.0,0.0,0.0,0.0,0.0,2.1917,2.1964,2.2392,2.3247,2.3041,2.2993,2.326,2.2993,2.3322,2.4088,2.4386,2.5184,2.6253,2.5785,2.5384,2.5088,2.4529,2.4155,2.3928,2.4476,2.4679,2.4746,2.5037,2.493,2.4639,2.501,2.5144,2.5262,2.585,2.6051,0.0,0.0,0.0,2.64,2.644,2.6814,2.7322,2.7655,2.9339,3.1436,3.3307,3.4042,3.4469,3.5017,3.5431,3.5605,3.5311,3.5885,3.6273,3.5671,3.5591,3.5485,3.5231,3.5191,3.5191,3.5191,3.5191,3.5204,3.5244,3.5217,3.5204,3.5244,3.5217,3.5191,3.5191,3.5231,3.5231,3.5204,3.5231,3.5231,3.5191,3.5191,3.5057,3.4815,3.4815,3.4521,3.3881,3.3601,3.3454,3.3414,3.3414,3.3414,3.3414,3.3414,3.3414,3.3414,3.3414,3.3414,3.3414,3.3414,3.3414,3.3414,3.3414,3.3414,3.3414,0.0,0.0,0.0,0.0,0.0,0.0,0.0,0.0,0.0,0.0,0.0,1.9575,0.0,0.0,0.0,1.9415,1.9401,1.9589,0.0,0.0,0.0,2.1743,2.193,2.2164,2.2565,2.2605,2.2686,2.2785,2.2512,2.3201,2.469,2.4613,2.517,2.6158,2.5531,2.5197,2.5088,2.4623,2.4369,2.4289,2.4716,2.489,2.4903,2.5037,2.489,2.4639,2.497,2.5115,2.5208,2.5797,2.5891,2.5785,2.6239,0.0,0.0,0.0,2.668,2.7295,2.8591,2.994,3.145,3.34,3.3988,3.4269,3.503,3.5418,3.5551,3.5257,3.5631,3.5885,3.5458,3.5391,3.5351,3.5217,3.5191,3.5191,3.5191,3.5191,3.5191,3.5191,3.5191,3.5191,3.5191,3.5191,3.5191,3.5191,3.5191,3.5191,3.5191,3.5191,3.5124,3.4963,3.495,3.4788,3.4282,3.4269,3.4055,3.3614,3.348,3.3414,3.3414,3.3414,3.3414,3.3414,3.3414,3.3414,3.3414,3.3414,3.3414,3.3414,3.3414,3.3414,3.3414,3.3414,3.3414,3.3414,0.0,0.0,0.0,0.0,0.0,0.0,0.0,0.0,0.0,0.0,0.0,0.0,0.0,0.0,0.0,0.0,1.9401,1.9615,2.0064,0.0,0.0,2.1435,2.1823,2.1991,2.1991,2.2271,2.2378,2.2311,2.2245,2.3153,2.497,2.4853,2.5371,2.6305,2.5758,2.5398,2.5184,2.4919,2.4773,2.4719,2.4917,2.497,2.497,2.497,2.4823,0.0,0.0,2.497,2.505,2.5596,2.5638,2.5598,2.6119,2.6172,0.0,0.0,0.0,2.7134,2.9058,2.99,3.0755,3.2893,3.3494,3.3814,3.4857,3.5257,3.5364,3.5231,3.5364,3.5471,3.5338,3.5244,3.5191,3.5191,3.5191,3.5191,3.5191,3.5191,3.5191,3.5191,3.5191,3.5191,3.5191,3.5191,3.5191,3.5191,3.5191,3.5191,3.5191,3.5124,3.499,3.4829,3.4748,3.4402,3.3895,3.3801,3.3641,3.3414,3.3414,3.3414,3.3414,3.3414,3.3414,3.3414,3.3414,3.3414,3.3414,3.3414,3.3414,3.3414,3.3414,3.3414,3.3414,3.3414,3.3414,3.3414,0.0,0.0,0.0,0.0,0.0,0.0,0.0,0.0,0.0,0.0,0.0,0.0,0.0,0.0,1.9679,1.9428,1.9401,1.9522,1.98,2.0378,2.0802,2.1122,2.1683,0.0,2.1991,2.2271,2.2285,2.2004,2.2586,2.3447,2.4639,2.5173,2.6092,2.7229,2.6867,2.6266,2.5491,2.5478,2.5304,2.5037,2.477,2.4626,2.4626,2.4626,2.4613,2.4599,2.4613,2.4626,2.4666,2.5024,2.5291,2.5571,2.5917,2.6011,2.6051,0.0,0.0,0.0,2.8257,2.8698,2.9285,3.161,3.2412,3.3049,3.4507,3.4842,3.4936,3.5137,3.5204,3.5297,3.5551,3.5378,3.5191,3.5191,3.5191,3.5191,3.5191,3.5191,3.5191,3.5191,3.5191,3.5191,3.5191,3.5191,3.5191,3.5191,3.5191,3.5191,3.5191,3.4937,3.4829,3.4815,3.4496,3.4202,3.3895,3.3587,3.3427,3.3414,3.3414,3.3414,3.3414,3.3414,3.3414,3.3414,3.3414,3.3414,3.3414,3.3414,3.3414,3.3414,3.3414,3.3414,3.3414,3.3414,3.3414,3.3414,0.0,0.0,0.0,0.0,0.0,0.0,0.0,0.0,0.0,0.0,0.0,0.0,0.0,1.993,1.988,1.9441,1.9562,1.9853,2.0365,2.0592,2.0802,2.1096,2.167,2.193,2.1743,2.2024,2.2178,2.2258,2.2131,2.2947,2.4613,2.505,2.5758,2.6734,2.6439,2.6092,2.5758,2.5197,2.4853,2.4783,2.4639,2.4599,2.4599,2.4599,2.4599,2.4599,2.4599,2.4599,2.4639,2.4983,2.5024,2.4999,2.5518,2.5678,2.5772,2.6253,2.6653,2.7148,2.7829,2.8444,2.9175,3.0635,3.1623,3.2492,3.3464,3.4267,3.4842,3.4897,3.507,3.5231,3.5338,3.5271,3.5324,3.5698,3.5444,3.5257,3.5444,3.5311,3.5191,3.5191,3.5191,3.5191,3.5191,3.503,3.4923,3.4923,3.4736,3.4629,3.4629,3.4536,3.4389,3.4215,3.4095,3.3895,3.3587,3.3467,3.3414,3.3414,3.3414,3.3414,3.3414,3.3414,3.3414,3.3414,3.3414,3.3414,3.3414,3.3414,3.3414,3.3414,3.3414,3.3414,3.3414,3.3414,3.3414,3.3414,0.0,0.0,0.0,0.0,0.0,0.0,0.0,0.0,0.0,0.0,0.0,0.0,0.0,0.0,2.0187,1.9693,1.9826,2.0107,2.0508,2.0646,2.0802,2.1096,2.167,2.193,2.1729,2.1917,2.2084,2.2271,2.1991,2.2699,2.4356,2.485,2.5583,2.6373,2.5985,2.5972,2.6252,2.5611,2.5213,2.5064,2.4863,2.4783,2.4796,2.4853,2.4893,2.4906,2.5037,2.501,2.4919,2.5157,2.509,2.4973,2.5504,2.5665,2.5718,2.6012,2.644,2.6948,2.7295,2.7801,2.8631,3.0052,3.0715,3.1463,3.2946,3.3718,3.4213,3.4708,3.4923,3.511,3.5311,3.5338,3.5471,3.5859,3.5591,3.5404,3.5551,3.5297,3.5084,3.5191,3.511,3.5057,3.5057,3.487,3.4775,3.4629,3.4429,3.4322,3.4322,3.4229,3.4042,3.3734,3.3721,3.3627,3.3414,3.3414,3.3414,3.3414,3.3414,3.3414,3.3414,3.3414,3.3414,3.3414,3.3414,3.3414,3.3414,3.3414,3.3414,3.3414,3.3414,3.3414,3.3414,3.3414,3.3414,3.3414,0.0,0.0,0.0,0.0,0.0,0.0,0.0,0.0,0.0,0.0,0.0,0.0,0.0,0.0,0.0,2.0277,2.025,2.025,2.025,2.0548,2.0842,2.1122,2.1697,2.2004,2.2004,2.2004,2.2004,2.205,2.2285,2.2873,2.3817,2.4686,2.5518,2.6306,2.5772,2.5985,2.6734,2.672,2.6453,2.5944,2.5355,2.5128,2.5144,2.5411,2.5518,2.5571,2.5891,2.581,2.5545,2.5545,2.5545,2.5585,2.5904,2.5998,2.5944,2.5611,2.5745,2.6145,0.0,0.0,0.0,2.9731,2.9633,2.9815,3.3026,3.3143,3.2969,3.4441,3.4762,3.491,3.5498,3.5565,3.5578,3.5578,3.5578,3.5578,3.5591,3.5137,3.4936,3.5164,3.495,3.4829,3.4815,3.4802,3.4629,3.4336,3.4295,3.4295,3.4295,3.4028,3.3734,3.3427,3.3414,3.3414,3.3414,3.3414,3.3414,3.3414,3.3414,3.3414,3.3414,3.3414,3.3414,3.3414,3.3414,3.3414,3.3414,3.3414,3.3414,3.3414,3.3414,3.3414,3.3414,3.3414,3.3414,3.3414,0.0,0.0,0.0,0.0,0.0,0.0,2.0989,0.0,0.0,0.0,0.0,0.0,2.0726,0.0,2.1122,2.147,2.1496,2.1496,2.1496,2.1577,2.1657,2.1737,2.2098,2.2298,2.2298,2.2298,2.2405,2.2653,2.2485,2.2766,2.346,2.4128,2.469,2.5106,2.5625,2.5732,2.5545,2.5293,2.5518,2.5944,2.5355,2.5464,2.5985,2.5638,2.5772,2.6132,2.6038,2.6078,2.6146,2.6146,2.6146,2.6119,2.6038,2.5998,2.5984,2.5891,2.6186,2.6573,2.652,0.0,0.0,0.0,0.0,0.0,3.0082,3.0849,3.1684,3.2942,3.3507,3.4055,3.4857,3.5351,3.5578,3.5578,3.5578,3.5698,3.5925,3.5444,3.511,3.5191,3.5124,3.499,3.4842,3.4563,3.4322,3.4028,3.3788,3.3668,3.3668,3.3587,3.3507,3.3414,3.3414,3.3414,3.3414,3.3414,3.3414,3.3414,3.3414,3.3414,3.3414,3.3414,3.3414,3.3414,3.3414,3.3414,3.3414,3.3414,3.3414,3.3414,3.3414,3.3414,3.3414,3.3414,3.3414,3.3414,0.0,0.0,0.0,0.0,0.0,2.1336,2.1456,2.1336,0.0,0.0,0.0,0.0,2.1403,0.0,0.0,2.2164,2.2164,2.2111,2.2024,2.1991,2.2044,2.2164,2.2325,2.2472,2.2605,2.2485,2.2565,2.2893,2.2565,2.2659,2.314,2.3741,2.4182,2.4476,2.4997,2.5275,2.5224,2.469,2.489,2.5636,2.565,2.5932,2.6373,2.6279,2.6453,2.6787,2.6747,2.676,2.68,2.68,2.68,2.668,2.6024,2.6026,2.6266,2.6065,2.6279,2.66,2.644,2.6734,2.7161,2.7482,0.0,0.0,2.9513,2.9927,3.0461,3.1938,3.2559,3.3146,3.4042,3.4683,3.5164,3.5404,3.5351,3.5351,3.5832,3.5378,3.5057,3.5177,3.4977,3.4763,3.4589,3.4309,3.4015,3.3708,3.3521,3.3414,3.3414,3.3414,3.3414,3.3414,3.3414,3.3414,3.3414,3.3414,3.3414,3.3414,3.3414,3.3414,3.3414,3.3414,3.3414,3.3414,3.3414,3.3414,3.3414,3.3414,3.3414,3.3414,3.3414,3.3414,3.3414,3.3414,3.3414,3.3414,0.0,0.0,2.1243,2.1542,2.1636,2.177,2.2024,2.2091,2.2084,0.0,0.0,2.2285,2.2672,0.0,0.0,0.0,2.2605,2.2445,2.2151,2.2131,2.2205,2.2458,2.2472,2.2592,2.2893,2.2632,2.2632,2.2893,2.2632,2.2659,2.296,2.3509,2.3861,2.4102,2.4142,2.4569,2.5224,2.4583,2.4596,2.5157,2.5999,2.6413,2.6587,2.7122,2.7349,2.7429,2.7615,2.7549,2.7403,2.7403,2.7389,2.7162,2.6012,2.6213,2.676,2.6212,2.6279,2.6493,2.6493,2.668,0.0,2.819,2.7883,0.0,2.9927,2.9646,2.9362,3.1036,3.1637,3.2131,3.3013,3.3668,3.4229,3.4723,3.4696,3.4778,3.5431,3.5084,3.4803,3.507,3.4643,3.4309,3.4282,3.4042,3.3761,3.344,3.3414,3.3414,3.3414,3.3414,3.3414,3.3414,3.3414,3.34,3.336,3.336,3.336,3.336,3.336,3.3374,3.3414,3.3414,3.3414,3.3414,3.3414,3.3414,3.3414,3.3414,3.3414,3.3414,3.3414,3.3414,3.3414,3.3414,3.3414,3.3414,0.0,2.1328,2.1515,2.1569,2.197,2.2271,2.2325,2.2539,2.2719,2.2719,2.2913,2.3447,2.4449,2.4249,0.0,0.0,2.3781,2.338,2.3086,2.2832,2.2746,2.2813,2.2813,2.284,2.2893,2.3046,2.306,2.2893,2.306,2.3145,2.3233,2.3354,2.3447,2.3479,2.3754,2.3821,2.3772,2.4583,2.497,2.5168,2.5824,2.664,2.7428,2.7349,2.7603,2.7991,2.7762,2.7857,2.8018,2.8018,2.7857,2.7495,2.6787,2.6854,2.7108,2.6519,2.672,2.7135,2.7135,2.7175,2.7282,2.751,2.7575,0.0,2.7938,2.8192,2.8593,2.9379,2.9922,3.0608,3.149,3.2131,3.2492,3.2372,3.3093,3.4042,3.5124,3.4776,3.4429,3.4482,3.4389,3.4229,3.4002,3.3921,3.3761,3.344,3.3414,3.3414,3.3414,3.3414,3.3414,3.3414,3.3414,3.3293,3.3066,3.3066,3.3066,3.3066,3.3066,3.3187,3.3414,3.3414,3.3414,3.3414,3.3414,3.3414,3.3414,3.3414,3.3414,3.3414,3.3414,3.3414,3.3414,3.3414,3.3414,3.3414,2.1368,2.1596,2.189,2.2184,2.2479,2.2739,2.3046,2.3255,2.3402,2.3549,2.4048,2.4492,2.4823,2.4863,2.4743,0.0,0.0,0.0,0.0,2.318,2.302,2.2907,2.2893,2.2974,2.3086,2.31,2.31,2.31,2.31,2.31,2.31,2.326,2.3292,2.3305,2.3634,2.3768,2.3808,2.4396,2.489,2.5371,2.6292,2.7001,2.7495,2.7684,2.7924,2.8179,2.815,2.8337,2.8524,2.8112,2.803,2.8016,2.7281,2.7455,2.7789,2.7081,2.7282,2.7617,2.7028,2.7188,2.7482,2.7482,2.7589,0.0,0.0,2.775,2.7911,2.847,2.8831,2.9299,3.0194,3.0715,3.1102,3.1396,3.2064,3.2799,3.3547,3.4042,3.4322,3.4322,3.4189,3.4042,3.3895,3.3748,3.3587,3.3427,3.3414,3.3414,3.3414,3.3414,3.3414,3.3414,3.3414,3.3267,3.2986,3.2973,3.2973,3.2973,3.2973,3.3133,3.3414,3.3414,3.3414,3.3414,3.3414,3.3414,3.3414,3.3414,3.3414,3.3414,3.3414,3.3414,3.3414,3.3414,3.3414,3.3414,2.1596,2.1863,2.2218,2.2733,2.296,2.3255,2.3803,2.3937,2.4062,2.4409,2.517,2.5518,2.5066,2.54,2.5424,2.477,0.0,0.0,2.3652,2.3412,2.322,2.3,2.2934,2.3041,2.3278,2.314,2.3161,2.3292,2.3161,2.3041,2.2987,2.3207,2.3319,2.342,2.3661,2.3968,2.4289,2.4289,2.4823,2.5772,2.6774,2.7175,2.7296,2.7938,2.8179,2.8232,2.8564,2.8801,2.8881,2.8136,2.8203,2.8457,2.7657,2.7923,2.8444,2.7643,2.7804,2.8072,2.7068,2.7375,2.7936,2.7816,2.7869,2.7949,0.0,0.0,0.0,2.7938,2.8098,2.8406,2.9142,2.9419,2.978,3.0434,3.0942,3.133,3.157,3.2772,3.3708,3.3868,3.3734,3.3627,3.3627,3.3293,3.3173,3.3387,3.3253,3.3227,3.34,3.3414,3.3414,3.3414,3.336,3.3187,3.2955,3.2839,3.2812,3.2812,3.2866,3.3053,3.3334,3.3387,3.3414,3.3414,3.3414,3.3414,3.3414,3.3414,3.3414,3.3414,3.3414,3.3414,3.3414,3.3414,3.3414,3.3414,2.1636,2.2024,2.2392,2.2458,2.3126,2.3817,2.4102,2.4369,2.4693,2.5291,2.5905,2.636,2.6507,2.64,2.6346,2.6507,2.5293,2.4639,2.4863,2.3901,2.3278,2.3273,2.3041,2.3041,2.3278,2.3554,2.3554,2.3292,2.3554,2.3527,2.3273,2.3278,2.3474,2.3728,2.379,2.4075,2.4546,2.4546,2.5251,2.6319,2.672,2.6867,2.6961,2.7857,2.8179,2.8259,2.8791,2.8961,2.8948,2.8631,2.8551,2.8497,2.7856,2.8096,2.8484,2.7843,2.8083,2.8524,2.839,2.8617,2.8764,2.8272,2.8497,2.8508,2.7268,0.0,2.7951,2.7496,0.0,2.8219,2.8312,0.0,0.0,2.8123,2.9018,2.974,2.978,3.0595,3.1476,3.2265,3.2607,3.2741,3.2741,3.2246,3.2291,3.3334,3.2692,3.2585,3.3374,3.3414,3.3414,3.3414,3.316,3.2942,3.2648,3.2332,3.2198,3.2211,3.2514,3.2795,3.304,3.3293,3.3414,3.3414,3.3414,3.3414,3.3414,3.3414,3.3414,3.3414,3.3414,3.3414,3.3414,3.3414,3.3414,3.3414,2.2044,2.2392,2.2739,2.2913,2.3407,2.3928,2.4382,2.4813,2.5291,2.5718,2.6024,2.6319,2.6734,2.656,2.644,2.656,2.6012,2.5491,2.5104,2.4623,0.0,2.3848,2.3589,2.3607,2.4039,2.3714,2.3541,2.3581,2.3388,2.3215,2.306,2.306,2.3348,2.3817,2.3941,2.4436,2.5119,2.5331,2.5785,2.6413,2.6707,2.6787,2.6934,2.8003,2.866,2.8981,2.8975,2.9215,2.9428,2.8975,2.8815,2.8775,2.8508,2.8537,2.8551,2.8297,2.8404,2.8497,2.7963,2.8417,2.8815,2.8083,2.8337,2.8484,2.7348,2.7403,2.755,2.7094,0.0,0.0,0.0,0.0,0.0,0.0,2.8671,2.9219,2.9219,2.9686,3.0421,3.1463,3.1557,3.1644,3.177,3.1557,3.161,3.2104,3.1957,3.2011,3.2385,3.2768,3.2955,3.2955,3.2835,3.2634,3.2291,3.2171,3.2185,3.2407,3.2541,3.2835,3.324,3.336,3.3414,3.3414,3.3414,3.3414,3.3414,3.3414,3.3414,3.3414,3.3414,3.3414,3.3414,3.3414,3.3414,3.3414,2.2571,2.2766,2.2987,2.3238,2.3581,2.3968,2.4506,2.5093,2.5585,2.5837,2.6078,2.6386,2.6894,2.6974,2.7001,2.7001,2.6961,2.66,2.5838,2.5543,2.509,2.4583,2.4209,2.4209,2.4586,2.3905,2.3674,2.3924,2.3402,2.3148,2.3148,2.3148,2.3429,2.3937,2.4275,2.489,2.5651,2.5984,2.6372,2.676,2.6894,2.7094,2.7402,2.827,2.8978,2.9459,2.9325,2.9606,2.9967,2.9415,2.9242,2.9242,2.9242,2.9041,2.8831,2.8751,2.8791,2.8671,2.7856,2.8377,2.8925,2.7936,2.8096,2.823,2.7282,2.7389,2.7522,2.7134,2.7388,0.0,0.0,0.0,2.7791,2.8125,0.0,2.8791,2.8791,2.8911,2.9432,3.0608,3.0702,3.0822,3.1196,3.0929,3.0875,3.1196,3.1129,3.1209,3.153,3.2072,3.2393,3.2474,3.2474,3.2367,3.2104,3.2024,3.2091,3.2353,3.2514,3.2808,3.3187,3.3334,3.3414,3.3414,3.3414,3.3414,3.3414,3.3414,3.3414,3.3414,3.3414,3.3414,3.3414,3.3414,3.3414,3.3414,2.3233,2.306,2.2987,2.3238,2.3581,2.3968,2.4506,2.5093,2.5518,2.5531,2.6266,2.6907,2.7255,2.8016,2.8537,2.8537,2.8299,2.7991,2.7642,2.66,2.5824,2.5478,2.4879,2.4586,2.4599,2.4329,2.4182,2.4195,2.3924,2.3777,2.3777,2.3777,2.3937,2.4209,2.4796,2.5422,2.5998,2.6253,2.6867,2.7629,2.7403,2.7776,2.8551,2.8591,2.8978,2.9526,2.9793,3.0087,3.0346,2.9993,2.9887,2.9887,2.9887,2.9686,2.9406,2.9068,2.9232,2.9325,2.8724,2.9005,2.9179,2.7989,2.7978,2.7898,2.668,2.7535,2.839,2.7789,2.8818,2.9646,2.9041,2.8708,0.0,0.0,2.8205,0.0,0.0,2.7978,2.8203,2.9392,3.0079,3.0595,3.1169,3.0207,3.0007,3.1142,3.0194,3.0047,3.1183,3.153,3.1872,3.2104,3.2118,3.2118,3.2104,3.1824,3.1738,3.1751,3.2326,3.2607,3.2648,3.316,3.3414,3.3414,3.3414,3.3414,3.3414,3.3414,3.3414,3.3414,3.3414,3.3414,3.3414,3.3414,3.3414,3.3414,2.326,2.3407,2.3434,2.3305,2.3372,2.3674,2.4262,2.4639,2.532,2.652,2.6934,2.7724,2.9195,2.9624,2.9766,2.9766,2.9717,2.9276,2.8364,2.7777,2.7229,2.6694,2.6106,2.5798,2.5798,2.5317,2.497,2.4783,2.4302,2.4155,2.4342,2.3991,2.4165,2.4796,2.5184,2.5798,2.656,2.7041,2.7428,2.7696,2.7589,2.7976,2.8591,2.8419,2.8671,2.9161,2.9255,2.9526,2.9864,3.0114,2.9953,2.97,3.0087,2.9873,2.9459,2.9366,2.9539,2.9686,2.9299,2.9753,3.002,2.8644,2.8524,2.8377,2.6987,2.7682,2.8377,2.7617,2.8591,2.9446,2.8858,2.8671,0.0,0.0,0.0,2.8353,0.0,2.7428,2.7415,2.8203,2.8831,2.9272,2.9472,2.9312,2.9272,2.9472,2.9299,2.9322,2.9708,3.0434,3.0895,3.0988,3.1316,3.1517,3.1517,3.1623,3.177,3.1957,3.2158,3.2407,3.2607,3.2795,3.2995,3.3133,3.3133,3.324,3.3414,3.3414,3.3414,3.3414,3.3414,3.3414,3.3414,3.3414,3.3414,3.3414,2.3585,2.3794,2.3861,2.3674,2.3692,2.3852,2.4168,2.4796,2.5745,2.7135,2.7764,2.8687,3.0239,3.0681,3.0828,3.0675,3.0862,3.0434,2.9152,2.9022,2.862,2.7817,2.7322,2.6961,2.6854,2.6172,2.5678,2.5422,2.4903,2.477,2.4893,2.4462,2.4579,2.5141,2.5491,2.6039,2.672,2.7522,2.7898,2.7898,2.7898,2.8163,2.8591,2.8433,2.8684,2.9205,2.9205,2.9459,2.9891,3.0279,3.0159,2.9873,3.0413,3.0226,2.9838,2.9838,2.9993,3.014,2.974,3.0127,3.0368,2.9205,2.9058,2.8855,2.7722,2.8377,2.9032,2.835,2.9138,2.986,2.9593,2.9205,0.0,0.0,0.0,0.0,0.0,2.7001,2.692,2.7335,2.7923,2.8404,2.8724,2.8738,2.8644,2.8457,2.8417,2.8497,2.8711,2.9366,2.9972,3.0386,3.0822,3.1169,3.1383,3.157,3.1805,3.1944,3.2051,3.2198,3.2433,3.2541,3.2755,3.2973,3.2973,3.3146,3.3414,3.3414,3.3414,3.3414,3.3414,3.3414,3.3414,3.3414,3.3414,3.3414,2.4262,2.4209,2.4222,2.4209,2.4386,2.4466,2.4249,2.5451,2.6613,2.7296,2.8644,2.9851,3.0467,3.1296,3.1637,3.1343,3.1824,3.1543,3.0114,3.0261,2.9945,2.8791,2.846,2.8138,2.7789,2.6947,2.6346,2.6078,2.5718,2.5558,2.5545,2.5237,2.509,2.5141,2.577,2.6185,2.6466,2.7684,2.8179,2.8179,2.8179,2.8379,2.8631,2.8617,2.8978,2.9499,2.9486,2.9891,3.036,3.04,3.04,3.0453,3.0702,3.0608,3.044,3.0426,3.0595,3.0715,3.014,3.0194,3.0333,2.9744,2.9539,2.9379,2.8804,2.9566,3.0346,3.0007,3.0421,3.0902,3.1116,3.0247,2.9486,0.0,0.0,0.0,2.6573,2.6627,2.68,2.68,2.7295,2.7976,2.8841,2.847,2.8165,2.8125,2.7617,2.755,2.8085,2.8404,2.9098,3.0279,3.0595,3.1049,3.1671,3.1698,3.1711,3.1724,3.1944,3.2078,3.2091,3.2433,3.2728,3.2959,3.2973,3.3146,3.3414,3.3414,3.3414,3.3414,3.3414,3.3414,3.3414,3.3414,3.3414,3.3414,2.4262,2.4382,2.4412,2.4235,2.4088,2.4035,2.4182,2.5451,2.6841,2.8096,2.9726,3.1169,3.2198,3.2706,3.2839,3.2559,3.2666,3.2412,3.1597,3.1209,3.0875,3.0568,2.9847,2.9325,2.9032,2.8377,2.7776,2.7255,2.652,2.6159,2.6146,2.5638,2.5291,2.5117,2.6146,2.652,2.6466,2.7684,2.8179,2.8179,2.8179,2.85,2.8868,2.8684,2.9112,2.978,2.9566,2.9579,2.9824,3.0266,3.04,3.0453,3.0702,3.0889,3.0969,3.0742,3.1049,3.1356,3.0996,3.1102,3.1243,3.0608,3.0346,3.0034,2.9673,3.0154,3.0595,3.0346,3.0935,3.1196,3.0394,3.0007,2.9513,2.8674,2.7736,2.7054,2.6747,2.64,2.6466,2.7068,2.6747,2.6881,2.7936,2.8138,2.7911,2.7215,2.7269,2.7282,2.7161,2.7898,2.8553,2.9045,3.0025,3.0694,3.1022,3.1497,3.1711,3.1711,3.1791,3.1784,3.1797,3.2078,3.2372,3.2714,3.2929,3.3146,3.3414,3.3414,3.3414,3.3414,3.3414,3.3414,3.3414,3.3414,3.3414,3.3414,2.4412,2.4623,2.4743,2.4449,2.4783,2.5117,2.5157,2.5972,2.7161,2.8778,3.0301,3.153,3.2318,3.3013,3.3347,3.3187,3.316,3.2866,3.2144,3.2038,3.1824,3.1436,3.0822,3.0408,3.0247,2.9299,2.8564,2.8096,2.7215,2.6707,2.656,2.5852,2.5424,2.5304,2.6092,2.6426,2.6466,2.7684,2.8259,2.8393,2.8393,2.8617,0.0,2.9005,2.9459,3.0087,2.9972,2.9918,2.9958,3.0293,3.0493,3.0627,3.0742,3.0996,3.1196,3.1036,3.1316,3.1684,3.1463,3.1543,3.1631,3.1263,3.1142,3.1049,3.0755,3.0942,3.1169,3.1129,3.1209,3.1156,3.0755,3.0154,2.9299,2.8018,2.7335,2.6881,2.6493,2.6266,2.6412,2.7001,2.6787,2.6827,2.7442,2.7349,2.7068,2.6667,2.6787,2.676,2.6453,2.7443,2.815,2.8591,2.9798,3.0614,3.0982,3.157,3.1845,3.1711,3.1711,3.1711,3.1724,3.1837,3.2193,3.2607,3.2768,3.3026,3.3414,3.3414,3.3414,3.3414,3.3414,3.3414,3.3414,3.3414,3.3414,3.3414,2.4719,2.497,2.509,2.4719,2.5905,2.6854,2.68,2.7108,2.7909,2.9499,3.0755,3.161,3.1864,3.2799,3.3414,3.3414,3.3414,3.3093,3.2318,3.2719,3.2701,3.1931,3.1583,3.1383,3.1343,2.9895,2.9032,2.8671,2.7722,2.7068,2.6694,2.5932,2.5531,2.5478,2.5877,2.6252,2.6627,2.7697,2.8326,2.8604,2.8604,2.8804,2.9081,2.9432,2.9931,3.0413,3.0453,3.0467,3.0467,3.0467,3.0608,3.0849,3.0849,3.1049,3.1289,3.1289,3.1463,3.1711,3.1711,3.1711,3.1724,3.1764,3.1917,3.2051,3.1885,3.1805,3.181,3.2104,3.149,3.1049,3.1577,3.0381,2.8925,2.759,2.7296,2.7001,2.6265,2.6306,2.656,2.6841,2.7068,0.0,2.7242,2.6586,2.6225,2.6319,2.6373,2.6266,2.6011,2.7068,2.7923,2.8524,2.9686,3.0595,3.1176,3.177,3.1931,3.173,3.1738,3.1738,3.173,3.1818,3.2126,3.2648,3.2688,3.2946,3.3414,3.3414,3.3414,3.3414,3.3414,3.3414,3.3414,3.3414,3.3414,3.3414,2.5064,2.5476,2.5677,2.5104,2.6213,2.763,2.8764,2.9606,3.0301,3.0849,3.2158,3.3053,3.3093,3.3293,3.3414,3.3414,3.3414,3.3347,3.3187,3.3053,3.3013,3.3106,3.2599,3.2246,3.1957,3.0755,2.9753,2.8921,2.7829,2.6907,2.6145,2.5984,2.5663,2.5184,2.5972,2.6747,2.7482,2.7682,2.8096,2.8604,2.8604,2.8925,2.9432,2.9726,3.006,3.044,3.0635,3.0715,3.0715,3.0715,3.0902,3.1156,3.1156,3.1356,3.1597,3.1597,3.1623,3.1711,3.1711,3.1711,3.173,3.1971,3.2064,3.2158,3.2393,3.2246,3.2104,3.246,3.2005,3.1476,3.133,2.9913,2.8511,2.7749,2.7215,2.6934,2.7068,2.6867,2.6854,2.7148,2.7014,2.6894,2.6894,2.6987,2.68,2.6118,2.6253,2.6266,2.6011,2.6881,2.7657,2.8245,2.9379,3.0394,3.1176,3.157,3.1837,3.2024,3.1831,3.1845,3.2038,3.2326,3.2634,3.2919,3.316,3.332,3.3414,3.3414,3.3414,3.3414,3.3414,3.3414,3.3414,3.3414,3.3414,3.3414,2.5596,2.5797,2.6091,2.6386,2.7402,2.8684,3.0167,3.1263,3.181,3.1503,3.2064,3.2505,3.2505,3.3053,3.3414,3.3414,3.3414,3.3414,3.3414,3.328,3.3267,3.34,3.3,3.2688,3.2393,3.1229,3.0221,2.9455,2.815,2.7121,2.64,2.5932,2.5491,2.5104,2.5678,2.6507,2.7482,2.7629,2.8136,2.8815,2.9165,2.9553,3.0012,3.0261,3.0555,3.0822,3.0969,3.1116,3.1196,3.0902,3.0982,3.1176,3.1176,3.133,3.1463,3.1671,3.1711,3.1711,3.1711,3.1784,3.1931,3.2064,3.2332,3.2559,3.2594,3.2487,3.242,3.2567,3.2246,3.181,3.1503,3.0261,2.9192,2.8898,2.823,2.7802,2.7936,2.7696,2.7603,2.775,2.7362,2.7054,2.7054,2.7041,2.6667,2.5798,2.6132,2.6172,2.5569,2.6667,2.7429,2.7724,2.9138,3.0194,3.0768,3.1517,3.1971,3.2104,3.1957,3.2051,3.2332,3.2527,3.2755,3.2986,3.3133,3.3267,3.3414,3.3414,3.3414,3.3414,3.3414,3.3414,3.3414,3.3414,3.3414,3.3414,2.6346,2.6519,2.6907,2.7816,2.8885,2.9993,3.1142,3.2318,3.2826,3.2131,3.2038,3.2038,3.2038,3.2866,3.3414,3.3414,3.3414,3.3414,3.3414,3.3414,3.3414,3.3414,3.3187,3.2982,3.2688,3.1543,3.0635,2.9913,2.8551,2.7495,2.6707,2.6026,2.5545,2.5315,2.5638,2.6373,2.7416,2.7736,2.8404,2.9228,2.986,3.0247,3.0533,3.0849,3.1089,3.1236,3.1289,3.1476,3.1631,3.1062,3.1076,3.1316,3.1316,3.1316,3.137,3.1597,3.1764,3.1805,3.1805,3.1971,3.2211,3.2278,3.2585,3.2888,3.2728,3.2634,3.2607,3.2674,3.25,3.2158,3.1791,3.0915,3.0181,2.9873,2.9299,2.8845,2.8711,2.8537,2.8419,2.8299,2.7817,2.7389,2.7148,2.6814,2.6293,2.5478,2.5972,2.6038,2.5342,2.6519,2.7242,2.7309,2.8991,3.0087,3.0493,3.1557,3.2131,3.2198,3.2198,3.2358,3.2688,3.2688,3.2848,3.3066,3.3066,3.32,3.3414,3.3414,3.3414,3.3414,3.3414,3.3414,3.3414,3.3414,3.3414,3.3414,2.7428,2.819,2.8748,2.8855,3.0301,3.1463,3.161,3.2625,3.3347,3.3253,3.3253,3.3253,3.3253,3.3347,3.3414,3.3414,3.3414,3.3414,3.3414,3.3414,3.3414,3.3414,3.3387,3.324,3.2946,3.2099,3.1036,2.9913,2.8978,2.7802,2.6426,2.6346,2.6159,2.5931,2.6453,2.7054,2.7696,2.827,2.9032,2.9887,3.0474,3.0728,3.0808,3.1417,3.1436,3.1263,3.153,3.165,3.1623,3.1289,3.1383,3.1623,3.1623,3.1623,3.1684,3.1711,3.1851,3.2064,3.2064,3.2278,3.2621,3.2875,3.2795,3.2701,3.2929,3.2781,3.2674,3.2929,3.2919,3.2688,3.1872,3.1631,3.1076,2.974,2.9673,2.9606,2.9028,2.9205,2.9165,2.8631,2.8312,2.7684,2.6573,2.6252,2.5824,2.517,2.5703,2.5998,2.5917,2.6507,2.6987,2.7296,2.8991,3.0181,3.0742,3.165,3.2238,3.2554,3.2554,3.2701,3.2933,3.2933,3.3093,3.3374,3.3374,3.3387,3.3414,3.3414,3.3414,3.3414,3.3414,3.3414,3.3414,3.3414,3.3414,3.3414,2.8911,2.9179,2.9633,3.0702,3.1169,3.1704,3.2585,3.3106,3.3414,3.3414,3.3414,3.3414,3.3414,3.3414,3.3414,3.3414,3.3414,3.3414,3.3414,3.3414,3.3414,3.3414,3.3414,3.328,3.2986,3.2291,3.1436,3.0448,2.9379,2.8283,2.7161,2.664,2.6279,2.6024,2.656,2.7241,2.8045,2.8604,2.9472,3.0474,3.0889,3.1156,3.139,3.1631,3.1644,3.1503,3.1671,3.1711,3.1698,3.153,3.145,3.1396,3.1396,3.1396,3.1476,3.1824,3.2011,3.2144,3.2367,3.2634,3.2888,3.2946,3.3026,3.3053,3.2986,3.2942,3.2888,3.3009,3.312,3.3133,3.2786,3.2291,3.1851,3.1623,3.1236,3.0889,3.0648,3.0306,2.9838,2.9205,2.8083,2.7161,2.6694,2.6066,2.5732,2.5852,2.5758,2.5611,2.5476,2.6024,2.6479,2.6774,2.847,2.9673,3.0261,3.149,3.2345,3.2848,3.2848,3.2959,3.324,3.324,3.3307,3.3414,3.3414,3.3414,3.3414,3.3414,3.3414,3.3414,3.3414,3.3414,3.3414,3.3414,3.3414,3.3414,3.0167,3.0274,3.0702,3.2118,3.2091,3.2211,3.3253,3.3414,3.3414,3.3414,3.3414,3.3414,3.3414,3.3414,3.3414,3.3414,3.3414,3.3414,3.3414,3.3414,3.3414,3.3414,3.3414,3.332,3.3106,3.2532,3.1851,3.1049,2.9967,2.8925,2.7949,2.7148,2.6707,2.6667,2.7215,2.7869,2.862,2.9272,3.0087,3.0955,3.133,3.161,3.1845,3.1845,3.1898,3.1952,3.1778,3.1831,3.1965,3.1872,3.1717,3.1583,3.141,3.141,3.157,3.1984,3.2225,3.2412,3.2661,3.2929,3.3106,3.3106,3.32,3.3253,3.3133,3.304,3.3,3.3093,3.3267,3.3414,3.3414,3.2906,3.2545,3.2692,3.2393,3.1979,3.1583,3.1009,3.0327,2.9579,2.8056,2.6974,2.672,2.5985,2.5718,2.6226,2.5879,2.5598,2.5478,2.5904,2.6292,2.664,2.8364,2.9535,3.0167,3.1543,3.2478,3.2973,3.3066,3.3213,3.3414,3.3414,3.3414,3.3414,3.3414,3.3414,3.3414,3.3414,3.3414,3.3414,3.3414,3.3414,3.3414,3.3414,3.3414,3.3414,3.0989,3.1677,3.2265,3.2866,3.32,3.3387,3.3414,3.3414,3.3414,3.3414,3.3414,3.3414,3.3414,3.3414,3.3414,3.3414,3.3414,3.3414,3.3414,3.3414,3.3414,3.3414,3.3414,3.3414,3.3414,3.2888,3.23,3.1711,3.0814,2.9784,2.8577,2.7976,2.7843,2.8179,2.8751,2.9179,2.9526,3.0394,3.0942,3.1276,3.1864,3.2091,3.2104,3.2104,3.2278,3.25,3.1925,3.2086,3.2541,3.2198,3.2291,3.2474,3.1898,3.1864,3.2091,3.2104,3.2519,3.2973,3.2973,3.3187,3.3414,3.3414,3.32,3.3053,3.3347,3.3187,3.3066,3.3347,3.3414,3.3414,3.3414,3.34,3.3106,3.2251,3.2585,3.2559,3.1396,3.1223,3.0782,2.9619,2.8417,2.7348,2.648,2.5865,2.5638,2.5971,2.5998,2.6118,2.636,2.6373,2.6653,2.7282,2.8978,3.0181,3.0782,3.2005,3.2741,3.2986,3.3267,3.3414,3.3414,3.3414,3.3414,3.3414,3.3414,3.3414,3.3414,3.3414,3.3414,3.3414,3.3414,3.3414,3.3414,3.3414,3.3414,3.3414,3.2045,3.2438,3.2826,3.32,3.3347,3.3414,3.3414,3.3414,3.3414,3.3414,3.3414,3.3414,3.3414,3.3414,3.3414,3.3414,3.3414,3.3414,3.3414,3.3414,3.3414,3.3414,3.3414,3.3414,3.3414,3.2888,3.2407,3.1971,3.1089,3.0154,2.9205,2.9005,2.8965,2.9129,2.9673,3.01,3.0408,3.0889,3.1263,3.1543,3.173,3.181,3.1824,3.2024,3.2158,3.2251,3.2313,3.2433,3.2581,3.2487,3.2514,3.2567,3.238,3.238,3.25,3.2639,3.2826,3.3026,3.3213,3.3334,3.3414,3.3414,3.3347,3.3293,3.3387,3.3334,3.3293,3.3387,3.3414,3.3414,3.3414,3.3414,3.332,3.304,3.3146,3.2866,3.169,3.1183,3.0421,2.9045,2.8003,2.7175,2.6453,2.6226,2.6146,2.6239,2.6105,2.6038,2.6131,2.6466,2.6867,2.7296,2.8804,3.0087,3.1076,3.2112,3.2835,3.328,3.3374,3.3414,3.3414,3.3414,3.3414,3.3414,3.3414,3.3414,3.3414,3.3414,3.3414,3.3414,3.3414,3.3414,3.3414,3.3414,3.3414,3.3414,3.2634,3.2902,3.3066,3.336,3.3414,3.3414,3.3414,3.3414,3.3414,3.3414,3.3414,3.3414,3.3414,3.3414,3.3414,3.3414,3.3414,3.3414,3.3414,3.3414,3.3414,3.3414,3.3414,3.3414,3.3414,3.2946,3.2661,3.2425,3.1436,3.0621,2.998,2.9905,2.9873,2.9993,3.0474,3.0782,3.0969,3.1263,3.1503,3.1724,3.1784,3.1952,3.2072,3.2198,3.2398,3.2585,3.2607,3.2741,3.2902,3.2795,3.2835,3.2915,3.2915,3.2915,3.2929,3.2959,3.3053,3.3187,3.336,3.3414,3.3414,3.3414,3.3414,3.3414,3.3414,3.3414,3.3414,3.3414,3.3414,3.3414,3.3414,3.3414,3.3414,3.3414,3.332,3.2879,3.1872,3.1062,3.0127,2.8764,2.8045,2.7403,2.6814,2.7028,2.7121,2.6894,2.7175,2.7175,2.6841,2.7014,2.7388,2.7923,2.9366,3.0595,3.1543,3.2318,3.2946,3.3414,3.3414,3.3414,3.3414,3.3414,3.3414,3.3414,3.3414,3.3414,3.3414,3.3414,3.3414,3.3414,3.3414,3.3414,3.3414,3.3414,3.3414,3.3414,3.2866,3.2986,3.3093,3.336,3.3414,3.3414,3.3414,3.3414,3.3414,3.3414,3.3414,3.3414,3.3414,3.3414,3.3414,3.3414,3.3414,3.3414,3.3414,3.3414,3.3414,3.3414,3.3414,3.3414,3.3414,3.3133,3.2959,3.2919,3.1797,3.1116,3.0849,3.06,3.0627,3.0862,3.1129,3.1203,3.1276,3.1557,3.1724,3.1764,3.1998,3.2278,3.2594,3.2621,3.2955,3.332,3.2835,3.3009,3.3374,3.3106,3.3187,3.3414,3.3414,3.3414,3.336,3.3093,3.32,3.3414,3.3414,3.3414,3.3414,3.3414,3.3414,3.3414,3.3414,3.3414,3.3414,3.3414,3.3414,3.3414,3.3414,3.3414,3.34,3.3387,3.3133,3.2625,3.1751,3.0908,2.9931,2.8711,2.8393,2.8018,2.7456,2.8136,2.8404,2.7829,2.8804,2.9115,2.8312,2.803,2.8283,2.9068,3.0442,3.153,3.2158,3.2706,3.312,3.3414,3.3414,3.3414,3.3414,3.3414,3.3414,3.3414,3.3414,3.3414,3.3414,3.3414,3.3414,3.3414,3.3414,3.3414,3.3414,3.3414,3.3414,3.3414,3.2906,3.316,3.3334,3.34,3.3414,3.3414,3.3414,3.3414,3.3414,3.3414,3.3414,3.3414,3.3414,3.3414,3.3414,3.3414,3.3414,3.3414,3.3414,3.3414,3.3414,3.3414,3.3414,3.3414,3.3414,3.3133,3.2759,3.2305,3.181,3.153,3.1497,3.1156,3.1183,3.151,3.153,3.157,3.157,3.1684,3.1845,3.2011,3.2078,3.2278,3.2621,3.2835,3.2959,3.3093,3.3173,3.3293,3.34,3.3334,3.336,3.3414,3.3414,3.3414,3.34,3.3334,3.336,3.3414,3.3414,3.3414,3.3414,3.3414,3.3414,3.3414,3.3414,3.3414,3.3414,3.3414,3.3414,3.3414,3.3414,3.3414,3.3334,3.312,3.2888,3.2233,3.0908,3.0301,2.9579,2.8433,2.8591,2.8684,2.8323,2.8641,2.8828,2.8695,2.8778,2.8911,2.9195,2.974,3.006,3.0047,3.0808,3.1717,3.2759,3.2906,3.312,3.3414,3.3414,3.3414,3.3414,3.3414,3.3414,3.3414,3.3414,3.3414,3.3414,3.3414,3.3414,3.3414,3.3414,3.3414,3.3414,3.3414,3.3414,3.3414,3.2942,3.3106,3.3253,3.3387,3.3414,3.3414,3.3414,3.3414,3.3414,3.3414,3.3414,3.3414,3.3414,3.3414,3.3414,3.3414,3.3414,3.3414,3.3414,3.3414,3.3414,3.3414,3.3414,3.3414,3.3414,3.3253,3.2959,3.2505,3.226,3.2112,3.2112,3.177,3.1784,3.2112,3.2112,3.2112,3.2112,3.2112,3.2206,3.2318,3.2452,3.2599,3.2822,3.3066,3.3173,3.32,3.336,3.3414,3.3414,3.3414,3.3414,3.3414,3.3414,3.3414,3.3414,3.3414,3.3414,3.3414,3.3414,3.3414,3.3414,3.3414,3.3414,3.3414,3.3414,3.3414,3.3414,3.3414,3.3414,3.3414,3.3414,3.3414,3.328,3.2902,3.2474,3.1724,3.0341,2.978,2.9272,2.8631,2.8965,2.9285,2.9406,2.9793,2.9828,2.9428,2.9793,2.9967,2.9931,3.0835,3.1196,3.0768,3.1583,3.2332,3.2973,3.3106,3.3253,3.3414,3.3414,3.3414,3.3414,3.3414,3.3414,3.3414,3.3414,3.3414,3.3414,3.3414,3.3414,3.3414,3.3414,3.3414,3.3414,3.3414,3.3414,3.3414,3.2933,3.304,3.312,3.3374,3.3414,3.3414,3.3414,3.3414,3.3414,3.3414,3.3414,3.3414,3.3414,3.3414,3.3414,3.3414,3.3414,3.3414,3.3414,3.3414,3.3414,3.3414,3.3414,3.3414,3.3414,3.3414,3.3267,3.2973,3.2781,3.2634,3.2594,3.2291,3.2353,3.2594,3.2594,3.2594,3.2594,3.2594,3.2621,3.2688,3.2929,3.3,3.3066,3.332,3.3414,3.3414,3.3414,3.3414,3.3414,3.3414,3.3414,3.3414,3.3414,3.3414,3.3414,3.3414,3.3414,3.3414,3.3414,3.3414,3.3414,3.3414,3.3414,3.3414,3.3414,3.3414,3.3414,3.3414,3.3414,3.3414,3.3414,3.3414,3.3187,3.2567,3.2005,3.1169,2.9953,2.9348,2.9081,2.9121,2.9513,2.998,3.0614,3.1022,3.1022,3.0368,3.1156,3.143,3.0774,3.1677,3.2011,3.1503,3.2465,3.3,3.304,3.3293,3.3414,3.3414,3.3414,3.3414,3.3414,3.3414,3.3414,3.3414,3.3414,3.3414,3.3414,3.3414,3.3414,3.3414,3.3414,3.3414,3.3414,3.3414,3.3414,3.3414,3.3227,3.3347,3.336,3.34,3.3414,3.3414,3.3414,3.3414,3.3414,3.3414,3.3414,3.3414,3.3414,3.3414,3.3414,3.3414,3.3414,3.3414,3.3414,3.3414,3.3414,3.3414,3.3414,3.3414,3.3414,3.3414,3.3267,3.2973,3.2982,3.2835,3.2594,3.2541,3.2554,3.2594,3.2594,3.2594,3.2594,3.2594,3.2741,3.2969,3.2959,3.3133,3.3347,3.3387,3.3414,3.3414,3.3414,3.3414,3.3414,3.3414,3.3414,3.3414,3.3414,3.3414,3.3414,3.3414,3.3414,3.3414,3.3414,3.3414,3.3414,3.3414,3.3414,3.3414,3.3414,3.3414,3.3414,3.3414,3.3414,3.3414,3.3414,3.3414,3.3053,3.2032,3.1517,3.0795,2.9335,2.9312,2.9513,2.9753,3.0474,3.1183,3.177,3.169,3.1791,3.2152,3.1898,3.1872,3.2233,3.2661,3.2799,3.2706,3.2879,3.3093,3.3347,3.3387,3.3414,3.3414,3.3414,3.3414,3.3414,3.3414,3.3414,3.3414,3.3414,3.3414,3.3414,3.3414,3.3414,3.3414,3.3414,3.3414,3.3414,3.3414,3.3414,3.3414,3.2942,3.32,3.3414,3.3414,3.3414,3.3414,3.3414,3.3414,3.3414,3.3414,3.3414,3.3414,3.3414,3.3414,3.3414,3.3414,3.3414,3.3414,3.3414,3.3414,3.3414,3.3414,3.3414,3.3414,3.3414,3.3414,3.3347,3.3213,3.3053,3.2986,3.3013,3.2902,3.2915,3.3013,3.3013,3.3013,3.3013,3.3013,3.3093,3.3213,3.3213,3.3293,3.3414,3.3414,3.3414,3.3414,3.3414,3.3414,3.3414,3.3414,3.3414,3.3414,3.3414,3.3414,3.3414,3.3414,3.3414,3.3414,3.3414,3.3414,3.3414,3.3414,3.3414,3.3414,3.3414,3.3414,3.3414,3.3414,3.3414,3.3414,3.3414,3.3414,3.3133,3.2326,3.149,3.0702,2.9873,2.9593,2.9713,3.0314,3.1022,3.1757,3.2505,3.2353,3.23,3.2567,3.234,3.2313,3.2581,3.2875,3.3053,3.32,3.3213,3.328,3.3414,3.3414,3.3414,3.3414,3.3414,3.3414,3.3414,3.3414,3.3414,3.3414,3.3414,3.3414,3.3414,3.3414,3.3414,3.3414,3.3414,3.3414,3.3414,3.3414,3.3414,3.3414,3.2768,3.3106,3.3414,3.3414,3.3414,3.3414,3.3414,3.3414,3.3414,3.3414,3.3414,3.3414,3.3414,3.3414,3.3414,3.3414,3.3414,3.3414,3.3414,3.3414,3.3414,3.3414,3.3414,3.3414,3.3414,3.3414,3.3414,3.3414,3.3187,3.3187,3.3414,3.3187,3.32,3.3414,3.3414,3.3414,3.3414,3.3334,3.3347,3.34,3.3334,3.3347,3.3414,3.3414,3.3414,3.3414,3.3414,3.3414,3.3414,3.3414,3.3414,3.3414,3.3414,3.3414,3.3414,3.3414,3.3414,3.3414,3.3414,3.3414,3.3414,3.3414,3.3414,3.3414,3.3414,3.3414,3.3414,3.3414,3.3414,3.3414,3.3414,3.3414,3.3173,3.25,3.1631,3.0849,3.0467,3.0087,3.0194,3.0996,3.161,3.2313,3.3013,3.2929,3.2795,3.2795,3.2795,3.2795,3.2795,3.2959,3.3187,3.34,3.3414,3.3414,3.3414,3.3414,3.3414,3.3414,3.3414,3.3414,3.3414,3.3414,3.3414,3.3414,3.3414,3.3414,3.3414,3.3414,3.3414,3.3414,3.3414,3.3414,3.3414,3.3414,3.3414,3.3414,3.324,3.3387,3.3414,3.3414,3.3414,3.3414,3.3414,3.3414,3.3414,3.3414,3.3414,3.3414,3.3414,3.3414,3.3414,3.3414,3.3414,3.3414,3.3414,3.3414,3.3414,3.3414,3.3414,3.3414,3.3414,3.3414,3.3414,3.3414,3.3387,3.3387,3.3414,3.3387,3.3387,3.3414,3.3414,3.3414,3.3387,3.312,3.316,3.3387,3.312,3.3173,3.3414,3.3414,3.3414,3.3414,3.3414,3.3414,3.3414,3.3414,3.3414,3.3414,3.3414,3.3414,3.3414,3.3414,3.3414,3.3414,3.3414,3.3414,3.3414,3.3414,3.3414,3.3414,3.3414,3.3414,3.3414,3.3414,3.3414,3.3414,3.3414,3.3414,3.304,3.1965,3.1711,3.1363,3.052,3.0782,3.133,3.1931,3.2532,3.3013,3.3347,3.336,3.3347,3.3347,3.3347,3.3347,3.3347,3.3374,3.3387,3.3414,3.3414,3.3414,3.3414,3.3414,3.3414,3.3414,3.3414,3.3414,3.3414,3.3414,3.3414,3.3414,3.3414,3.3414,3.3414,3.3414,3.3414,3.3414,3.3414,3.3414,3.3414,3.3414,3.3414,3.3414,3.2875,3.316,3.3414,3.3414,3.3414,3.3414,3.3414,3.3414,3.3414,3.3414,3.3414,3.3414,3.3414,3.3414,3.3414,3.3414,3.3414,3.3414,3.3414,3.3414,3.3414,3.3414,3.3414,3.3414,3.3414,3.3414,3.3414,3.3414,3.3414,3.3414,3.3414,3.3414,3.332,3.3146,3.3334,3.3307,3.3146,3.3213,3.32,3.3146,3.3213,3.32,3.316,3.3347,3.3414,3.3414,3.3414,3.3414,3.3414,3.3414,3.3414,3.3414,3.3414,3.3414,3.3414,3.3414,3.3414,3.3414,3.3414,3.3414,3.3414,3.3414,3.3414,3.3467,3.3654,3.3547,3.3521,3.3895,3.3668,3.3467,3.3668,3.3547,3.3267,3.2826,3.2291,3.1891,3.1778,3.1744,3.1917,3.238,3.2893,3.3293,3.34,3.3414,3.3414,3.3414,3.3414,3.3414,3.3414,3.3414,3.3414,3.3414,3.3414,3.3414,3.3414,3.3414,3.3414,3.3414,3.3414,3.3414,3.3414,3.3414,3.3414,3.3414,3.3414,3.3414,3.3414,3.3414,3.3414,3.3414,3.3414,3.3414,3.3414,3.3414,3.3414,3.3414,3.2714,3.308,3.3414,3.3414,3.3414,3.3414,3.3414,3.3414,3.3414,3.3414,3.3414,3.3414,3.3414,3.3414,3.3414,3.3414,3.3414,3.3414,3.3414,3.3414,3.3414,3.3414,3.3414,3.3414,3.3414,3.3414,3.3414,3.3414,3.3414,3.3414,3.3414,3.3414,3.3307,3.312,3.3227,3.3213,3.3106,3.304,3.2986,3.2986,3.3093,3.308,3.3013,3.3293,3.3414,3.3414,3.3414,3.3414,3.3414,3.3414,3.3414,3.3414,3.3414,3.3414,3.3414,3.3414,3.348,3.3534,3.344,3.348,3.3534,3.344,3.3414,3.3467,3.3694,3.3641,3.3654,3.3961,3.3788,3.3601,3.3721,3.3561,3.3387,3.3293,3.2772,3.2452,3.2701,3.2505,3.2492,3.2835,3.3173,3.3414,3.3414,3.3414,3.3414,3.3414,3.3414,3.3414,3.3414,3.3414,3.3414,3.3414,3.3414,3.3414,3.3414,3.3414,3.3414,3.3414,3.3414,3.3414,3.3414,3.3414,3.3414,3.3414,3.3414,3.3414,3.3414,3.3414,3.3414,3.3414,3.3414,3.3414,3.3414,3.3414,3.3414,3.3414,3.2919,3.3213,3.3414,3.3414,3.3414,3.3414,3.3414,3.3414,3.3414,3.3414,3.3414,3.3414,3.3414,3.3414,3.3414,3.3414,3.3414,3.3414,3.3414,3.3414,3.3414,3.3414,3.3414,3.3414,3.3414,3.3414,3.3414,3.3414,3.3414,3.3414,3.3414,3.3414,3.3414,3.34,3.3106,3.3146,3.3347,3.2478,3.2438,3.2946,3.2714,3.2768,3.3013,3.3293,3.3414,3.3414,3.3414,3.3414,3.3414,3.3414,3.3414,3.3414,3.3414,3.3414,3.3414,3.3414,3.3641,3.3814,3.3494,3.3641,3.3801,3.3494,3.3414,3.3414,3.3414,3.3654,3.3801,3.348,3.3668,3.3788,3.348,3.3414,3.332,3.3026,3.2986,3.2986,3.2986,3.2986,3.3093,3.3374,3.3414,3.3414,3.3414,3.3414,3.3414,3.3414,3.3414,3.3414,3.3414,3.3414,3.3414,3.3414,3.3414,3.3414,3.3414,3.3414,3.3414,3.3414,3.3414,3.3414,3.3414,3.3414,3.3414,3.3414,3.3414,3.3414,3.3414,3.3414,3.3414,3.3414,3.3414,3.3414,3.3414,3.3414,3.3414,3.3414,3.2701,3.3066,3.3414,3.3414,3.3414,3.3414,3.3414,3.3414,3.3414,3.3414,3.3414,3.3414,3.3414,3.3414,3.3414,3.3414,3.3414,3.3414,3.3414,3.3414,3.3414,3.3414,3.3414,3.3414,3.3414,3.3414,3.3414,3.3414,3.3414,3.3414,3.3414,3.3414,3.3307,3.3106,3.3227,3.3106,3.2848,3.2746,3.2585,3.2385,3.2719,3.2835,3.2781,3.3227,3.3414,3.3414,3.3414,3.3414,3.3414,3.3414,3.3414,3.3414,3.3414,3.3414,3.3414,3.3414,3.348,3.3534,3.344,3.348,3.3534,3.3427,3.3414,3.3467,3.3694,3.3641,3.3708,3.4255,3.3935,3.3654,3.3988,3.3694,3.3387,3.3293,3.328,3.328,3.328,3.328,3.332,3.34,3.3414,3.3414,3.3414,3.3414,3.3414,3.3414,3.3414,3.3414,3.3414,3.3414,3.3414,3.3414,3.3414,3.3414,3.3414,3.3414,3.3414,3.3414,3.3414,3.3414,3.3414,3.3414,3.3414,3.3414,3.3414,3.3414,3.3414,3.3414,3.3414,3.3414,3.3414,3.3414,3.3414,3.3414,3.3414,3.3414,3.2594,3.3013,3.3414,3.3414,3.3414,3.3414,3.3414,3.3414,3.3414,3.3414,3.3414,3.3414,3.3414,3.3414,3.3414,3.3414,3.3414,3.3414,3.3414,3.3414,3.3414,3.3414,3.3414,3.3414,3.3414,3.3414,3.3414,3.3414,3.3414,3.3414,3.3414,3.3414,3.332,3.3146,3.3213,3.3106,3.2929,3.2875,3.2666,3.2478,3.2839,3.2929,3.2822,3.324,3.3414,3.3414,3.3414,3.3414,3.3414,3.3414,3.3414,3.3414,3.3414,3.3414,3.3414,3.3414,3.3494,3.3574,3.344,3.3507,3.3574,3.344,3.3414,3.3467,3.3654,3.3641,3.3761,3.436,3.3975,3.3708,3.4082,3.3748,3.3414,3.3414,3.3414,3.3414,3.3414,3.3414,3.3414,3.3414,3.3414,3.3414,3.3414,3.3414,3.3414,3.3414,3.3414,3.3414,3.3414,3.3414,3.3414,3.3414,3.3414,3.3414,3.3414,3.3414,3.3414,3.3414,3.3414,3.3414,3.3414,3.3414,3.3414,3.3414,3.3414,3.3414,3.3414,3.3414,3.3414,3.3414,3.3414,3.3414,3.3414,3.3414,3.3414,3.3414,3.2594,3.2986,3.3387,3.3414,3.3414,3.3414,3.3414,3.3414,3.3414,3.3414,3.3414,3.3414,3.3414,3.3414,3.3414,3.3414,3.3414,3.3414,3.3414,3.3414,3.3414,3.3414,3.3414,3.3414,3.3414,3.3414,3.3414,3.3414,3.3414,3.3414,3.3414,3.3414,3.3414,3.34,3.3133,3.3146,3.3334,3.2862,3.2768,3.2995,3.2973,3.2973,3.3013,3.3293,3.3414,3.3414,3.3414,3.3414,3.3414,3.3414,3.3414,3.3414,3.3414,3.3414,3.3414,3.3414,3.3614,3.3788,3.3494,3.3627,3.3788,3.3521,3.3427,3.3414,3.3454,3.3654,3.3855,3.3921,3.3881,3.3855,3.3881,3.3627,3.3414,3.3414,3.3414,3.3414,3.3414,3.3414,3.3414,3.3414,3.3414,3.3414,3.3414,3.3414,3.3414,3.3414,3.3414,3.3414,3.3414,3.3414,3.3414,3.3414,3.3414,3.3414,3.3414,3.3414,3.3414,3.3414,3.3414,3.3414,3.3414,3.3414,3.3414,3.3414,3.3414,3.3414,3.3414,3.3414,3.3414,3.3414,3.3414,3.3414,3.3414,3.3414,3.3414,3.3414,3.2554,3.2875,3.3146,3.3374,3.3414,3.3414,3.3414,3.3414,3.3414,3.3414,3.3414,3.3414,3.3414,3.3414,3.3414,3.3414,3.3414,3.3414,3.3414,3.3414,3.3414,3.3414,3.3414,3.3414,3.3414,3.3414,3.3414,3.3414,3.3414,3.3414,3.3414,3.3414,3.3414,3.3414,3.3347,3.3227,3.3066,3.2933,3.2835,3.2714,3.2942,3.2973,3.3013,3.3293,3.3414,3.3414,3.3414,3.3414,3.3414,3.3414,3.3414,3.3414,3.3414,3.3414,3.3414,3.3414,3.3454,3.3494,3.3427,3.3467,3.3561,3.3734,3.3587,3.348,3.3721,3.3641,3.3654,3.4122,3.3855,3.3587,3.3841,3.3627,3.3414,3.3414,3.3414,3.3414,3.3414,3.3414,3.3414,3.3414,3.3414,3.3414,3.3414,3.3414,3.3414,3.3414,3.3414,3.3414,3.3414,3.3414,3.3414,3.3414,3.3414,3.3414,3.3414,3.3414,3.3414,3.3414,3.3414,3.3414,3.3414,3.3414,3.3414,3.3414,3.3414,3.3414,3.3414,3.3414,3.3414,3.3414,3.3414,3.3414,3.3414,3.3414,3.3414,3.3414,3.2567,3.2942,3.324,3.3387,3.3414,3.3414,3.3414,3.3414,3.3414,3.3414,3.3414,3.3414,3.3414,3.3414,3.3414,3.3414,3.3414,3.3414,3.3414,3.3414,3.3414,3.3414,3.3414,3.3414,3.3414,3.3414,3.3414,3.3414,3.3414,3.3414,3.3414,3.3414,3.3414,3.3414,3.3414,3.3334,3.3187,3.3187,3.3093,3.2973,3.312,3.3187,3.32,3.336,3.3414,3.3414,3.3414,3.3414,3.3414,3.3414,3.3414,3.3414,3.3414,3.3414,3.3414,3.3414,3.3414,3.3414,3.3414,3.3414,3.3454,3.3614,3.3534,3.3494,3.3814,3.3641,3.3547,3.4015,3.3734,3.3507,3.3828,3.3627,3.3414,3.3414,3.3414,3.3414,3.3414,3.3414,3.3414,3.3414,3.3414,3.3414,3.3414,3.3414,3.3414,3.3414,3.3414,3.3414,3.3414,3.3414,3.3414,3.3414,3.3414,3.3414,3.3414,3.3414,3.3414,3.3414,3.3414,3.3414,3.3414,3.3414,3.3414,3.3414,3.3414,3.3414,3.3414,3.3414,3.3414,3.3414,3.3414,3.3414,3.3414,3.3414,3.3414,3.3414,3.2581,3.2973,3.336,3.34,3.3414,3.3414,3.3414,3.3414,3.3414,3.3414,3.3414,3.3414,3.3414,3.3414,3.3414,3.3414,3.3414,3.3414,3.3414,3.3414,3.3414,3.3414,3.3414,3.3414,3.3414,3.3414,3.3414,3.3414,3.3414,3.3414,3.3414,3.3414,3.3414,3.3414,3.3414,3.3414,3.3414,3.3414,3.3414,3.3414,3.3414,3.3414,3.3414,3.3414,3.3414,3.3414,3.3414,3.3414,3.3414,3.3414,3.3414,3.3414,3.3414,3.3414,3.3414,3.3414,3.3414,3.3414,3.3414,3.3414,3.3427,3.348,3.3494,3.3561,3.3828,3.3641,3.3507,3.3828,3.3627,3.3507,3.3828,3.3627,3.3427,3.348,3.3454,3.3414,3.3414,3.3414,3.3414,3.3414,3.3414,3.3414,3.3414,3.3414,3.3414,3.3414,3.3414,3.3414,3.3414,3.3414,3.3414,3.3414,3.3414,3.3414,3.3414,3.3414,3.3414,3.3414,3.3414,3.3414,3.3414,3.3414,3.3414,3.3414,3.3414,3.3414,3.3414,3.3414,3.3414,3.3414,3.3414,3.3414,3.3414,3.3414,3.3414,3.3414,3.2541,3.2862,3.312,3.3374,3.3414,3.3414,3.3414,3.3414,3.3414,3.3414,3.3414,3.3414,3.3414,3.3414,3.3414,3.3414,3.3414,3.3414,3.3414,3.3414,3.3414,3.3414,3.3414,3.3414,3.3414,3.3414,3.3414,3.3414,3.3414,3.3414,3.3414,3.3414,3.3414,3.3414,3.3414,3.3414,3.3414,3.3414,3.3414,3.3414,3.3414,3.3414,3.3414,3.3414,3.3414,3.3414,3.3414,3.3414,3.3414,3.3414,3.3414,3.3414,3.3414,3.3414,3.3414,3.3414,3.3414,3.3414,3.3414,3.3414,3.348,3.3761,3.3828,3.3841,3.3881,3.3641,3.3507,3.3828,3.3627,3.3507,3.3828,3.3627,3.3507,3.3774,3.3587,3.3414,3.3414,3.3414,3.3414,3.3414,3.3414,3.3414,3.3414,3.3414,3.3414,3.3414,3.3414,3.3414,3.3414,3.3414,3.3414,3.3414,3.3414,3.3414,3.3414,3.3414,3.3414,3.3414,3.3414,3.3414,3.3414,3.3414,3.3414,3.3414,3.3414,3.3414,3.3414,3.3414,3.3414,3.3414,3.3414,3.3414,3.3414,3.3414,3.3414,3.3414,3.2278,3.2666,3.3013,3.3146,3.3307,3.3414,3.3414,3.3414,3.3414,3.3414,3.3414,3.3414,3.3414,3.3414,3.3414,3.3414,3.3414,3.3414,3.3414,3.3414,3.3414,3.3414,3.3414,3.3414,3.3414,3.3414,3.3414,3.3414,3.3414,3.3414,3.3414,3.3414,3.3414,3.3414,3.3414,3.3414,3.3414,3.3414,3.3414,3.3414,3.3414,3.3414,3.3414,3.3414,3.3414,3.3414,3.3414,3.3414,3.3414,3.3414,3.3414,3.3414,3.3414,3.3414,3.3414,3.3414,3.3414,3.3414,3.3414,3.3414,3.344,3.3587,3.3614,3.3668,3.3841,3.3641,3.3454,3.3587,3.3654,3.3721,3.3855,3.3627,3.3574,3.4055,3.3721,3.3467,3.3654,3.3521,3.3414,3.3414,3.3414,3.3414,3.3414,3.3414,3.3414,3.3414,3.3414,3.3414,3.3414,3.3414,3.3414,3.3414,3.3414,3.3414,3.3414,3.3414,3.3414,3.3414,3.3414,3.3414,3.3414,3.3414,3.3414,3.3414,3.3414,3.3414,3.3414,3.3414,3.3414,3.3414,3.3414,3.3414,3.3414,3.3414,3.3414,3.3414]},{"header":{"parameterUnit":"m.s-1","parameterCategory":1,"la1":30.6,"la2":28.766,"lo1":-90.7593,"lo2":-88.6598,"dy":0.0162,"dx":0.0183,"nx":116,"ny":114,"refTime":"2023-04-08T00:00:00:Z","depth":0,"parameterNumber":3,"parameterNumberName":"V-component_of_WINDS"},"data":[0.0,0.0,0.0,0.0,0.0,0.0,0.0,0.0,0.0,0.0,0.0,0.0,0.0,0.0,0.0,0.0,0.0,0.0,0.0,0.0,0.0,0.0,0.0,0.0,0.0,0.0,0.0,0.0,0.0,0.0,0.0,0.0,0.0,0.0,0.0,0.0,0.0,0.0,0.0,0.0,0.0,0.0,0.0,0.0,0.0,0.0,0.0,0.0,0.0,0.0,0.0,0.0,0.0,0.0,0.0,0.0,0.0,0.0,0.0,0.0,0.0,0.0,0.0,0.0,0.0,0.0,0.0,0.0,0.0,0.0,0.0,0.0,0.0,0.0,0.0,0.0,0.0,0.0,0.0,0.0,0.0,0.0,0.0,0.0,0.0,0.0,0.0,0.0,0.0,0.0,0.0,0.0,0.0,0.0,0.0,0.0,0.0,0.0,0.0,0.0,0.0,0.0,0.0,0.0,0.0,0.0,0.0,0.0,0.0,0.0,0.0,0.0,0.0,0.0,0.0,0.0,0.0,0.0,0.0,0.0,0.0,0.0,0.0,0.0,0.0,0.0,0.0,0.0,0.0,0.0,0.0,0.0,0.0,0.0,0.0,0.0,0.0,0.0,0.0,0.0,0.0,0.0,0.0,0.0,0.0,0.0,0.0,0.0,0.0,0.0,0.0,0.0,0.0,0.0,0.0,0.0,0.0,0.0,0.0,0.0,0.0,0.0,0.0,0.0,0.0,0.0,0.0,0.0,0.0,0.0,0.0,0.0,0.0,0.0,0.0,0.0,0.0,0.0,0.0,0.0,0.0,0.0,0.0,0.0,0.0,0.0,0.0,0.0,0.0,0.0,0.0,0.0,0.0,0.0,0.0,0.0,0.0,0.0,0.0,0.0,0.0,0.0,0.0,0.0,0.0,0.0,0.0,0.0,0.0,0.0,0.0,0.0,0.0,0.0,0.0,0.0,0.0,0.0,0.0,0.0,0.0,0.0,0.0,0.0,0.0,0.0,0.0,0.0,0.0,0.0,0.0,0.0,0.0,0.0,0.0,0.0,0.0,0.0,0.0,0.0,0.0,0.0,0.0,0.0,0.0,0.0,0.0,0.0,0.0,0.0,0.0,0.0,0.0,0.0,0.0,0.0,0.0,0.0,0.0,0.0,0.0,0.0,0.0,0.0,0.0,0.0,0.0,0.0,0.0,0.0,0.0,0.0,0.0,0.0,0.0,0.0,0.0,0.0,0.0,0.0,0.0,0.0,0.0,0.0,0.0,0.0,0.0,0.0,0.0,0.0,0.0,0.0,0.0,0.0,0.0,0.0,0.0,0.0,0.0,0.0,0.0,0.0,0.0,0.0,0.0,0.0,0.0,0.0,0.0,0.0,0.0,0.0,0.0,0.0,0.0,0.0,0.0,0.0,0.0,0.0,0.0,0.0,0.0,0.0,0.0,0.0,0.0,0.0,0.0,0.0,0.0,0.0,0.0,0.0,0.0,0.0,0.0,0.0,0.0,0.0,0.0,0.0,0.0,0.0,0.0,0.0,0.0,0.0,0.0,0.0,0.0,0.0,0.0,0.0,0.0,0.0,0.0,0.0,0.0,0.0,0.0,0.0,0.0,0.0,0.0,0.0,0.0,0.0,0.0,0.0,0.0,0.0,0.0,0.0,0.0,0.0,0.0,0.0,0.0,0.0,0.0,0.0,0.0,0.0,0.0,0.0,0.0,0.0,0.0,0.0,0.0,0.0,0.0,0.0,0.0,0.0,0.0,0.0,0.0,0.0,0.0,0.0,0.0,0.0,0.0,0.0,0.0,0.0,0.0,0.0,0.0,0.0,0.0,0.0,0.0,0.0,0.0,0.0,0.0,0.0,0.0,0.0,0.0,0.0,0.0,0.0,0.0,0.0,0.0,0.0,0.0,0.0,0.0,0.0,0.0,0.0,0.0,0.0,0.0,0.0,0.0,0.0,0.0,0.0,0.0,0.0,0.0,0.0,0.0,0.0,0.0,0.0,0.0,0.0,0.0,0.0,0.0,0.0,0.0,0.0,0.0,0.0,0.0,0.0,0.0,0.0,0.0,0.0,0.0,0.0,0.0,0.0,0.0,0.0,0.0,0.0,0.0,0.0,0.0,0.0,0.0,0.0,0.0,0.0,0.0,0.0,0.0,0.0,0.0,0.0,0.0,0.0,0.0,0.0,0.0,0.0,0.0,0.0,0.0,0.0,0.0,0.0,0.0,0.0,0.0,0.0,0.0,0.0,0.0,0.0,0.0,0.0,0.0,0.0,0.0,0.0,0.0,0.0,0.0,0.0,0.0,0.0,0.0,0.0,0.0,0.0,0.0,0.0,0.0,0.0,0.0,0.0,0.0,0.0,0.0,0.0,0.0,0.0,0.0,0.0,0.0,0.0,0.0,0.0,0.0,0.0,0.0,0.0,0.0,0.0,0.0,0.0,0.0,0.0,0.0,0.0,0.0,0.0,0.0,0.0,0.0,0.0,0.0,0.0,0.0,0.0,0.0,0.0,0.0,0.0,0.0,0.0,0.0,0.0,0.0,0.0,0.0,0.0,0.0,0.0,0.0,0.0,0.0,0.0,0.0,0.0,0.0,0.0,0.0,0.0,0.0,0.0,0.0,0.0,0.0,0.0,0.0,0.0,0.0,0.0,0.0,0.0,0.0,0.0,0.0,0.0,0.0,0.0,0.0,0.0,0.0,0.0,0.0,0.0,0.0,0.0,0.0,0.0,0.0,0.0,0.0,0.0,0.0,0.0,0.0,0.0,0.0,0.0,0.0,0.0,0.0,0.0,0.0,0.0,0.0,0.0,0.0,0.0,0.0,0.0,0.0,0.0,0.0,0.0,0.0,0.0,0.0,0.0,0.0,0.0,0.0,0.0,0.0,0.0,0.0,0.0,0.0,0.0,0.0,0.0,0.0,0.0,0.0,0.0,0.0,0.0,0.0,0.0,0.0,0.0,0.0,0.0,0.0,0.0,0.0,0.0,0.0,0.0,0.0,0.0,0.0,0.0,0.0,0.0,0.0,0.0,0.0,0.0,0.0,0.0,0.0,0.0,0.0,0.0,0.0,0.0,0.0,0.0,0.0,0.0,0.0,0.0,0.0,0.0,0.0,0.0,0.0,0.0,0.0,0.0,0.0,0.0,0.0,0.0,0.0,0.0,0.0,0.0,0.0,0.0,0.0,0.0,0.0,0.0,0.0,0.0,0.0,0.0,0.0,0.0,0.0,0.0,0.0,0.0,0.0,0.0,0.0,0.0,0.0,0.0,0.0,0.0,0.0,0.0,0.0,0.0,0.0,0.0,0.0,0.0,0.0,0.0,0.0,0.0,0.0,0.0,0.0,0.0,0.0,0.0,0.0,0.0,0.0,0.0,0.0,0.0,0.0,0.0,0.0,0.0,0.0,0.0,0.0,0.0,0.0,0.0,0.0,0.0,0.0,0.0,0.0,0.0,0.0,0.0,0.0,0.0,0.0,0.0,0.0,0.0,0.0,0.0,0.0,0.0,0.0,0.0,0.0,0.0,0.0,0.0,0.0,0.0,0.0,0.0,0.0,0.0,0.0,0.0,0.0,0.0,0.0,0.0,0.0,0.0,0.0,0.0,0.0,0.0,0.0,0.0,0.0,0.0,0.0,0.0,0.0,0.0,0.0,0.0,0.0,0.0,0.0,0.0,0.0,0.0,0.0,0.0,0.0,0.0,0.0,0.0,0.0,0.0,0.0,0.0,0.0,0.0,0.0,0.0,0.0,0.0,0.0,0.0,0.0,0.0,0.0,0.0,0.0,0.0,0.0,0.0,0.0,0.0,0.0,0.0,0.0,0.0,0.0,0.0,0.0,0.0,0.0,0.0,0.0,0.0,0.0,0.0,0.0,0.0,0.0,0.0,0.0,0.0,0.0,0.0,0.0,0.0,0.0,0.0,0.0,0.0,0.0,0.0,0.0,0.0,0.0,0.0,0.0,0.0,0.0,0.0,0.0,0.0,0.0,0.0,0.0,0.0,0.0,0.0,0.0,0.0,0.0,0.0,0.0,0.0,0.0,0.0,0.0,0.0,0.0,0.0,0.0,0.0,0.0,0.0,0.0,0.0,0.0,0.0,0.0,0.0,0.0,0.0,0.0,0.0,0.0,0.0,0.0,0.0,0.0,0.0,0.0,0.0,0.0,0.0,0.0,0.0,0.0,0.0,0.0,0.0,0.0,0.0,0.0,0.0,0.0,0.0,0.0,0.0,0.0,0.0,0.0,0.0,0.0,0.0,0.0,0.0,0.0,0.0,0.0,0.0,0.0,0.0,0.0,0.0,0.0,0.0,0.0,0.0,0.0,0.0,0.0,0.0,0.0,0.0,0.0,0.0,0.0,0.0,0.0,0.0,0.0,0.0,0.0,0.0,0.0,0.0,0.0,0.0,0.0,0.0,0.0,0.0,0.0,0.0,0.0,0.0,0.0,0.0,0.0,0.0,0.0,0.0,0.0,0.0,0.0,0.0,0.0,0.0,0.0,0.0,0.0,0.0,0.0,0.0,0.0,0.0,0.0,0.0,0.0,0.0,0.0,0.0,0.0,0.0,0.0,0.0,0.0,0.0,0.0,0.0,0.0,0.0,0.0,0.0,0.0,0.0,0.0,0.0,0.0,0.0,0.0,0.0,0.0,0.0,0.0,0.0,0.0,0.0,0.0,0.0,0.0,0.0,0.0,0.0,0.0,0.0,0.0,0.0,0.0,0.0,0.0,0.0,0.0,0.0,0.0,0.0,0.0,0.0,0.0,0.0,0.0,0.0,0.0,0.0,0.0,0.0,0.0,0.0,0.0,0.0,0.0,0.0,0.0,0.0,0.0,0.0,0.0,0.0,0.0,0.0,0.0,0.0,0.0,0.0,0.0,0.0,0.0,0.0,0.0,0.0,0.0,0.0,0.0,0.0,0.0,0.0,0.0,0.0,0.0,0.0,0.0,0.0,0.0,0.0,0.0,0.0,0.0,0.0,0.0,0.0,0.0,0.0,0.0,0.0,0.0,0.0,0.0,0.0,0.0,0.0,0.0,0.0,0.0,0.0,0.0,0.0,0.0,0.0,0.0,0.0,0.0,0.0,0.0,0.0,0.0,0.0,0.0,0.0,0.0,0.0,0.0,0.0,0.0,0.0,0.0,0.0,0.0,0.0,0.0,0.0,0.0,0.0,0.0,0.0,0.0,0.0,0.0,0.0,0.0,0.0,0.0,0.0,0.0,0.0,0.0,0.0,0.0,0.0,0.0,0.0,0.0,0.0,0.0,0.0,0.0,0.0,0.0,0.0,0.0,0.0,0.0,0.0,0.0,0.0,0.0,0.0,0.0,0.0,0.0,0.0,0.0,0.0,0.0,0.0,0.0,0.0,0.0,0.0,0.0,0.0,0.0,0.0,0.0,0.0,0.0,0.0,0.0,0.0,0.0,0.0,0.0,0.0,0.0,0.0,0.0,0.0,0.0,0.0,0.0,0.0,0.0,0.0,0.0,0.0,0.0,0.0,0.0,0.0,0.0,0.0,0.0,0.0,0.0,0.0,0.0,0.0,0.0,0.0,0.0,0.0,0.0,0.0,0.0,0.0,0.0,0.0,0.0,0.0,0.0,0.0,0.0,0.0,0.0,0.0,0.0,0.0,0.0,0.0,0.0,0.0,0.0,0.0,0.0,0.0,0.0,0.0,0.0,0.0,0.0,0.0,0.0,0.0,0.0,0.0,0.0,0.0,0.0,0.0,0.0,0.0,0.0,0.0,0.0,0.0,0.0,0.0,0.0,0.0,0.0,0.0,0.0,0.0,0.0,0.0,0.0,0.0,0.0,0.0,0.0,0.0,0.0,0.0,0.0,0.0,0.0,0.0,0.0,0.0,0.0,0.0,0.0,0.0,0.0,0.0,0.0,0.0,0.0,0.0,0.0,0.0,0.0,0.0,0.0,0.0,0.0,0.0,0.0,0.0,0.0,0.0,0.0,0.0,0.0,0.0,0.0,0.0,0.0,0.0,0.0,0.0,0.0,0.0,0.0,0.0,0.0,0.0,0.0,0.0,0.0,0.0,0.0,0.0,0.0,0.0,0.0,0.0,0.0,0.0,0.0,0.0,5.2159,5.1975,0.0,0.0,0.0,0.0,0.0,0.0,0.0,0.0,0.0,0.0,0.0,0.0,0.0,0.0,0.0,0.0,0.0,0.0,0.0,0.0,0.0,0.0,0.0,0.0,0.0,0.0,0.0,0.0,0.0,0.0,0.0,0.0,0.0,0.0,0.0,0.0,0.0,4.6085,4.6085,4.6085,4.6085,4.6012,4.5942,4.5853,0.0,0.0,0.0,0.0,0.0,0.0,0.0,0.0,0.0,0.0,0.0,0.0,0.0,0.0,0.0,0.0,0.0,0.0,0.0,0.0,0.0,0.0,0.0,0.0,0.0,0.0,0.0,0.0,0.0,0.0,0.0,0.0,0.0,0.0,0.0,0.0,0.0,0.0,0.0,0.0,0.0,0.0,0.0,0.0,0.0,0.0,0.0,0.0,0.0,0.0,0.0,0.0,0.0,0.0,0.0,0.0,0.0,0.0,0.0,0.0,0.0,0.0,0.0,0.0,0.0,0.0,0.0,0.0,0.0,0.0,5.4241,5.3626,0.0,0.0,0.0,0.0,0.0,0.0,0.0,0.0,0.0,0.0,0.0,0.0,0.0,0.0,0.0,0.0,0.0,0.0,0.0,0.0,0.0,0.0,0.0,4.594,4.6069,4.6289,4.62,4.6142,0.0,0.0,0.0,0.0,0.0,0.0,4.6289,4.6289,4.6289,4.6289,4.6445,4.6601,4.6758,4.6626,4.6548,4.6405,4.6054,0.0,0.0,0.0,0.0,0.0,0.0,0.0,0.0,0.0,0.0,0.0,0.0,0.0,0.0,0.0,0.0,0.0,0.0,0.0,0.0,0.0,0.0,0.0,0.0,0.0,0.0,0.0,0.0,0.0,0.0,0.0,0.0,0.0,0.0,0.0,0.0,0.0,0.0,0.0,0.0,0.0,0.0,0.0,0.0,0.0,0.0,0.0,0.0,0.0,0.0,0.0,0.0,0.0,0.0,0.0,0.0,0.0,0.0,0.0,0.0,0.0,0.0,0.0,5.8094,5.8709,5.9396,5.9396,5.9858,6.0435,5.7511,5.628,5.6285,5.5324,0.0,0.0,0.0,0.0,0.0,0.0,0.0,0.0,0.0,0.0,0.0,0.0,0.0,0.0,0.0,0.0,0.0,0.0,0.0,0.0,0.0,4.5818,4.6248,4.6289,4.6289,4.6288,4.6288,0.0,0.0,0.0,0.0,0.0,4.6289,4.6289,4.6289,4.6289,4.707,4.7812,4.8555,4.8554,4.8514,4.8433,4.6664,4.6312,4.6978,0.0,0.0,0.0,0.0,0.0,0.0,0.0,0.0,0.0,0.0,0.0,0.0,0.0,0.0,0.0,0.0,0.0,0.0,0.0,0.0,0.0,0.0,0.0,0.0,0.0,0.0,0.0,0.0,0.0,0.0,0.0,0.0,0.0,0.0,0.0,0.0,0.0,0.0,0.0,0.0,0.0,5.2582,5.2697,0.0,0.0,0.0,0.0,0.0,0.0,0.0,0.0,0.0,0.0,0.0,0.0,0.0,5.5972,5.7621,5.905,5.9973,6.0325,6.2551,6.3666,6.3782,6.3782,6.4243,6.498,6.3782,0.0,5.8896,5.7324,0.0,0.0,0.0,0.0,0.0,0.0,0.0,0.0,0.0,0.0,0.0,0.0,0.0,0.0,0.0,0.0,0.0,0.0,0.0,0.0,0.0,4.6523,4.7031,4.7031,4.7461,4.7539,4.707,4.7031,0.0,0.0,0.0,4.6289,4.6289,4.6289,4.6797,4.7773,4.8633,4.9492,5.0312,5.0312,5.0312,5.0273,4.9398,4.8679,4.813,4.7666,0.0,0.0,0.0,0.0,0.0,0.0,0.0,0.0,0.0,0.0,0.0,0.0,0.0,0.0,0.0,0.0,0.0,0.0,0.0,0.0,0.0,0.0,0.0,0.0,0.0,0.0,0.0,0.0,0.0,0.0,0.0,0.0,0.0,0.0,0.0,0.0,0.0,0.0,0.0,5.3433,5.4972,5.4049,5.3972,5.3318,0.0,0.0,0.0,0.0,0.0,0.0,0.0,0.0,0.0,5.7973,5.8863,6.0364,6.2551,6.282,6.3897,6.582,6.6436,6.6974,6.7475,6.7475,6.7398,6.7282,6.6891,6.5628,6.3557,6.0941,5.9363,5.8363,0.0,0.0,0.0,0.0,5.4934,5.5324,0.0,0.0,0.0,0.0,0.0,0.0,0.0,0.0,0.0,0.0,0.0,0.0,4.6445,4.7422,4.8008,4.8242,4.8633,4.8633,4.7969,4.7539,4.6992,4.6328,4.6289,4.6289,4.6289,4.6523,4.75,4.9219,4.9883,5.0859,5.207,5.1836,5.1836,5.207,5.2305,5.1445,4.9844,4.9324,4.8727,4.8021,0.0,0.0,0.0,0.0,0.0,0.0,0.0,0.0,0.0,0.0,0.0,0.0,0.0,0.0,0.0,0.0,0.0,0.0,0.0,0.0,0.0,0.0,0.0,0.0,0.0,0.0,0.0,0.0,0.0,0.0,0.0,0.0,0.0,0.0,0.0,0.0,0.0,5.6203,5.7901,5.6011,5.7286,5.7126,0.0,0.0,0.0,0.0,0.0,0.0,5.8555,5.9435,6.0781,6.2666,6.3595,6.5173,6.7481,6.6859,6.7936,7.0661,7.0007,7.0045,7.0667,7.0667,7.0314,6.9699,6.9699,6.909,6.7827,6.4442,6.2441,6.1243,5.9132,5.8011,5.7582,5.7165,5.7286,5.7671,0.0,0.0,0.0,0.0,0.0,0.0,0.0,0.0,0.0,0.0,0.0,4.5586,4.7344,4.832,4.918,5.0,4.9336,4.8867,4.8828,4.7266,4.6367,4.6289,4.6289,4.6289,4.6289,4.7109,4.8398,5.0117,5.0195,5.1445,5.3867,5.3008,5.3086,5.3906,5.4726,5.4141,5.2383,5.0781,5.0117,4.9922,4.8203,0.0,0.0,0.0,0.0,0.0,0.0,0.0,0.0,0.0,0.0,0.0,0.0,0.0,0.0,0.0,0.0,0.0,0.0,0.0,0.0,0.0,0.0,0.0,0.0,0.0,0.0,0.0,0.0,0.0,0.0,0.0,0.0,0.0,0.0,0.0,0.0,0.0,0.0,5.955,6.2897,0.0,0.0,0.0,0.0,5.9242,6.0012,6.1243,6.2891,6.3814,6.5429,6.793,6.8859,7.0129,7.1867,7.1828,7.2322,7.3315,7.3276,7.3276,7.3315,7.3315,7.3276,7.3238,7.3238,7.2276,7.0437,6.7096,6.4705,6.3083,6.221,6.0825,5.9473,6.0242,6.005,5.9473,0.0,0.0,0.0,0.0,0.0,0.0,0.0,0.0,4.2891,4.4336,4.5312,4.6484,4.8242,4.9687,5.0859,5.1719,5.1523,5.1094,5.0547,4.8906,4.7734,4.7148,4.6601,4.6562,4.7109,4.8555,5.0117,5.1797,5.293,5.4219,5.5664,5.5351,5.539,5.5703,5.6562,5.664,5.5898,5.3594,5.1992,5.0859,4.9726,4.8437,0.0,0.0,0.0,0.0,0.0,0.0,0.0,0.0,0.0,0.0,0.0,0.0,0.0,0.0,0.0,0.0,0.0,0.0,0.0,0.0,0.0,0.0,0.0,0.0,0.0,0.0,0.0,0.0,0.0,0.0,0.0,0.0,0.0,0.0,0.0,0.0,0.0,6.3782,6.7366,0.0,6.4743,6.5166,6.5545,6.5237,6.6013,6.7244,6.8936,6.9321,7.0398,7.2392,7.2745,7.3745,7.5483,7.4945,7.5322,7.6707,7.6207,7.5668,7.513,7.5707,7.5053,7.3546,7.4046,7.3623,7.243,7.0667,6.8289,6.5667,6.4865,6.4172,6.3589,6.332,6.3051,6.2743,0.0,0.0,0.0,0.0,0.0,0.0,0.0,0.0,4.3359,4.4805,4.6016,4.7383,4.9141,5.082,5.2187,5.3047,5.2851,5.2226,5.1055,4.9414,4.8086,4.7187,4.6875,4.7148,4.8008,4.9726,5.1445,5.3125,5.4297,5.5469,5.6601,5.6289,5.6484,5.707,5.7656,5.8047,5.8242,5.6484,5.4765,5.3047,5.1914,5.0781,4.9531,0.0,0.0,0.0,0.0,0.0,0.0,0.0,0.0,0.0,0.0,0.0,0.0,0.0,0.0,0.0,0.0,0.0,0.0,0.0,0.0,0.0,0.0,0.0,0.0,0.0,0.0,0.0,0.0,0.0,0.0,0.0,0.0,0.0,0.0,6.482,6.809,6.7282,7.1168,7.2598,6.9135,7.0129,7.0853,7.0545,7.1315,7.2437,7.3868,7.3906,7.4553,7.5938,7.5976,7.6669,7.813,7.7284,7.7553,7.8938,7.8099,7.7407,7.6861,7.7445,7.6784,7.5207,7.5745,7.5361,7.4322,7.3707,7.1822,6.9129,6.7744,6.6821,6.6288,6.5974,6.5705,6.5397,0.0,0.0,0.0,0.0,0.0,0.0,0.0,4.3164,4.4023,4.4922,4.6562,4.8281,5.0,5.1719,5.3047,5.3906,5.3164,5.1953,5.0351,4.8594,4.7226,4.6367,4.7187,4.8047,4.8945,5.0625,5.2305,5.4023,5.4062,5.4961,5.6562,5.5742,5.625,5.7851,5.793,5.8398,5.9219,5.9258,5.8281,5.6601,5.4844,5.4101,5.3789,0.0,0.0,0.0,0.0,0.0,0.0,0.0,0.0,0.0,0.0,0.0,0.0,0.0,0.0,0.0,0.0,0.0,0.0,0.0,0.0,0.0,0.0,0.0,0.0,0.0,0.0,0.0,0.0,0.0,0.0,0.0,0.0,0.0,6.3775,6.7898,7.0821,7.009,7.4399,7.6137,7.2829,7.4707,7.5784,7.4969,7.5668,7.6515,7.7369,7.7407,7.7753,7.8561,7.8561,7.8946,7.9815,7.9015,7.9015,7.9815,7.8977,7.8561,7.8523,7.8561,7.8561,7.8484,7.8484,7.7561,7.6053,7.5976,7.5014,7.3276,7.0783,6.8783,6.7366,6.8167,6.7898,6.725,0.0,0.0,0.0,0.0,0.0,0.0,4.3945,4.3945,4.4258,4.5742,4.7461,4.8984,5.0078,5.1719,5.3047,5.3906,5.2617,5.1562,5.1094,4.8906,4.75,4.7266,4.8086,4.9219,5.0664,5.2383,5.3828,5.4922,5.5586,5.6133,5.6601,5.6367,5.6484,5.6992,5.8281,5.8984,5.9297,6.0508,6.0742,6.0078,5.7773,5.6055,5.4805,0.0,0.0,0.0,0.0,0.0,0.0,0.0,0.0,0.0,0.0,0.0,0.0,0.0,0.0,0.0,0.0,0.0,0.0,0.0,0.0,0.0,0.0,0.0,0.0,0.0,0.0,0.0,0.0,0.0,0.0,0.0,6.6436,6.8706,6.8783,7.2706,7.5899,7.6899,7.9323,8.0554,7.9592,7.9054,7.8938,7.9323,7.8977,7.9131,8.0015,7.9477,7.9515,8.0362,7.9785,7.9862,8.0746,8.0516,8.0516,8.0746,8.0516,8.0054,7.9477,8.0092,7.9715,7.8484,7.8484,7.7907,7.6823,7.5592,7.4776,7.4238,7.2969,7.1783,7.0751,7.036,6.9283,6.8084,0.0,0.0,0.0,0.0,0.0,0.0,4.4091,4.4251,4.48,4.6601,4.8047,4.9375,5.0586,5.1562,5.2344,5.2851,5.168,5.0586,4.9844,4.8437,4.7773,4.8125,4.9297,5.0742,5.2461,5.3828,5.4961,5.5859,5.6367,5.6601,5.6601,5.6601,5.6992,5.7734,5.875,5.9609,6.0312,6.1289,6.1719,6.1562,6.0078,5.8906,5.7812,5.6211,5.5742,5.582,5.5117,5.543,5.6133,5.5742,0.0,0.0,0.0,0.0,0.0,0.0,0.0,0.0,0.0,0.0,0.0,0.0,0.0,0.0,0.0,0.0,0.0,0.0,0.0,0.0,0.0,0.0,0.0,0.0,7.1398,7.4053,7.5938,7.7438,7.9092,8.1131,8.2247,8.2832,8.2832,8.1939,8.1593,8.2093,8.167,8.1593,8.2131,8.167,8.1477,8.1593,8.1093,8.0939,8.1093,8.1093,8.1093,8.1093,8.1093,8.0823,8.0362,8.0862,8.0554,7.96,7.96,7.9131,7.8246,7.6861,7.6092,7.563,0.0,0.0,0.0,0.0,7.1129,6.9975,0.0,0.0,0.0,0.0,0.0,0.0,4.3692,4.4401,4.5436,4.7186,4.8281,4.9414,5.082,5.1133,5.1211,5.1133,5.0391,4.9258,4.7695,4.7695,4.8164,4.9141,5.0781,5.2461,5.4101,5.5117,5.5937,5.6601,5.6797,5.6836,5.6758,5.6836,5.7734,5.9219,5.9297,6.0156,6.1562,6.164,6.1758,6.1836,6.1836,6.1836,6.1601,5.9219,5.9375,6.0625,5.9023,5.9101,5.9805,5.8906,0.0,0.0,0.0,0.0,0.0,0.0,0.0,0.0,0.0,0.0,0.0,0.0,0.0,0.0,0.0,0.0,0.0,0.0,0.0,0.0,0.0,0.0,0.0,0.0,7.7284,8.0177,8.3678,8.2247,8.1593,8.3755,8.4024,8.4063,8.4178,8.3986,8.3909,8.4024,8.3947,8.387,8.387,8.387,0.0,0.0,0.0,8.2054,8.1246,8.1131,8.1093,8.1093,8.1093,8.1093,8.1093,8.1093,8.1093,8.1093,8.1016,8.0516,7.9746,7.8869,7.8099,7.7176,7.463,7.3623,7.3623,7.3546,7.3014,7.2367,0.0,0.0,0.0,0.0,0.0,0.0,4.5196,4.5052,4.5126,4.6254,4.7746,4.8657,4.8359,4.9609,5.0156,4.9453,4.8594,4.7969,4.7617,4.8242,4.9336,5.0859,5.2578,5.3984,5.5039,5.6601,5.7148,5.6601,5.8008,5.8359,5.7656,5.8359,5.8867,5.9219,5.9883,6.0351,6.0703,6.1406,6.2109,6.2734,6.2734,6.2734,6.2617,6.1406,6.2031,6.3398,6.2383,6.3047,6.4219,6.3359,6.3047,6.289,6.2031,6.1172,0.0,0.0,0.0,0.0,0.0,0.0,0.0,0.0,0.0,0.0,0.0,0.0,0.0,0.0,0.0,0.0,0.0,0.0,0.0,7.7138,7.99,8.2986,8.7141,8.7294,8.6901,8.6671,8.6671,8.694,8.7641,8.644,8.5901,8.6594,8.6017,8.5632,8.5632,8.5632,8.5247,8.4431,8.3708,8.2947,8.2093,8.14,8.1093,8.1093,8.1093,0.0,8.1093,8.1093,8.1093,8.1054,8.0362,7.9977,7.9746,7.8869,7.8407,7.8023,7.5476,7.4469,7.4392,7.3738,7.3392,7.3238,0.0,0.0,0.0,0.0,0.0,0.0,4.5066,4.5237,4.5597,4.6532,4.7478,4.8093,4.8152,4.8592,4.8711,4.8281,4.7851,4.7773,4.8203,4.9453,5.0898,5.2617,5.4375,5.5703,5.6562,5.789,5.8359,5.789,5.8789,5.8984,5.8555,5.8984,5.9414,5.9844,6.0664,6.1289,6.1758,6.2617,6.3242,6.3633,6.3633,6.3906,6.4219,6.332,6.4062,6.5547,6.5117,6.6328,6.8008,6.7148,6.7148,6.7344,6.6523,6.5581,6.4394,0.0,0.0,0.0,0.0,0.0,0.0,0.0,0.0,0.0,0.0,0.0,0.0,0.0,0.0,6.9783,7.2399,0.0,7.8707,8.2909,8.5016,8.7171,9.0171,9.0594,9.0287,8.9402,8.9286,8.9286,8.9286,8.8517,8.8162,8.8632,8.8239,8.8201,8.8632,8.8239,8.7632,8.6824,8.5517,8.4439,8.3593,8.2785,8.2131,8.1708,8.1708,8.1477,8.1093,8.1093,8.1093,8.1093,8.0631,8.0439,8.04,7.9515,7.89,7.8369,7.7092,7.6361,7.5899,7.5053,7.4469,7.4084,0.0,0.0,0.0,0.0,0.0,0.0,0.0,4.5304,4.6029,4.6849,4.7178,4.7542,4.8103,4.7791,4.7456,4.7303,4.7656,4.8281,4.9336,5.1133,5.293,5.4687,5.6289,5.7422,5.8125,5.8984,5.9375,5.9219,5.9531,5.9687,5.9687,5.9687,6.0195,6.1172,6.1719,6.2422,6.332,6.418,6.4648,6.4805,6.5,6.5586,6.6289,6.5547,6.6172,6.7383,6.7383,6.8711,7.039,7.0039,7.0273,7.0664,7.0506,6.9857,6.8589,6.5654,6.5517,0.0,0.0,0.0,0.0,0.0,0.0,0.0,0.0,6.4936,6.6083,6.8975,7.1475,7.4322,7.8292,8.0939,8.4016,8.8487,8.9863,9.1018,9.2749,9.2979,9.2787,9.2249,9.1902,9.1402,9.0701,9.0624,9.0624,9.0624,9.0624,9.0941,9.1633,9.0855,9.0017,8.9218,8.7517,8.6209,8.5401,8.4516,8.3632,8.2824,8.2824,8.2362,8.1593,8.1593,8.1477,8.1323,8.117,8.1093,8.1054,8.0323,7.9631,7.8984,7.883,7.8369,7.7669,7.6823,7.6053,7.5438,0.0,0.0,0.0,0.0,0.0,0.0,0.0,0.0,4.5711,4.5945,4.6651,4.691,4.6281,4.6812,4.6969,4.6329,4.7808,4.9414,5.1016,5.3476,5.5625,5.7383,5.8398,5.8945,5.9062,5.9844,5.9922,5.9219,6.0703,6.1406,6.1406,6.1406,6.2305,6.3828,6.3164,6.3359,6.4219,6.5078,6.5898,6.668,6.7461,6.8281,6.9062,6.8906,6.8984,6.9219,6.914,6.9336,6.9844,7.125,7.125,7.1053,7.3121,7.3672,7.2747,6.8457,6.6792,6.5174,6.0092,5.9978,6.1949,6.4556,6.5293,6.6743,0.0,7.2815,7.3507,7.7546,7.9785,8.1862,8.4593,8.6594,8.8526,9.0594,9.1633,9.2787,9.4489,9.472,9.498,9.5634,9.4364,9.3364,9.3287,9.3249,9.3249,9.3249,9.3249,9.3326,9.3403,9.2633,9.1825,9.0941,8.9286,8.7987,8.7132,8.6247,8.5401,8.4632,8.4632,8.417,8.3332,8.3332,8.2909,8.2131,8.14,8.1093,8.1093,8.0977,8.09,8.0746,7.9977,7.9585,7.94,7.8554,7.8176,7.8061,0.0,0.0,0.0,0.0,0.0,0.0,0.0,0.0,0.0,4.568,4.6071,4.6203,4.5875,4.619,4.6331,4.602,4.7617,4.9584,5.1765,5.3953,5.6155,5.8377,5.9372,6.0156,6.0625,6.1484,6.1992,6.2187,6.2851,6.3203,6.3203,6.3711,6.4375,6.5078,6.5742,6.6211,6.664,6.75,6.8086,6.8476,6.9336,6.9609,6.9492,6.9453,6.914,6.875,6.8711,6.9062,0.0,7.0273,7.0855,7.1535,7.3064,7.3075,7.1929,6.9083,6.789,6.7049,6.4912,6.4833,6.5884,6.8238,6.9937,7.1783,7.4784,7.5938,7.7323,8.0592,8.3401,8.5901,8.7932,9.0133,9.2018,9.3219,9.4134,9.498,9.5672,9.5749,9.5903,9.6249,9.5672,9.5018,9.4527,9.445,9.445,9.445,9.445,9.4672,9.5172,9.4403,9.3796,9.3403,9.1787,9.0748,9.0364,8.9017,8.7902,8.7094,8.6594,8.5901,8.5055,8.4555,8.3862,8.3024,8.2708,8.2285,8.1731,8.0852,8.0508,8.047,8.0116,7.9963,7.9845,7.8853,7.8484,7.8484,0.0,0.0,0.0,0.0,0.0,0.0,0.0,0.0,0.0,0.0,4.5692,4.5743,4.5743,4.5822,4.5869,4.5869,4.7461,4.9581,5.2139,5.4258,5.6636,5.9432,6.0467,6.1386,6.2245,6.3142,6.3768,6.4159,6.4678,6.5072,6.5308,6.6015,6.668,6.7422,6.8437,6.9023,6.9297,7.0195,7.0547,7.0586,7.1172,7.1055,7.0469,6.9765,6.8828,6.7851,6.7851,6.793,6.8125,6.8513,6.9236,7.0162,7.1431,7.1364,7.0539,6.8764,6.7645,6.716,6.7853,6.8545,6.9661,7.2052,7.4745,7.7092,7.8207,7.9554,8.1323,8.3862,8.6363,8.8748,9.0902,9.2826,9.4412,9.5528,9.6211,9.6634,9.6634,9.6634,9.6557,9.6326,9.6095,9.5788,9.5412,9.5374,9.5374,9.5374,9.5374,9.5634,9.6288,9.548,9.4989,9.4989,9.3595,9.2826,9.2826,9.1595,9.0441,8.9363,8.8748,8.7863,8.6786,8.5978,8.5093,8.4286,8.4055,8.3439,8.2569,8.1519,8.0906,8.0696,8.0516,8.0306,7.9991,7.903,7.8933,7.9215,0.0,0.0,0.0,0.0,0.0,0.0,0.0,0.0,0.0,0.0,0.0,0.0,0.0,4.5718,4.579,4.579,4.7458,4.9592,5.2113,5.4731,5.7689,6.1098,6.1993,6.2846,6.3738,6.4588,6.4626,6.3816,6.5628,6.6967,6.7795,6.8002,6.9453,7.1758,7.0976,7.1094,7.1953,7.2812,7.3164,7.3203,7.3203,7.3203,7.293,7.043,6.8437,6.6953,6.6953,6.5859,6.4687,6.618,6.6196,6.5966,6.8147,6.9401,6.9657,6.7722,6.5404,6.4006,6.6481,6.8936,7.1822,7.6053,7.9592,8.2516,8.4239,8.5277,8.6594,8.9124,8.9739,9.0855,9.422,9.4912,9.5489,9.7173,9.7442,9.7442,9.7442,9.7442,9.7173,9.6403,9.5557,9.5374,9.6172,9.6249,9.6249,9.6249,9.6249,9.6288,9.6288,9.548,9.4989,9.4989,9.4143,9.3672,9.3672,9.3595,9.2749,9.1133,9.1095,9.021,8.8603,8.7709,8.6863,8.5978,8.5201,8.4362,8.3563,8.3508,8.3,8.2191,8.1585,8.0849,8.0018,7.9431,7.996,8.1016,0.0,0.0,0.0,0.0,0.0,0.0,0.0,0.0,0.0,0.0,0.0,0.0,0.0,0.0,0.0,0.0,4.6739,4.8288,5.026,5.3423,5.6206,5.8485,6.111,6.2914,6.3774,6.5204,6.6098,6.6335,6.7514,6.8588,6.9448,7.0081,7.1117,7.2482,7.2754,7.3069,7.3342,7.3654,7.4083,7.4548,7.3429,7.3273,7.3344,6.9694,6.7202,6.556,0.0,6.3336,6.2505,6.2937,6.357,6.4446,6.5704,6.5845,6.5329,6.4132,6.4749,6.6397,6.8936,7.2713,7.683,8.0562,8.4024,8.6717,8.7286,8.8479,8.9748,9.0586,9.0316,9.0432,9.2172,9.2941,9.371,9.4788,9.6403,9.7711,9.8288,9.8365,9.8057,9.7211,9.6826,9.6557,9.6326,9.5788,9.5672,9.6249,9.6788,9.6865,9.6326,9.6519,9.6403,9.5865,9.5595,9.5441,9.5441,9.4864,9.4296,9.371,9.2595,9.1479,9.0364,9.0056,8.9133,8.7731,8.646,8.5093,8.3678,8.2263,8.1198,8.0432,8.0216,7.9967,7.9653,7.9305,7.9458,7.9827,0.0,0.0,0.0,0.0,0.0,0.0,0.0,0.0,0.0,0.0,0.0,0.0,0.0,0.0,0.0,0.0,0.0,4.7163,4.8817,5.1653,5.4169,5.6166,5.9012,6.0942,6.1838,6.323,6.4355,6.5174,6.6412,6.7763,6.9236,7.0169,7.1364,7.2762,7.331,7.3738,7.4007,7.4007,7.3968,7.3816,7.2429,7.1654,7.0911,6.7573,6.5238,0.0,6.2089,6.1235,6.0908,6.1133,6.1858,6.2756,6.3216,6.3329,6.3391,6.3788,6.6058,6.9283,7.3053,7.713,8.1216,8.4939,8.7979,9.0141,9.0411,9.1325,9.2095,9.2095,9.1171,9.0547,9.1095,9.1171,9.1402,9.221,9.398,9.5749,9.725,9.7451,9.7442,9.7519,9.725,9.6865,9.6365,9.5788,9.5711,9.6249,9.6788,9.6865,9.6326,9.6788,9.6826,9.6326,9.6288,9.6288,9.6288,9.5749,9.5297,9.4989,9.3035,9.1798,9.1251,9.0709,8.97,8.8303,8.7041,8.5697,8.4311,8.2636,8.1471,8.0672,8.0491,8.0195,7.9836,7.9231,7.8986,7.9014,0.0,0.0,0.0,0.0,0.0,0.0,0.0,0.0,0.0,0.0,0.0,0.0,0.0,0.0,0.0,0.0,0.0,0.0,4.7928,4.9707,5.1784,5.4241,5.6055,5.7401,5.8204,5.9088,5.9935,6.0787,6.2641,6.4781,6.7266,6.8298,7.009,7.2461,7.2461,7.2885,7.3575,7.3614,7.2726,7.1183,7.0282,6.8501,6.622,6.4366,6.2684,6.1226,6.022,5.9775,5.98,6.0631,6.1022,6.1175,6.1147,6.2281,6.4122,6.6667,6.9244,7.2552,7.8392,8.19,8.4901,8.9009,9.1364,9.2864,9.3595,9.3787,9.3787,9.3681,9.221,9.0979,9.0902,8.9671,8.8979,8.9816,9.0902,9.2479,9.4989,9.5374,9.5951,9.7519,9.7019,9.6557,9.6519,9.6442,9.6442,9.6442,9.6442,9.6403,9.6365,9.6442,9.6442,9.6365,9.6365,9.6326,9.6288,9.626,9.5818,9.4944,9.2606,9.1456,9.1434,8.9868,8.8718,8.7875,8.6995,8.6153,8.5349,8.4494,8.364,8.2787,8.2182,8.1442,8.0548,7.9161,7.8662,7.8695,0.0,0.0,0.0,0.0,0.0,0.0,0.0,0.0,0.0,0.0,0.0,0.0,0.0,0.0,0.0,0.0,0.0,0.0,4.7158,4.9399,5.1246,5.2505,5.5401,5.7099,5.7324,5.8742,5.9935,6.0787,6.1918,6.3461,6.5311,6.5589,6.64,6.7675,6.7675,6.7752,6.8017,6.8596,6.8596,6.8099,6.6626,6.6394,6.651,6.2913,6.1711,6.1778,6.085,6.0123,5.9578,5.9815,6.1588,6.3883,6.5121,6.6667,6.859,7.1129,7.4091,7.7445,8.1524,8.5401,8.8863,9.1248,9.3595,9.5211,9.4758,9.5172,9.5095,9.321,9.0441,8.7979,8.6739,8.7709,8.9171,9.0633,9.4249,9.7519,9.9442,10.0289,10.0596,10.0404,10.0212,9.9788,9.9183,9.8519,9.8173,9.8173,9.8173,9.7865,9.725,9.8442,9.8519,9.725,9.7211,9.6903,9.6326,9.5741,9.5074,9.4301,9.3049,9.2454,9.2378,9.0734,8.985,8.9559,8.7651,8.6326,8.5461,8.4137,8.3115,8.2286,8.1569,8.1107,8.0818,7.9842,7.9486,7.9423,0.0,0.0,0.0,0.0,0.0,0.0,0.0,0.0,0.0,0.0,0.0,0.0,0.0,0.0,0.0,0.0,0.0,0.0,0.0,4.8779,4.9933,5.0774,5.3015,5.4252,5.4252,5.5511,5.678,5.805,5.8517,6.0017,6.2358,6.2012,6.2704,6.4211,6.4211,6.4442,6.4782,6.5243,6.5013,0.0,0.0,6.3051,6.3012,6.1012,6.0512,6.0941,6.0825,6.1204,6.1897,6.3051,6.466,6.6551,6.8244,6.9975,7.2007,7.5315,7.84,8.1562,8.5324,8.8902,9.1979,9.3749,9.5249,9.598,9.472,9.4518,9.3787,9.0864,8.8132,8.5901,8.4555,8.5824,8.7478,8.8748,9.2941,9.6865,9.9288,10.0404,10.1212,10.1789,10.1904,10.152,10.0712,10.0184,9.9654,9.8887,9.8816,9.8596,9.8096,9.8639,9.8542,9.7574,9.7248,9.6654,9.5864,9.5105,9.4502,9.4102,9.2885,9.2313,9.2261,9.0274,8.9399,8.9257,8.73,8.6132,8.5604,8.4404,8.3654,8.3177,8.237,8.206,8.1913,8.0755,8.0314,8.0204,0.0,0.0,0.0,0.0,0.0,0.0,0.0,0.0,0.0,0.0,4.5704,0.0,0.0,0.0,0.0,0.0,0.0,0.0,0.0,0.0,4.8663,4.951,5.0284,5.0707,5.0707,5.1395,5.2582,5.4318,5.4318,5.5934,5.8973,5.828,5.9127,6.1248,6.1248,6.1633,6.2314,6.2391,6.155,6.0133,6.0358,5.9588,5.8396,0.0,5.9588,5.9781,6.0666,6.2551,6.5013,6.7814,6.8968,6.9584,7.1475,7.336,7.5661,7.9777,8.2631,8.5324,8.9316,9.221,9.4441,9.6057,9.6557,9.6134,9.4134,9.3095,9.1479,8.7825,8.5824,8.4439,8.3447,8.417,8.5316,8.6555,9.0171,9.4134,9.7827,9.899,10.0411,10.2794,10.2913,10.24,10.1605,10.1383,10.0786,9.9199,9.9015,9.8879,9.8659,9.8086,9.774,9.7614,9.6869,9.6078,9.514,9.4477,9.402,9.377,9.2393,9.1694,9.1641,8.9507,8.8536,8.8426,8.6811,8.6114,8.604,8.5123,8.4756,8.4682,8.3858,8.3491,8.3234,8.184,8.1269,8.1048,0.0,0.0,0.0,0.0,0.0,0.0,0.0,0.0,0.0,0.0,4.6308,4.6658,0.0,0.0,0.0,0.0,0.0,0.0,0.0,0.0,0.0,5.0438,5.063,5.0707,5.0707,5.0822,5.1741,5.3433,5.3433,5.4434,5.6362,5.6203,5.6401,5.6824,5.6824,5.6901,5.7049,5.7786,5.7517,5.6709,5.8165,5.855,5.8396,5.9204,5.9935,0.0,6.1556,6.3051,6.5205,6.9129,7.186,7.4161,7.7277,7.99,8.2562,8.6094,8.794,8.944,9.2287,9.4403,9.6095,9.7057,9.7827,9.7557,9.4403,9.3095,9.1133,8.6324,8.4516,8.337,8.1823,8.3362,8.6085,8.9748,9.271,9.6489,10.1981,10.2894,10.3588,10.5522,10.4494,10.3397,10.2503,10.1807,10.1002,9.9996,9.9972,9.936,9.7972,9.8431,9.8437,9.7705,9.6908,9.5817,9.4388,9.426,9.3512,9.2192,9.1906,9.1798,9.1761,9.0664,9.0188,9.0078,8.85,8.7766,8.7655,8.6187,8.56,8.549,8.4719,8.3968,8.3381,8.3087,8.2553,8.1893,0.0,0.0,0.0,0.0,0.0,0.0,0.0,4.5236,4.5713,4.6341,4.7454,4.7938,4.7268,4.8154,4.8779,0.0,0.0,0.0,0.0,0.0,0.0,5.0668,5.0707,5.0707,5.0707,5.1553,5.2395,5.3197,0.0,5.4511,5.5708,5.5285,5.5285,5.5708,5.5708,5.5708,5.5747,5.6632,5.6747,5.6478,5.778,5.855,5.8973,5.9358,6.0319,0.0,6.2435,6.4089,6.6359,6.9283,7.286,7.663,8.0015,8.2862,8.5478,8.844,9.0248,9.1825,9.4364,9.598,9.725,9.8519,9.8173,9.6596,9.3172,9.1056,8.8517,8.3862,8.2593,8.2054,8.1246,8.317,8.5701,8.8171,9.1164,9.4909,9.9923,10.142,10.2888,10.5515,10.509,10.4297,10.3482,10.2213,10.1094,10.0286,9.9486,9.9191,9.9598,9.9267,9.8691,9.7837,9.6612,9.5406,9.4251,9.3827,9.3025,9.1803,9.1803,9.1803,9.1767,9.0959,9.0592,9.0519,8.8904,8.8206,8.8096,8.6921,8.6407,8.6334,8.5527,8.4976,8.4535,8.3711,8.3161,8.27,0.0,0.0,0.0,0.0,0.0,0.0,0.0,4.5514,4.6081,4.7387,4.8889,4.9431,4.8401,4.9287,4.9783,0.0,0.0,0.0,0.0,0.0,0.0,0.0,0.0,0.0,5.0938,0.0,0.0,5.3472,5.4164,0.0,0.0,0.0,0.0,0.0,5.5708,5.5708,5.5747,5.6439,5.6824,0.0,0.0,5.8781,5.9511,0.0,0.0,0.0,0.0,6.4705,6.6898,6.9206,7.286,7.7053,8.0439,8.3747,8.6901,8.9432,9.1556,9.3557,9.5903,9.7288,9.8327,9.9529,9.8173,9.5557,9.1778,8.9094,8.6146,8.178,8.088,8.088,8.088,8.2416,8.4155,8.5672,8.8198,9.1697,9.6677,9.8771,10.1099,10.48,10.5187,10.4696,10.3587,10.2386,10.1217,9.9878,9.8927,9.8984,10.0302,9.9405,9.8483,9.7678,9.6428,9.5364,9.4556,9.3749,9.2941,9.206,9.1877,9.1803,9.1767,9.1143,9.0849,9.0776,8.916,8.8536,8.8647,8.7472,8.7088,8.7178,8.6371,8.593,8.5637,8.4389,8.3821,8.3564,0.0,0.0,0.0,0.0,0.0,0.0,0.0,4.6452,4.7491,4.9138,5.0406,5.1074,5.0968,5.1393,5.1079,0.0,0.0,0.0,0.0,0.0,0.0,0.0,0.0,0.0,0.0,0.0,0.0,5.4395,5.4472,0.0,0.0,0.0,0.0,0.0,0.0,5.5708,5.5708,5.5785,0.0,0.0,0.0,0.0,0.0,0.0,0.0,0.0,0.0,6.3968,6.5436,6.9436,7.2168,7.443,7.7792,8.2716,8.7786,9.0325,9.2826,9.5143,9.6903,9.8596,9.9721,9.9067,9.8134,9.6095,9.1163,8.8671,8.6022,8.1203,8.0182,8.0182,8.0182,7.9954,8.0932,8.4676,8.5104,8.7725,9.5669,9.7507,9.9812,10.4604,10.509,10.4202,10.1903,10.2282,10.1303,9.8345,9.9351,9.9223,9.7246,9.7685,9.7626,9.6832,9.6685,9.6208,9.5382,9.4593,9.3786,9.2978,9.217,9.1803,9.1803,9.173,9.1693,9.1583,8.9987,8.9693,9.0188,8.7932,8.7435,8.8023,8.7215,8.6444,8.58,8.5654,8.5123,8.4499,0.0,0.0,0.0,0.0,0.0,0.0,4.5663,4.5764,4.6608,4.9233,4.9996,5.0443,5.095,5.2,5.2229,5.1051,0.0,0.0,0.0,0.0,0.0,0.0,0.0,0.0,0.0,0.0,5.3274,5.4511,5.4972,0.0,0.0,0.0,0.0,0.0,0.0,5.5708,5.5785,5.6819,0.0,0.0,0.0,0.0,0.0,0.0,0.0,0.0,0.0,0.0,6.6436,6.8667,7.0898,7.3053,7.4899,7.8861,8.3632,8.7709,9.0752,9.344,9.6626,9.8069,9.8817,9.9472,9.6753,9.3133,9.0118,8.66,8.3132,8.0179,7.9556,7.9556,7.9556,7.9369,7.9706,8.1338,8.1505,8.3238,8.8485,9.0005,9.3109,9.9982,10.0411,10.0613,10.2081,10.12,9.9622,9.7346,9.8668,9.8741,9.6795,9.7933,9.8264,9.7456,9.6942,9.6098,9.4777,9.4446,9.3639,9.2317,9.195,9.1803,9.1803,9.1803,9.1803,9.173,9.0629,9.028,9.0482,8.9033,8.8335,8.8169,8.7839,8.7215,8.6481,8.5967,8.56,8.5306,0.0,0.0,0.0,0.0,0.0,4.4057,4.5663,4.5617,4.6498,4.9564,5.0151,5.0629,5.1426,5.2517,5.2951,5.2333,5.1648,0.0,0.0,0.0,0.0,0.0,0.0,0.0,0.0,0.0,5.3843,5.4857,5.5544,5.5851,0.0,0.0,5.5939,5.5708,0.0,0.0,0.0,0.0,0.0,0.0,0.0,0.0,0.0,0.0,0.0,0.0,0.0,0.0,0.0,0.0,0.0,7.1719,7.244,7.5203,7.922,8.4488,8.8373,9.1642,9.4898,9.6754,9.7951,9.8895,9.55,9.1388,8.9222,8.5248,8.1438,7.9376,7.8914,7.8914,7.8914,7.8754,7.8691,7.8889,7.8904,8.0079,8.3557,8.4862,8.7986,9.4923,9.5474,9.6685,10.0209,9.9475,9.83,9.7126,9.8117,9.8154,9.6759,9.8007,9.8374,9.7566,9.7016,9.6025,9.4666,9.441,9.3602,9.217,9.1913,9.1803,9.1803,9.1803,9.1803,9.1767,9.0959,9.0739,9.0886,8.984,8.9216,8.8904,8.8647,8.8206,8.7638,8.7068,8.6848,8.6811,0.0,0.0,0.0,0.0,0.0,0.0,4.5663,4.6571,4.7966,5.0472,5.1463,5.227,5.3104,5.3177,5.3214,5.3188,5.2731,0.0,0.0,0.0,0.0,0.0,0.0,0.0,0.0,0.0,5.4433,5.5708,5.6174,5.6142,5.5708,5.6593,5.6516,5.5708,0.0,0.0,0.0,0.0,0.0,0.0,0.0,0.0,6.0902,0.0,0.0,0.0,0.0,0.0,0.0,0.0,0.0,0.0,0.0,7.2356,7.5458,8.1093,8.6265,9.0342,9.1446,9.4713,9.7602,9.6743,9.4644,9.1927,8.8554,8.5273,8.2021,7.8954,7.8322,7.8322,7.8322,7.7782,7.754,7.82,7.7753,7.8772,8.2847,8.4095,8.6114,9.0188,9.1436,9.2905,9.5345,9.6979,9.7916,9.7897,9.7916,9.7566,9.6722,9.7456,9.753,9.6722,9.6685,9.6318,9.5492,9.4703,9.3896,9.3088,9.2207,9.1803,9.1803,9.1803,9.1803,9.1767,9.0959,9.1069,9.1657,9.006,8.984,9.0519,8.9693,8.9363,8.9363,8.9363,8.9363,8.9253,0.0,0.0,0.0,0.0,0.0,0.0,0.0,4.4819,4.57,4.871,4.9297,5.0215,5.216,5.2847,5.3214,5.3214,5.2561,0.0,0.0,0.0,0.0,0.0,0.0,0.0,0.0,0.0,5.4299,5.6161,5.6325,5.6754,5.7473,5.7742,5.7742,5.7473,5.7473,5.7627,0.0,0.0,0.0,0.0,0.0,6.0197,6.0813,0.0,0.0,0.0,0.0,0.0,0.0,0.0,0.0,0.0,0.0,0.0,0.0,7.6907,8.1069,8.5079,8.7663,8.9379,9.0483,9.0767,8.8562,8.5946,8.4336,8.1889,7.9519,7.7946,7.7629,7.7629,7.7629,7.742,7.7549,7.8374,7.8318,7.8662,7.9947,8.2223,8.5473,9.0078,9.5731,9.9145,9.8814,9.8741,9.8484,9.7933,9.7383,9.6979,9.6722,9.6942,9.6722,9.5895,9.5859,9.5254,9.3896,9.3602,9.3051,9.2207,9.1913,9.1803,9.1803,9.1803,9.1803,9.1803,9.1546,9.1546,9.1767,9.1253,9.0886,9.0592,9.0317,8.9877,8.94,8.94,8.94,8.9436,0.0,0.0,0.0,0.0,0.0,0.0,0.0,4.4085,4.4892,4.7526,4.8113,4.926,5.173,5.2454,5.3004,5.3581,5.3188,0.0,0.0,0.0,0.0,0.0,0.0,0.0,0.0,5.3628,5.4331,5.6123,5.6285,5.6861,5.7778,5.8084,5.8046,5.7778,5.7778,5.7931,0.0,0.0,0.0,0.0,5.9509,5.9746,6.0321,0.0,0.0,0.0,0.0,0.0,0.0,0.0,0.0,0.0,0.0,0.0,0.0,0.0,7.6806,8.0048,8.3643,8.5569,8.6671,8.7185,8.5328,8.3197,8.237,8.0314,7.8369,7.7472,7.7289,7.7289,7.7289,7.7289,7.7472,7.8038,7.8112,7.8442,7.936,8.1489,8.4646,8.916,9.5768,9.9475,9.8154,9.8961,9.9108,9.799,9.7419,9.7016,9.6722,9.6685,9.6318,9.5528,9.5492,9.5015,9.4042,9.3418,9.2831,9.2281,9.195,9.1803,9.1803,9.1803,9.1803,9.1803,9.1803,9.1803,0.0,9.1803,9.151,9.1069,9.1069,9.0739,9.0317,9.0317,9.0317,9.028,0.0,0.0,0.0,0.0,0.0,0.0,0.0,4.4121,4.5177,4.6782,4.7709,4.915,5.1646,5.1987,5.2648,5.4252,0.0,0.0,0.0,0.0,0.0,0.0,0.0,0.0,0.0,5.3632,5.4454,5.5739,5.6163,5.6631,5.7104,5.7837,5.78,5.7066,5.7066,5.749,0.0,0.0,0.0,0.0,5.9415,5.9406,0.0,0.0,0.0,0.0,0.0,0.0,0.0,0.0,0.0,0.0,0.0,0.0,0.0,0.0,0.0,0.0,0.0,8.292,8.5196,8.5196,8.4132,8.283,8.2039,8.0167,0.0,7.7472,7.7289,7.7289,7.7289,7.7289,7.7326,7.7399,7.7399,7.8243,8.0681,8.2076,8.4352,8.8316,9.3015,9.5584,9.474,9.808,9.9659,9.808,9.7953,9.753,9.6722,9.6685,9.6355,9.5602,9.5455,9.5382,9.5308,9.3859,9.3088,9.3015,9.217,9.1803,9.1803,9.1803,9.1803,9.1803,9.1803,9.1803,9.1803,9.1803,9.1803,9.1803,9.1803,9.1803,9.1803,9.1803,9.1803,9.1583,0.0,0.0,0.0,0.0,0.0,0.0,0.0,0.0,0.0,0.0,4.6865,4.8333,5.0802,5.161,5.2648,0.0,0.0,0.0,0.0,0.0,0.0,0.0,0.0,0.0,0.0,5.3879,5.4879,5.6155,5.6853,5.7754,5.8815,5.9003,5.9003,5.8806,5.8806,5.8928,0.0,0.0,0.0,0.0,5.9387,5.925,0.0,0.0,0.0,0.0,6.3419,6.4869,0.0,0.0,0.0,0.0,0.0,0.0,0.0,0.0,7.461,7.538,7.7582,0.0,7.9307,7.9307,7.9507,7.9507,0.0,7.8552,7.8369,7.7472,7.7289,7.7289,7.7289,7.7289,7.7509,7.8185,7.8295,7.8919,8.0755,8.593,9.0812,9.4299,9.7897,9.9512,9.8117,9.9365,9.9879,9.8888,9.8227,9.753,9.6722,9.6685,9.6612,9.6428,9.5217,9.4299,9.3675,9.3308,9.2758,9.2097,9.1913,9.1803,9.1803,9.1803,9.1803,9.1803,9.1803,9.1803,9.1803,9.1803,9.1803,9.1803,9.1803,9.1803,9.1803,9.1803,9.1803,9.173,0.0,0.0,0.0,0.0,0.0,0.0,0.0,0.0,0.0,0.0,0.0,4.7342,4.9434,5.0729,0.0,0.0,0.0,0.0,0.0,0.0,0.0,0.0,0.0,5.2637,5.2637,5.3812,5.4928,5.599,5.6784,5.7707,5.8746,5.8746,5.8746,5.8746,5.8746,5.8746,0.0,0.0,5.8835,5.9568,5.9288,0.0,0.0,0.0,0.0,0.0,6.3209,6.4604,0.0,6.6659,6.7577,6.8458,0.0,0.0,0.0,0.0,7.4316,7.516,7.6408,7.7032,7.7289,7.7289,7.7656,7.7876,7.7399,7.7656,7.7876,7.7399,7.7289,7.7289,7.7289,7.7619,7.7913,7.8002,7.8956,8.0645,8.3344,8.839,9.3015,9.6318,9.8888,10.0209,9.9695,9.9989,9.9805,9.8631,9.8154,9.753,9.6722,9.6685,9.6685,9.6685,9.5841,9.4997,9.4207,9.3088,9.2464,9.2391,9.1987,9.1803,9.1803,9.1803,9.1803,9.1803,9.1803,9.1803,9.1803,9.1803,9.1803,9.1803,9.1803,9.1803,9.1803,9.1803,9.1803,9.173,0.0,0.0,0.0,0.0,0.0,0.0,0.0,0.0,0.0,0.0,0.0,0.0,0.0,0.0,0.0,0.0,0.0,0.0,0.0,0.0,0.0,0.0,0.0,5.2234,5.2354,5.3812,5.4987,5.5768,5.6859,5.7703,5.8364,5.8474,5.84,5.818,5.8327,5.8217,0.0,0.0,5.8547,5.938,5.938,0.0,0.0,0.0,0.0,0.0,0.0,0.0,0.0,6.7063,6.8128,6.9032,6.9853,0.0,0.0,0.0,0.0,0.0,7.6019,7.6959,7.7619,7.7362,7.7289,7.7289,7.7289,7.7289,7.7289,7.7289,7.7289,7.7362,7.7472,7.8112,7.8405,7.7766,7.9968,8.3177,8.7344,9.0592,9.3639,9.6539,9.8411,9.9659,10.0099,10.0319,9.9805,9.819,9.808,9.7676,9.6759,9.6575,9.6575,9.6685,9.6465,9.6061,9.5492,9.3308,9.2427,9.2905,9.2134,9.1803,9.1803,9.1803,9.1803,9.1803,9.1803,9.1803,9.1803,9.1803,9.1803,9.1803,9.1803,9.1803,9.1803,9.1803,9.1803,9.1693,0.0,0.0,0.0,0.0,0.0,0.0,0.0,0.0,0.0,0.0,0.0,0.0,0.0,0.0,0.0,0.0,0.0,0.0,0.0,0.0,0.0,5.5108,5.3739,5.3324,5.4032,5.495,5.5794,5.6638,5.8804,5.9905,6.0052,6.0713,6.0309,5.9049,5.971,5.9281,5.7997,0.0,5.8841,6.0224,6.0224,0.0,0.0,0.0,0.0,0.0,0.0,0.0,0.0,6.6586,6.7687,6.9032,6.9853,0.0,0.0,0.0,0.0,0.0,7.6702,7.8259,7.9066,7.7656,7.7289,7.7289,7.7289,7.7289,7.7289,7.7289,7.7289,7.7546,7.8259,7.8516,7.8772,7.9323,8.259,8.6738,9.151,9.4336,9.6392,9.7566,9.9752,10.0613,9.9402,10.0503,10.0613,9.9035,9.8924,9.8264,9.6795,9.6061,9.6025,9.6685,9.5364,9.4923,9.5492,9.4446,9.3272,9.1987,9.184,9.1803,9.1803,9.1803,9.1803,9.1803,9.1803,9.1803,9.1803,9.1803,9.1803,9.1803,9.1803,9.1803,9.1803,9.1803,9.1803,9.1767,0.0,0.0,0.0,0.0,0.0,0.0,0.0,0.0,0.0,0.0,0.0,0.0,0.0,0.0,0.0,0.0,0.0,0.0,0.0,0.0,5.6161,5.6235,5.5133,5.4656,5.5034,5.6271,5.7299,5.8095,6.0517,6.1961,6.2401,6.1863,6.097,5.982,5.9318,5.8951,5.8646,5.8646,5.9575,6.1043,0.0,0.0,0.0,0.0,0.0,0.0,0.0,0.0,0.0,0.0,6.8201,6.9706,7.0477,0.0,0.0,0.0,0.0,0.0,7.5674,7.69,7.7928,7.8516,7.9323,7.9837,7.9381,7.9307,7.9161,7.8736,7.8332,7.8405,7.9653,8.0608,8.2186,8.5159,8.7178,8.9491,9.2648,9.518,9.7163,9.8411,10.0283,10.122,10.0503,10.111,10.0706,9.8594,9.8447,9.7933,9.6759,9.6355,9.6318,9.6685,9.5988,9.5364,9.485,9.4923,9.4116,9.2501,9.2501,9.2244,9.1803,9.1803,9.1803,9.1803,9.1803,9.1803,9.1803,9.1803,9.1803,9.1803,9.1803,9.1803,9.1803,9.1803,9.1803,9.1803,0.0,0.0,0.0,0.0,0.0,0.0,0.0,0.0,0.0,0.0,0.0,0.0,0.0,0.0,0.0,0.0,0.0,0.0,0.0,0.0,5.6235,5.7042,5.6492,5.6172,5.6172,5.774,5.9061,6.004,6.2866,6.4677,6.5461,6.3625,6.2108,6.0884,5.9465,5.8988,5.9196,5.9416,6.0297,6.163,0.0,0.0,0.0,0.0,0.0,0.0,0.0,0.0,0.0,0.0,0.0,0.0,0.0,0.0,0.0,7.2973,7.3487,7.4184,7.5197,7.6203,7.7378,7.9082,8.0277,8.1158,8.1489,8.1269,8.1012,8.0954,8.0424,8.0314,8.1379,8.2884,8.5473,9.0152,9.1216,9.2317,9.474,9.6649,9.8411,10.0006,10.109,10.1808,10.1808,10.1604,10.0596,9.8337,9.819,9.7823,9.7016,9.6612,9.6575,9.6979,9.6612,9.5914,9.485,9.5474,9.4887,9.3088,9.3088,9.2758,9.2097,9.1877,9.1803,9.1803,9.1803,9.1803,9.1803,9.1803,9.1803,9.1803,9.1803,9.1803,9.1803,9.1803,9.1803,9.1803,0.0,0.0,0.0,0.0,0.0,0.0,0.0,0.0,0.0,0.0,0.0,0.0,0.0,0.0,0.0,0.0,0.0,0.0,0.0,0.0,5.7068,5.7886,5.785,5.7813,5.7813,5.9391,6.0994,6.2536,6.6499,6.8898,6.9596,6.7247,6.4897,6.2572,6.1741,6.0529,5.9269,6.0003,6.0823,6.1667,6.2389,0.0,0.0,0.0,0.0,0.0,0.0,0.0,0.0,0.0,0.0,0.0,0.0,0.0,7.2789,7.428,7.4757,7.516,7.6702,7.8295,7.9412,7.8809,7.8185,7.8647,8.239,8.206,8.1636,8.3801,8.4205,8.3985,8.3344,8.4535,8.6958,9.1033,9.3015,9.5621,10.0209,10.098,10.1808,10.3403,10.2999,10.2595,10.2595,10.1898,10.0796,9.9145,9.9035,9.8668,9.786,9.6392,9.6282,9.775,9.6392,9.5914,9.6502,9.6575,9.5437,9.3088,9.3088,9.3088,9.2978,9.217,9.1803,9.1803,9.1803,9.1803,9.1803,9.1803,9.1803,9.1803,9.1803,9.1803,9.1803,9.1803,9.1803,9.1803,0.0,0.0,0.0,0.0,0.0,0.0,0.0,0.0,0.0,0.0,0.0,0.0,0.0,0.0,0.0,0.0,0.0,0.0,0.0,5.517,5.6418,5.7226,5.774,5.8217,5.8756,6.0811,6.3196,6.5852,6.9412,7.077,7.0036,6.7614,6.5191,6.2756,6.1447,6.0786,6.0713,6.1006,6.1924,6.3185,6.3503,6.3906,0.0,0.0,0.0,0.0,0.0,0.0,0.0,0.0,6.9449,7.022,7.105,7.1857,7.2716,7.3817,7.3817,7.3766,7.538,7.6261,7.7047,7.8295,7.7949,7.8647,8.3728,8.4425,8.4389,8.582,8.6481,8.6921,8.7088,8.8904,9.0996,9.3015,9.5144,9.7346,9.9695,10.1714,10.3182,10.3806,10.41,10.4027,10.3513,10.2705,10.1604,9.9989,9.9842,9.9292,9.797,9.7309,9.7052,9.7163,9.6575,9.6171,9.5951,9.6465,9.5988,9.4574,9.4079,9.3565,9.3088,9.2207,9.1803,9.1803,9.1803,9.1803,9.1803,9.1803,9.1803,9.1803,9.1803,9.1803,9.1803,9.1803,9.1803,9.1803,0.0,0.0,0.0,0.0,0.0,0.0,0.0,0.0,0.0,0.0,0.0,0.0,0.0,0.0,0.0,0.0,0.0,0.0,5.3141,5.4473,5.5684,5.6737,5.7336,5.8364,5.993,6.2095,6.4677,6.77,7.1174,7.2055,7.044,6.776,6.5595,6.3857,6.1741,6.1374,6.2377,6.2377,6.3038,6.4139,6.4653,6.5044,0.0,0.0,0.0,0.0,0.0,0.0,0.0,0.0,6.9633,7.0293,7.1358,7.2041,7.2679,7.345,7.3487,7.356,7.4903,7.527,7.5821,7.8038,7.8148,7.9197,8.4866,8.5967,8.6481,8.883,8.9124,8.9197,8.9987,9.1363,9.2758,9.4079,9.6539,9.8631,9.9695,10.2008,10.3586,10.388,10.421,10.4027,10.3182,10.2595,10.1677,9.9989,10.0209,9.9805,9.8704,9.8173,9.775,9.7456,9.6979,9.6428,9.5859,9.6428,9.6428,9.5878,9.507,9.441,9.3822,9.2427,9.195,9.2207,9.1913,9.1803,9.1803,9.1803,9.1803,9.1803,9.1803,9.1803,9.1803,9.1803,9.1803,9.1803,0.0,0.0,0.0,0.0,0.0,0.0,0.0,0.0,0.0,0.0,0.0,0.0,0.0,0.0,0.0,0.0,0.0,0.0,5.3141,5.3959,5.5097,5.6701,5.6811,5.829,6.1496,6.3221,6.5277,6.7737,7.1739,7.2863,7.1197,6.8017,6.6512,6.6329,6.3099,6.2561,6.4103,6.4103,6.4103,6.4249,6.5852,6.6035,0.0,0.0,0.0,0.0,0.0,0.0,0.0,0.0,7.011,7.0403,7.1982,7.2496,7.2679,7.345,7.4258,7.505,7.5873,7.6093,7.6497,7.8185,7.8589,8.0094,8.573,8.6407,8.7435,9.3125,9.2354,9.0886,9.1693,9.1179,9.1436,9.3896,9.6979,9.9659,10.1294,10.2191,10.2999,10.3806,10.3182,10.2412,10.1587,10.1514,10.0796,9.9255,9.9842,10.0283,10.0283,9.8778,9.8264,9.9071,9.753,9.6722,9.6685,9.6685,9.6685,9.6685,9.5859,9.5492,9.5418,9.2941,9.2281,9.3051,9.217,9.1803,9.1803,9.1803,9.1803,9.1803,9.1803,9.1803,9.1803,9.1803,9.1803,9.1803,0.0,0.0,0.0,0.0,0.0,0.0,0.0,0.0,0.0,0.0,0.0,0.0,0.0,0.0,0.0,0.0,0.0,0.0,5.3141,5.3959,5.4876,5.5915,5.6492,5.7508,5.9024,6.2377,6.6109,7.022,7.1431,7.0917,6.8752,6.7811,6.6452,6.4837,6.4971,6.4677,6.4103,6.4103,6.442,6.5007,6.5472,6.6182,0.0,0.0,0.0,0.0,0.0,0.0,0.0,0.0,0.0,0.0,7.149,7.2422,7.3377,7.3634,7.3854,7.4111,7.4331,7.4808,7.5637,7.7289,7.8977,8.1599,8.6701,8.7655,8.9087,9.4813,9.4483,9.3455,9.4263,9.3749,9.3639,9.4923,9.6428,9.797,9.9585,10.098,10.1714,10.1384,10.1698,10.1494,10.0686,10.0099,9.9842,9.9952,10.0209,10.0283,10.0283,9.9842,9.9181,9.8264,9.7787,9.7273,9.6722,9.6685,9.6685,9.6685,9.5859,9.5492,9.5418,9.3565,9.2868,9.3051,9.217,9.1803,9.1803,9.1803,9.1803,9.1803,9.1803,9.1803,9.1803,9.1803,9.1803,9.1803,0.0,0.0,0.0,0.0,0.0,0.0,0.0,0.0,0.0,0.0,0.0,0.0,0.0,0.0,0.0,0.0,0.0,0.0,0.0,5.3838,5.4436,5.5548,5.6381,5.7765,5.9869,6.2952,6.5999,6.8921,6.9876,6.9105,6.6769,6.7407,6.7076,6.6035,6.7026,6.6916,6.5999,6.5681,6.5632,6.5802,6.6109,6.7026,6.8164,0.0,0.0,0.0,0.0,0.0,0.0,0.0,0.0,0.0,7.1674,7.2459,7.3303,7.3597,7.3722,7.3832,7.4478,7.5028,7.6004,7.861,8.0592,8.3324,8.85,9.0886,9.3015,9.6465,9.6135,9.5401,9.5878,9.507,9.4556,9.5364,9.6428,9.753,9.8484,9.9732,10.0503,10.0319,10.0393,10.0393,9.9879,9.9402,9.9181,9.9328,9.9952,10.0209,9.9842,9.9805,9.9218,9.7933,9.7566,9.7199,9.6685,9.6685,9.6539,9.6208,9.5712,9.5308,9.4997,9.3675,9.3088,9.3051,9.217,9.1803,9.1803,9.1803,9.1803,9.1803,9.1803,9.1803,9.1803,9.1803,9.1803,9.1803,0.0,0.0,0.0,0.0,0.0,0.0,0.0,0.0,0.0,0.0,0.0,0.0,0.0,0.0,0.0,0.0,0.0,0.0,0.0,0.0,5.3995,5.5548,5.6528,5.8829,6.2719,6.4224,6.5031,6.5178,6.7453,6.7453,6.5325,6.6953,6.8128,6.8885,6.8958,6.8921,6.8752,6.7834,6.7063,6.6476,6.726,6.8054,6.8788,6.8848,0.0,0.0,0.0,0.0,0.0,0.0,0.0,0.0,7.2202,7.2496,7.2753,7.3377,7.367,7.4147,7.5689,7.6276,7.7414,8.1415,8.3361,8.5673,9.0996,9.5236,9.797,9.7897,9.7419,9.7016,9.6942,9.5658,9.4869,9.5603,9.6888,9.7843,9.7897,9.8521,9.9255,9.9879,9.9402,9.8961,9.8888,9.8868,9.8631,9.7953,9.9255,9.9805,9.9145,9.9108,9.8741,9.7953,9.7199,9.6759,9.6685,9.6685,9.6318,9.5492,9.5492,9.5034,9.4153,9.3418,9.3051,9.2941,9.2134,9.1803,9.1803,9.1803,9.1803,9.1803,9.1803,9.1803,9.1803,9.1803,9.1803,9.1803,0.0,0.0,0.0,0.0,0.0,0.0,0.0,0.0,0.0,0.0,0.0,0.0,0.0,0.0,0.0,0.0,0.0,0.0,0.0,0.0,5.4583,5.5548,5.7593,5.9967,6.2756,6.2548,6.3025,6.4347,6.5521,6.5802,6.5325,6.6953,6.8128,6.8921,6.9559,6.9119,6.7871,6.6439,6.5742,6.5618,6.6439,6.7247,6.8017,6.8678,0.0,0.0,0.0,0.0,0.0,0.0,0.0,0.0,7.1711,7.2422,7.334,7.2899,7.367,7.4867,7.5836,7.7524,7.9816,8.3214,8.7582,9.1657,9.4153,9.6869,9.8668,9.8007,9.8778,9.9328,9.8704,9.7787,9.7182,9.7365,9.7126,9.7163,9.7787,9.8043,9.797,9.753,9.786,9.7897,9.7273,9.7236,9.7419,9.7879,9.8227,9.8631,9.9071,9.9108,9.8741,9.7953,9.7733,9.7346,9.6722,9.6685,9.6318,9.5492,9.5492,9.474,9.3345,9.3198,9.2721,9.206,9.1877,9.1803,9.1803,9.1803,9.1803,9.1803,9.1803,9.1803,9.1803,9.1803,9.1803,9.1803,0.0,0.0,0.0,0.0,0.0,0.0,0.0,0.0,0.0,0.0,0.0,0.0,0.0,0.0,0.0,0.0,0.0,0.0,0.0,0.0,5.528,5.7226,5.8902,6.0737,6.2756,6.2389,6.2585,6.3466,6.3894,6.431,6.4751,6.6366,6.7981,6.9522,7.033,6.9779,6.8201,6.7393,6.6806,6.6512,6.732,6.8128,6.8912,6.9302,0.0,0.0,0.0,0.0,0.0,0.0,0.0,0.0,0.0,0.0,7.312,7.3083,7.367,7.4661,7.6261,7.8479,8.1525,8.6297,9.0592,9.4006,9.5198,9.7363,9.8888,9.808,9.8851,9.9475,9.8668,9.786,9.7309,9.7309,9.6979,9.6832,9.7273,9.7309,9.7309,9.7273,9.7309,9.7309,9.7273,9.6942,9.6869,9.7273,9.7676,9.7897,9.797,9.8337,9.8154,9.7346,9.7309,9.6942,9.6135,9.6135,9.5547,9.4354,9.4354,9.3712,9.2464,9.2464,9.2244,9.1803,9.1803,9.1803,9.1803,9.1803,9.1803,9.1803,9.1803,9.1803,9.1803,9.1803,9.1803,9.1803,0.0,0.0,0.0,0.0,0.0,0.0,0.0,0.0,0.0,0.0,0.0,0.0,0.0,0.0,0.0,0.0,0.0,0.0,0.0,0.0,0.0,5.9269,6.004,6.1227,6.2976,6.2866,6.2866,6.3013,6.2866,6.3392,6.4543,6.5999,6.8054,7.0513,7.0903,7.0279,6.8898,6.8591,6.8017,6.737,6.8311,6.9082,6.9706,6.9853,6.8972,6.7884,6.9376,6.9889,7.0146,7.1762,0.0,0.0,0.0,0.0,7.2642,7.3303,7.367,7.4368,7.6518,7.9417,8.3324,8.9491,9.2684,9.4556,9.5511,9.7383,9.8668,9.786,9.8557,9.9035,9.808,9.7346,9.6869,9.6722,9.6685,9.6685,9.6685,9.6685,9.6942,9.7603,9.7126,9.6942,9.764,9.7089,9.6685,9.6685,9.7309,9.7383,9.6722,9.7309,9.7383,9.6722,9.6685,9.6318,9.5492,9.5492,9.4684,9.3088,9.2941,9.2501,9.1803,9.1803,9.1803,9.1803,9.1803,9.1803,9.1803,9.1803,9.1803,9.1803,9.1803,9.1803,9.1803,9.1803,9.1803,9.1803,0.0,0.0,0.0,0.0,0.0,0.0,0.0,0.0,0.0,0.0,5.237,0.0,0.0,0.0,0.0,0.0,0.0,0.0,0.0,0.0,0.0,6.0114,6.0346,6.152,6.387,6.3196,6.3172,6.3906,6.3172,6.3967,6.6182,6.7113,6.9192,7.2129,7.0844,6.9743,6.8811,6.7393,6.6366,6.5742,6.7247,6.7921,6.8104,6.8788,6.8495,6.7811,6.8715,6.9082,6.9288,7.0903,7.1454,0.0,0.0,0.0,7.2532,7.2642,7.367,7.494,7.5983,8.0608,8.6371,9.151,9.3529,9.4703,9.6208,9.7346,9.7823,9.7016,9.8594,9.9659,9.8173,9.7787,9.7493,9.6795,9.6685,9.6685,9.6685,9.6685,9.6722,9.6832,9.6759,9.6722,9.6832,9.6759,9.6685,9.6685,9.6795,9.6795,9.6722,9.6795,9.6795,9.6685,9.6685,9.6318,9.5492,9.5492,9.4684,9.3088,9.2317,9.1913,9.1803,9.1803,9.1803,9.1803,9.1803,9.1803,9.1803,9.1803,9.1803,9.1803,9.1803,9.1803,9.1803,9.1803,9.1803,9.1803,0.0,0.0,0.0,0.0,0.0,0.0,0.0,0.0,0.0,0.0,0.0,5.3691,0.0,0.0,0.0,5.3251,5.3214,5.3728,0.0,0.0,0.0,5.9636,6.015,6.0896,6.1998,6.2108,6.2328,6.2707,6.1851,6.3637,6.7834,6.7737,6.9155,7.1747,7.0146,6.9229,6.8811,6.765,6.6953,6.6733,6.7907,6.8385,6.8421,6.8788,6.8385,6.7811,6.8605,6.8885,6.9142,7.0756,7.1013,7.0844,7.2092,0.0,0.0,0.0,7.3303,7.4992,7.8552,8.226,8.6407,9.1767,9.3382,9.4153,9.6245,9.7309,9.7676,9.6869,9.7897,9.8594,9.7419,9.7236,9.7126,9.6759,9.6685,9.6685,9.6685,9.6685,9.6685,9.6685,9.6685,9.6685,9.6685,9.6685,9.6685,9.6685,9.6685,9.6685,9.6685,9.6685,9.6502,9.6061,9.6025,9.5418,9.4189,9.4153,9.3565,9.2354,9.1987,9.1803,9.1803,9.1803,9.1803,9.1803,9.1803,9.1803,9.1803,9.1803,9.1803,9.1803,9.1803,9.1803,9.1803,9.1803,9.1803,9.1803,0.0,0.0,0.0,0.0,0.0,0.0,0.0,0.0,0.0,0.0,0.0,0.0,0.0,0.0,0.0,0.0,5.3214,5.3801,5.5218,0.0,0.0,5.8792,5.9857,6.0419,6.0419,6.119,6.1484,6.13,6.1117,6.3613,6.8605,6.8398,6.9706,7.2151,7.077,6.9779,6.9192,6.8582,6.8178,6.8031,6.8458,6.8605,6.8605,6.8605,6.8201,0.0,0.0,6.8605,6.8825,7.0206,7.044,7.033,7.1762,7.1784,0.0,0.0,0.0,7.4551,7.9837,8.215,8.4499,9.0372,9.2024,9.2905,9.5768,9.6869,9.7163,9.6795,9.7163,9.7456,9.7089,9.6832,9.6685,9.6685,9.6685,9.6685,9.6685,9.6685,9.6685,9.6685,9.6685,9.6685,9.6685,9.6685,9.6685,9.6685,9.6685,9.6685,9.6685,9.6502,9.6135,9.5528,9.5308,9.452,9.3125,9.2868,9.2427,9.1803,9.1803,9.1803,9.1803,9.1803,9.1803,9.1803,9.1803,9.1803,9.1803,9.1803,9.1803,9.1803,9.1803,9.1803,9.1803,9.1803,9.1803,9.1803,0.0,0.0,0.0,0.0,0.0,0.0,0.0,0.0,0.0,0.0,0.0,0.0,0.0,0.0,5.4069,5.3287,5.3214,5.3544,5.4399,5.5893,5.7152,5.8033,5.9575,0.0,6.0419,6.119,6.1227,6.0456,6.1949,6.442,6.7811,6.9279,7.1688,7.4683,7.3817,7.2165,7.0036,7.0,6.9522,6.8788,6.8054,6.7774,6.7774,6.7774,6.7737,6.77,6.7737,6.7774,6.7884,6.8752,6.9486,7.0257,7.1087,7.1344,7.1454,0.0,0.0,0.0,7.7635,7.8846,8.0461,8.6848,8.905,9.0647,9.4648,9.5565,9.5822,9.6539,9.6722,9.6979,9.7676,9.7199,9.6685,9.6685,9.6685,9.6685,9.6685,9.6685,9.6685,9.6685,9.6685,9.6685,9.6685,9.6685,9.6685,9.6685,9.6685,9.6685,9.6685,9.5988,9.5528,9.5492,9.4777,9.3969,9.3125,9.2281,9.184,9.1803,9.1803,9.1803,9.1803,9.1803,9.1803,9.1803,9.1803,9.1803,9.1803,9.1803,9.1803,9.1803,9.1803,9.1803,9.1803,9.1803,9.1803,9.1803,0.0,0.0,0.0,0.0,0.0,0.0,0.0,0.0,0.0,0.0,0.0,0.0,0.0,5.4851,5.462,5.3324,5.3654,5.4546,5.5856,5.648,5.7152,5.796,5.9538,6.015,5.9636,6.0407,6.0933,6.1153,6.0701,6.2939,6.7737,6.8825,7.077,7.3325,7.2518,7.1688,7.077,6.9229,6.8398,6.8091,6.7811,6.77,6.77,6.77,6.77,6.77,6.77,6.77,6.7811,6.8641,6.8752,6.8802,7.011,7.055,7.0807,7.2129,7.323,7.4463,7.646,7.8148,8.0293,8.4168,8.6885,8.9271,9.1785,9.3987,9.5565,9.5878,9.6355,9.6795,9.7089,9.6906,9.7052,9.808,9.7383,9.6869,9.7383,9.7016,9.6685,9.6685,9.6685,9.6685,9.6685,9.6245,9.5951,9.5951,9.5437,9.5144,9.5144,9.4887,9.4483,9.4006,9.3675,9.3125,9.2281,9.195,9.1803,9.1803,9.1803,9.1803,9.1803,9.1803,9.1803,9.1803,9.1803,9.1803,9.1803,9.1803,9.1803,9.1803,9.1803,9.1803,9.1803,9.1803,9.1803,9.1803,0.0,0.0,0.0,0.0,0.0,0.0,0.0,0.0,0.0,0.0,0.0,0.0,0.0,0.0,5.5464,5.4106,5.4473,5.5244,5.6345,5.6627,5.7152,5.796,5.9538,6.015,5.96,6.0114,6.0676,6.119,6.0419,6.2365,6.6916,6.8274,7.0169,7.2459,7.1394,7.1358,7.2004,7.0367,6.9389,6.8862,6.8311,6.8091,6.8128,6.8398,6.8508,6.8545,6.8788,6.8715,6.8582,6.9119,6.8935,6.8728,7.0073,7.0513,7.066,7.1468,7.2642,7.3913,7.4992,7.6512,7.8662,8.2427,8.4389,8.6444,9.0519,9.2482,9.384,9.5198,9.5951,9.6465,9.7016,9.7089,9.7456,9.8521,9.7787,9.7273,9.7843,9.6979,9.6392,9.6685,9.6465,9.6318,9.6318,9.5804,9.5382,9.5144,9.4593,9.4299,9.4299,9.4042,9.3529,9.2684,9.2648,9.2391,9.1803,9.1803,9.1803,9.1803,9.1803,9.1803,9.1803,9.1803,9.1803,9.1803,9.1803,9.1803,9.1803,9.1803,9.1803,9.1803,9.1803,9.1803,9.1803,9.1803,9.1803,9.1803,0.0,0.0,0.0,0.0,0.0,0.0,0.0,0.0,0.0,0.0,0.0,0.0,0.0,0.0,0.0,5.5805,5.5732,5.5732,5.5732,5.6455,5.7262,5.8033,5.9612,6.0456,6.0456,6.0456,6.0456,6.0481,6.1227,6.2842,6.5325,6.771,7.011,7.2275,7.0807,7.1394,7.3575,7.3538,7.2679,7.116,6.9545,6.8921,6.9082,6.9816,7.011,7.0257,7.1013,7.0793,7.0183,7.0183,7.0183,7.0293,7.105,7.1307,7.116,7.0367,7.0734,7.1711,0.0,0.0,0.0,8.1546,8.1415,8.2056,9.0739,9.0904,9.0427,9.4464,9.5345,9.5914,9.753,9.7879,9.7916,9.7916,9.7916,9.7916,9.7953,9.6539,9.5822,9.6612,9.6025,9.5528,9.5492,9.5455,9.5144,9.4336,9.4226,9.4226,9.4226,9.3492,9.2684,9.184,9.1803,9.1803,9.1803,9.1803,9.1803,9.1803,9.1803,9.1803,9.1803,9.1803,9.1803,9.1803,9.1803,9.1803,9.1803,9.1803,9.1803,9.1803,9.1803,9.1803,9.1803,9.1803,9.1803,9.1803,0.0,0.0,0.0,0.0,0.0,0.0,5.7666,0.0,0.0,0.0,0.0,0.0,5.6847,0.0,5.8033,5.8988,5.9061,5.9061,5.9061,5.9281,5.9501,5.9722,6.0713,6.1263,6.1263,6.1263,6.1557,6.2132,6.1777,6.2548,6.4457,6.6292,6.7834,6.9096,7.0403,7.0697,7.0183,6.961,7.011,7.116,6.9545,6.9963,7.1394,7.044,7.0807,7.1798,7.1417,7.1527,7.1835,7.1835,7.1835,7.1762,7.1417,7.1307,7.127,7.1013,7.1945,7.301,7.2863,0.0,0.0,0.0,0.0,0.0,8.279,8.4756,8.6904,9.0354,9.206,9.3565,9.5768,9.7126,9.7916,9.7916,9.7916,9.808,9.8704,9.7383,9.6465,9.6685,9.6502,9.6135,9.5565,9.496,9.4299,9.3492,9.2831,9.2501,9.2501,9.2281,9.206,9.1803,9.1803,9.1803,9.1803,9.1803,9.1803,9.1803,9.1803,9.1803,9.1803,9.1803,9.1803,9.1803,9.1803,9.1803,9.1803,9.1803,9.1803,9.1803,9.1803,9.1803,9.1803,9.1803,9.1803,9.1803,0.0,0.0,0.0,0.0,0.0,5.8621,5.8951,5.8621,0.0,0.0,0.0,0.0,5.8804,0.0,0.0,6.0896,6.0896,6.075,6.0407,6.0419,6.0566,6.0896,6.1337,6.1741,6.2108,6.1777,6.1998,6.2793,6.1998,6.2254,6.3576,6.5228,6.6439,6.7247,6.8678,6.9325,6.9302,6.7834,6.8385,7.0316,7.0353,7.1248,7.2459,7.2202,7.2679,7.3472,7.3362,7.3399,7.3509,7.3509,7.3509,7.3179,7.138,7.1505,7.2165,7.149,7.2202,7.3083,7.2642,7.345,7.4625,7.5506,0.0,0.0,8.1085,8.2223,8.3691,8.7601,8.9454,9.1069,9.3529,9.529,9.6612,9.7273,9.7126,9.7292,9.8447,9.7199,9.6318,9.6649,9.6098,9.5511,9.5034,9.4263,9.3455,9.2611,9.2097,9.1803,9.1803,9.1803,9.1803,9.1803,9.1803,9.1803,9.1803,9.1803,9.1803,9.1803,9.1803,9.1803,9.1803,9.1803,9.1803,9.1803,9.1803,9.1803,9.1803,9.1803,9.1803,9.1803,9.1803,9.1803,9.1803,9.1803,9.1803,9.1803,0.0,0.0,5.8364,5.9086,5.9343,5.971,6.0407,6.0591,6.0676,0.0,0.0,6.1227,6.2291,0.0,0.0,0.0,6.2108,6.1667,6.086,6.0701,6.1006,6.1704,6.1741,6.2071,6.2793,6.2181,6.2181,6.2793,6.2181,6.2254,6.2976,6.4481,6.5558,6.6219,6.6329,6.7504,6.9302,6.754,6.7577,6.9119,7.1431,7.2569,7.3046,7.439,7.5014,7.5234,7.5873,7.5689,7.516,7.516,7.5124,7.45,7.1468,7.2018,7.3523,7.1894,7.2078,7.2789,7.2789,7.3303,0.0,7.7451,7.6607,0.0,8.2223,8.1452,8.0807,8.527,8.6921,8.828,9.0702,9.2501,9.4042,9.5401,9.5327,9.5713,9.7512,9.6392,9.5621,9.6355,9.518,9.4263,9.4189,9.3529,9.2758,9.1877,9.1803,9.1803,9.1803,9.1803,9.1803,9.1803,9.1803,9.1767,9.1657,9.1657,9.1657,9.1657,9.1657,9.1693,9.1803,9.1803,9.1803,9.1803,9.1803,9.1803,9.1803,9.1803,9.1803,9.1803,9.1803,9.1803,9.1803,9.1803,9.1803,9.1803,0.0,5.8499,5.9013,5.9159,6.026,6.119,6.1337,6.1924,6.2316,6.2316,6.2952,6.442,6.7173,6.6623,0.0,0.0,6.5338,6.4237,6.3429,6.2732,6.2389,6.2572,6.2572,6.2646,6.2793,6.3319,6.3356,6.2793,6.3356,6.3699,6.3833,6.4163,6.442,6.4617,6.5264,6.5448,6.5424,6.754,6.8605,6.9032,7.083,7.3068,7.5359,7.5014,7.5711,7.6775,7.6276,7.6408,7.6848,7.6848,7.6408,7.5542,7.3597,7.378,7.4353,7.2738,7.3289,7.4426,7.4426,7.4536,7.483,7.5454,7.5763,0.0,7.6628,7.7326,7.8427,8.0718,8.2349,8.4095,8.6518,8.828,8.9271,8.894,9.0922,9.3529,9.6502,9.5547,9.4593,9.474,9.4483,9.4042,9.3418,9.3198,9.2758,9.1877,9.1803,9.1803,9.1803,9.1803,9.1803,9.1803,9.1803,9.1473,9.0849,9.0849,9.0849,9.0849,9.0849,9.1179,9.1803,9.1803,9.1803,9.1803,9.1803,9.1803,9.1803,9.1803,9.1803,9.1803,9.1803,9.1803,9.1803,9.1803,9.1803,9.1803,5.8609,5.9233,6.004,6.0848,6.1655,6.2475,6.3319,6.3783,6.4187,6.4591,6.6072,6.7407,6.8201,6.8311,6.7981,0.0,0.0,0.0,0.0,6.3686,6.3246,6.2829,6.2793,6.3013,6.3429,6.3466,6.3466,6.3466,6.3466,6.3466,6.3466,6.3906,6.4103,6.4139,6.4934,6.5301,6.5411,6.7026,6.8385,6.9706,7.2114,7.4059,7.5542,7.5931,7.6592,7.7289,7.7341,7.7855,7.8369,7.7105,7.7011,7.6974,7.4955,7.5432,7.635,7.428,7.483,7.5747,7.4133,7.4573,7.5506,7.5506,7.5799,0.0,0.0,7.6114,7.6555,7.8222,7.9213,8.0498,8.2957,8.4389,8.5453,8.6261,8.8096,9.0115,9.217,9.3529,9.4299,9.4299,9.3932,9.3529,9.3125,9.2721,9.2281,9.184,9.1803,9.1803,9.1803,9.1803,9.1803,9.1803,9.1803,9.14,9.0629,9.0592,9.0592,9.0592,9.0592,9.1033,9.1803,9.1803,9.1803,9.1803,9.1803,9.1803,9.1803,9.1803,9.1803,9.1803,9.1803,9.1803,9.1803,9.1803,9.1803,9.1803,5.9233,5.9967,6.1043,6.2352,6.2976,6.3783,6.5288,6.5655,6.6109,6.7063,6.9155,7.011,6.8985,6.9903,6.9853,6.8054,0.0,0.0,6.5094,6.4433,6.3796,6.3086,6.2903,6.3196,6.4066,6.3576,6.3527,6.4103,6.3527,6.3196,6.305,6.3759,6.4176,6.4347,6.5007,6.5852,6.6733,6.6733,6.8201,7.0807,7.356,7.4661,7.4867,7.6628,7.7289,7.7436,7.8479,7.9265,7.9486,7.7304,7.7488,7.8185,7.5858,7.6717,7.8148,7.5821,7.6261,7.6995,7.4368,7.5212,7.6754,7.6423,7.657,7.679,0.0,0.0,0.0,7.6628,7.7069,7.7913,7.9931,8.0828,8.1819,8.3618,8.5013,8.6077,8.6738,9.0041,9.2611,9.3051,9.2684,9.2391,9.2391,9.1473,9.1143,9.173,9.1363,9.1289,9.1767,9.1803,9.1803,9.1803,9.1657,9.1179,9.0391,9.0225,9.0152,9.0152,9.0298,9.0812,9.1583,9.173,9.1803,9.1803,9.1803,9.1803,9.1803,9.1803,9.1803,9.1803,9.1803,9.1803,9.1803,9.1803,9.1803,9.1803,5.9343,6.0407,6.152,6.1704,6.3539,6.5325,6.6219,6.6953,6.7958,6.9486,7.1174,7.2422,7.2951,7.2532,7.2386,7.2826,6.961,6.7811,6.8311,6.5668,6.4066,6.3943,6.3196,6.3196,6.4066,6.4714,6.4714,6.4103,6.4714,6.464,6.3943,6.4066,6.4494,6.5191,6.5251,6.6145,6.7554,6.7554,6.9376,7.2312,7.3413,7.3817,7.4074,7.6408,7.7289,7.7509,7.9103,7.9706,7.9669,7.8662,7.8442,7.8295,7.6533,7.7194,7.8259,7.6497,7.7157,7.8369,7.8002,7.8626,7.9029,7.7546,7.8295,7.8458,7.4918,0.0,7.6665,7.5417,0.0,7.7399,7.7656,0.0,0.0,7.7268,7.9727,8.1709,8.1819,8.4058,8.6481,8.8647,8.9436,8.9803,8.9803,8.8445,8.872,9.1583,8.9821,8.9528,9.1693,9.1803,9.1803,9.1803,9.1106,9.0354,8.9546,8.883,8.8463,8.85,8.9179,8.995,9.0776,9.1473,9.1803,9.1803,9.1803,9.1803,9.1803,9.1803,9.1803,9.1803,9.1803,9.1803,9.1803,9.1803,9.1803,9.1803,6.0566,6.152,6.2475,6.2952,6.431,6.5742,6.699,6.8288,6.9486,7.066,7.138,7.2312,7.3575,7.2973,7.2642,7.2973,7.1468,7.0036,6.8972,6.765,0.0,6.5521,6.4701,6.4861,6.6159,6.5154,6.4677,6.4787,6.415,6.3673,6.3356,6.3356,6.404,6.5325,6.5778,6.7136,6.9132,6.9596,7.0844,7.2569,7.3377,7.3722,7.4001,7.6937,7.861,7.9491,7.9743,8.0404,8.0991,7.9743,7.9302,7.9192,7.8458,7.8405,7.8442,7.7745,7.8038,7.8295,7.6827,7.8075,7.9302,7.7157,7.7855,7.8259,7.5139,7.516,7.5564,7.4441,0.0,0.0,0.0,0.0,0.0,0.0,7.8772,8.0277,8.0277,8.1562,8.3581,8.6444,8.6701,8.6794,8.7288,8.6701,8.6848,8.8206,8.7802,8.7949,8.8977,8.9877,9.0391,9.0391,9.006,8.951,8.872,8.839,8.8426,8.8886,8.9253,9.006,9.1326,9.1657,9.1803,9.1803,9.1803,9.1803,9.1803,9.1803,9.1803,9.1803,9.1803,9.1803,9.1803,9.1803,9.1803,9.1803,6.212,6.2548,6.305,6.3956,6.4787,6.5852,6.7444,6.9059,7.0293,7.0866,7.1527,7.2496,7.3891,7.4111,7.4184,7.4184,7.3949,7.2958,7.0991,7.0059,6.8935,6.754,6.6512,6.6512,6.7664,6.5791,6.5044,6.5618,6.4187,6.349,6.349,6.349,6.4261,6.5655,6.6696,6.8385,7.0477,7.127,7.2334,7.3523,7.3891,7.4441,7.5285,7.7671,7.9617,8.0938,8.0571,8.1342,8.2333,8.0954,8.0477,8.0477,8.0477,7.9926,7.9213,7.8993,7.9103,7.8772,7.6533,7.7965,7.947,7.6754,7.7194,7.7561,7.483,7.5124,7.5616,7.4551,7.5249,0.0,0.0,0.0,7.6225,7.7142,0.0,7.9103,7.9103,7.9433,8.0865,8.4095,8.4352,8.4682,8.571,8.4976,8.4829,8.571,8.5527,8.5747,8.6628,8.7968,8.8849,8.9069,8.9069,8.8776,8.8206,8.7986,8.8169,8.8739,8.9179,8.9987,9.1179,9.1583,9.1803,9.1803,9.1803,9.1803,9.1803,9.1803,9.1803,9.1803,9.1803,9.1803,9.1803,9.1803,9.1803,9.1803,6.3833,6.3356,6.305,6.3956,6.4787,6.5852,6.7444,6.9059,7.011,7.0146,7.2165,7.3927,7.4757,7.6974,7.8405,7.8405,7.7619,7.6775,7.5946,7.2958,7.083,7.0,6.8471,6.7664,6.77,6.6843,6.6439,6.6476,6.5618,6.5215,6.5215,6.5215,6.5655,6.6512,6.8128,6.9729,7.1307,7.2129,7.3817,7.5909,7.516,7.6313,7.8442,7.8552,7.9617,8.1122,8.1856,8.2663,8.3234,8.2406,8.2113,8.2113,8.2113,8.1562,8.0791,8.0,8.0314,8.0571,7.8919,7.969,8.0167,7.69,7.6738,7.6518,7.3303,7.5652,7.8002,7.635,7.9176,8.1452,7.9926,7.9008,0.0,0.0,7.7362,0.0,0.0,7.6738,7.7488,8.0755,8.25,8.4058,8.5637,8.2994,8.2443,8.5563,8.2957,8.2553,8.5673,8.6628,8.7418,8.8206,8.8243,8.8243,8.8206,8.7435,8.7051,8.7088,8.8666,8.9436,8.9546,9.1106,9.1803,9.1803,9.1803,9.1803,9.1803,9.1803,9.1803,9.1803,9.1803,9.1803,9.1803,9.1803,9.1803,9.1803,6.3906,6.431,6.4383,6.4139,6.4323,6.5044,6.6659,6.7811,6.9683,7.2863,7.4001,7.6041,8.0078,8.1252,8.1782,8.1782,8.1509,8.0298,7.7928,7.6188,7.4683,7.334,7.1725,7.0881,7.0881,6.9559,6.8605,6.8091,6.6769,6.6366,6.688,6.5802,6.6279,6.8128,6.9192,7.0881,7.2973,7.4294,7.5359,7.6093,7.5799,7.6864,7.8552,7.7949,7.8772,8.0257,8.0514,8.1122,8.1913,8.2737,8.2296,8.1599,8.2663,8.2076,8.0938,8.0681,8.1158,8.1562,8.0498,8.1746,8.248,7.8699,7.8369,7.7965,7.4147,7.6056,7.7965,7.5747,7.8552,8.0901,7.9286,7.8772,0.0,0.0,0.0,7.7766,0.0,7.5359,7.5322,7.7488,7.9213,8.0424,8.0975,8.0534,8.0424,8.0975,8.0498,8.0697,8.1762,8.3618,8.4739,8.4996,8.604,8.6591,8.6591,8.6885,8.7288,8.7802,8.8353,8.8886,8.9436,8.995,9.0501,9.1033,9.1033,9.1326,9.1803,9.1803,9.1803,9.1803,9.1803,9.1803,9.1803,9.1803,9.1803,9.1803,6.491,6.5375,6.5558,6.5044,6.5204,6.5645,6.6402,6.8128,7.0734,7.4426,7.6151,7.8683,8.2941,8.4152,8.4555,8.4278,8.4792,8.3618,8.0094,7.9601,7.85,7.6298,7.494,7.4074,7.378,7.1908,7.055,6.9729,6.8421,6.8054,6.8508,6.721,6.7417,6.8958,7.0036,7.1541,7.3413,7.5616,7.6518,7.6518,7.6518,7.7378,7.8552,7.7986,7.8809,8.0241,8.0241,8.0938,8.1986,8.3051,8.272,8.2076,8.3418,8.2904,8.184,8.184,8.2406,8.281,8.1709,8.2774,8.3434,8.0241,7.9837,7.9412,7.6166,7.7965,7.9764,7.7892,8.0057,8.2039,8.1305,8.0241,0.0,0.0,0.0,0.0,0.0,7.4184,7.4089,7.5102,7.6717,7.8038,7.8919,7.8956,7.8699,7.8185,7.8075,7.8295,7.8883,8.0681,8.2207,8.3344,8.4682,8.5637,8.6224,8.6738,8.7234,8.7766,8.8059,8.8463,8.8959,8.9253,8.984,9.0592,9.0592,9.1069,9.1803,9.1803,9.1803,9.1803,9.1803,9.1803,9.1803,9.1803,9.1803,9.1803,6.6659,6.6512,6.6549,6.6512,6.7113,6.7333,6.6623,6.9926,7.312,7.4867,7.8699,8.1876,8.3564,8.584,8.6921,8.6114,8.7435,8.6664,8.2737,8.3141,8.2133,7.9103,7.806,7.7179,7.635,7.4037,7.2386,7.1527,7.066,7.022,7.0183,6.9339,6.8935,6.8958,7.0683,7.1821,7.2716,7.5931,7.7289,7.7289,7.7289,7.7839,7.8662,7.8626,7.9617,8.1048,8.1012,8.1986,8.3271,8.3381,8.3381,8.3528,8.4352,8.4095,8.3491,8.3454,8.4058,8.4389,8.281,8.2957,8.3197,8.1583,8.1158,8.0718,7.914,8.1232,8.3234,8.2443,8.3581,8.4903,8.549,8.3104,8.1012,0.0,0.0,0.0,7.301,7.3156,7.3634,7.3758,7.4992,7.6864,7.9376,7.8222,7.7252,7.7142,7.5747,7.5564,7.7032,7.8038,7.9947,8.3051,8.4058,8.5306,8.6867,8.6941,8.6978,8.7014,8.7766,8.8133,8.8169,8.8959,8.9767,9.0555,9.0592,9.1069,9.1803,9.1803,9.1803,9.1803,9.1803,9.1803,9.1803,9.1803,9.1803,9.1803,6.6659,6.699,6.7187,6.6586,6.6182,6.6035,6.6439,6.9926,7.3744,7.7194,8.1672,8.5637,8.8463,8.9858,9.0225,8.9454,8.9748,8.905,8.6811,8.5747,8.4829,8.3985,8.2003,8.0571,7.9764,7.7965,7.6313,7.4882,7.2863,7.1872,7.1835,7.044,6.9486,6.9009,7.1835,7.2863,7.2716,7.5931,7.7289,7.7289,7.7289,7.817,7.9449,7.8809,7.9984,8.1819,8.1232,8.1269,8.1803,8.3014,8.3381,8.3528,8.4352,8.4866,8.5086,8.4462,8.5306,8.6151,8.5159,8.5453,8.5693,8.4095,8.3234,8.2517,8.1525,8.2847,8.4058,8.3234,8.4849,8.571,8.3508,8.2443,8.1085,7.8647,7.6203,7.4331,7.3487,7.2532,7.2591,7.4368,7.3362,7.3729,7.6754,7.7179,7.6555,7.4771,7.4793,7.483,7.4625,7.6518,7.8316,7.98,8.2353,8.4188,8.5233,8.639,8.6978,8.6978,8.7198,8.7325,8.7362,8.8133,8.894,8.973,9.0317,9.1069,9.1803,9.1803,9.1803,9.1803,9.1803,9.1803,9.1803,9.1803,9.1803,9.1803,6.7187,6.765,6.7981,6.7173,6.8091,6.9009,6.9119,7.1358,7.4625,7.9066,8.3251,8.6628,8.8793,9.0702,9.162,9.1179,9.1106,9.0298,8.8316,8.8023,8.7435,8.6371,8.4682,8.3544,8.3104,8.0498,7.8479,7.7194,7.4771,7.3377,7.2973,7.1027,6.9853,6.9522,7.1688,7.2606,7.2716,7.5931,7.7509,7.7876,7.7876,7.8626,0.0,7.969,8.0938,8.2663,8.2207,8.206,8.217,8.3087,8.3638,8.4005,8.4462,8.5159,8.571,8.527,8.604,8.6904,8.6444,8.6664,8.6757,8.5894,8.5563,8.5306,8.4499,8.5013,8.5637,8.5527,8.5747,8.56,8.4499,8.2847,8.0498,7.6848,7.5102,7.3854,7.2789,7.2165,7.2445,7.4184,7.3472,7.3582,7.5395,7.5014,7.4243,7.3266,7.3597,7.3523,7.2679,7.527,7.7341,7.8552,8.1729,8.3968,8.5123,8.6738,8.7344,8.6978,8.6978,8.6978,8.7014,8.7472,8.8299,8.9436,8.9877,9.0739,9.1803,9.1803,9.1803,9.1803,9.1803,9.1803,9.1803,9.1803,9.1803,9.1803,6.8031,6.8605,6.8935,6.8031,7.1174,7.378,7.3634,7.4478,7.668,8.1048,8.4499,8.6848,8.7545,9.0115,9.1803,9.1803,9.1803,9.0922,8.8793,8.9895,8.9693,8.7729,8.6775,8.6224,8.6114,8.2276,7.9764,7.8772,7.6166,7.4368,7.334,7.1248,7.0146,7.0,7.0977,7.2004,7.3156,7.5968,7.7693,7.8589,7.8589,7.914,8.0036,8.0865,8.2096,8.3418,8.3528,8.3564,8.3564,8.3564,8.4095,8.4756,8.4756,8.5306,8.5967,8.5967,8.6444,8.6978,8.6978,8.6978,8.7014,8.7124,8.7692,8.8059,8.7455,8.7234,8.7399,8.8206,8.6518,8.5306,8.6611,8.3471,7.947,7.5674,7.4867,7.4059,7.2041,7.2275,7.2973,7.3744,7.4368,0.0,7.472,7.2922,7.1931,7.2312,7.2459,7.2165,7.1344,7.4243,7.6717,7.8369,8.1562,8.4058,8.58,8.7288,8.7729,8.7178,8.7051,8.7051,8.7178,8.7271,8.8115,8.9546,8.9657,9.0519,9.1803,9.1803,9.1803,9.1803,9.1803,9.1803,9.1803,9.1803,9.1803,9.1803,6.8862,6.9876,7.0426,6.8972,7.2018,7.5784,7.9029,8.1342,8.3251,8.4756,8.8353,9.0812,9.0922,9.1473,9.1803,9.1803,9.1803,9.162,9.1179,9.0812,9.0702,9.0959,8.9564,8.8445,8.7802,8.4499,8.1746,7.9596,7.646,7.3802,7.1711,7.127,7.0389,6.9192,7.1358,7.3487,7.5506,7.6056,7.7194,7.8589,7.8589,7.947,8.0865,8.1672,8.259,8.3491,8.4168,8.4389,8.4389,8.4389,8.4903,8.56,8.56,8.6151,8.6811,8.6811,8.6885,8.6978,8.6978,8.6978,8.7178,8.7839,8.8096,8.8353,8.8849,8.8445,8.8206,8.9033,8.7785,8.6481,8.6077,8.2186,7.8332,7.624,7.4771,7.4001,7.4243,7.3817,7.378,7.4588,7.4221,7.3891,7.3891,7.4147,7.3509,7.1637,7.2129,7.2165,7.1344,7.3729,7.5858,7.7472,8.0718,8.3508,8.58,8.6738,8.7472,8.7986,8.7308,8.7344,8.8023,8.8666,8.951,9.0445,9.1106,9.1546,9.1803,9.1803,9.1803,9.1803,9.1803,9.1803,9.1803,9.1803,9.1803,9.1803,7.0206,7.0756,7.1564,7.2496,7.5285,7.8809,8.2884,8.5894,8.7399,8.6554,8.8096,8.9307,8.9307,9.0812,9.1803,9.1803,9.1803,9.1803,9.1803,9.1436,9.14,9.1767,9.0665,8.9657,8.8849,8.5656,8.303,8.1064,7.7341,7.4515,7.2532,7.1248,7.0036,6.8972,7.055,7.2826,7.5506,7.5909,7.7304,7.9302,8.0131,8.1195,8.2317,8.3141,8.3948,8.4682,8.5086,8.549,8.571,8.4903,8.5123,8.58,8.58,8.6077,8.6444,8.6867,8.6978,8.6978,8.6978,8.7325,8.7729,8.8096,8.883,8.9454,8.94,8.9106,8.8923,8.9326,8.8445,8.7399,8.6554,8.3141,8.0204,7.9396,7.7561,7.6387,7.6754,7.6093,7.5711,7.6114,7.505,7.4331,7.4331,7.4294,7.3266,7.0881,7.1798,7.1784,7.0132,7.3142,7.5234,7.6041,8.0057,8.2957,8.4535,8.6591,8.7839,8.8206,8.7802,8.8059,8.883,8.9216,8.984,9.0629,9.1033,9.14,9.1803,9.1803,9.1803,9.1803,9.1803,9.1803,9.1803,9.1803,9.1803,9.1803,7.2261,7.2738,7.3927,7.6423,7.936,8.2406,8.5563,8.8793,9.0188,8.828,8.8023,8.8023,8.8023,9.0298,9.1803,9.1803,9.1803,9.1803,9.1803,9.1803,9.1803,9.1803,9.1179,9.0464,8.9657,8.6664,8.4168,8.2186,7.8442,7.5542,7.3377,7.1505,7.0183,6.9435,7.044,7.2459,7.5197,7.6203,7.8038,8.044,8.2039,8.3104,8.3748,8.4756,8.5416,8.582,8.5967,8.6481,8.6757,8.5343,8.538,8.604,8.604,8.604,8.6187,8.6811,8.7124,8.7234,8.7234,8.7839,8.85,8.8683,8.9528,9.0207,8.9767,8.951,8.9436,8.962,8.9143,8.8353,8.7198,8.4939,8.292,8.2076,8.0498,7.925,7.8883,7.8405,7.7949,7.7619,7.6298,7.5124,7.4463,7.367,7.2239,7.0,7.1358,7.1417,6.9509,7.2738,7.472,7.4903,7.9653,8.2663,8.3638,8.6701,8.828,8.8463,8.8463,8.8904,8.9657,8.9657,9.0097,9.0849,9.0849,9.1216,9.1803,9.1803,9.1803,9.1803,9.1803,9.1803,9.1803,9.1803,9.1803,9.1803,7.5359,7.7451,7.9119,7.9412,8.3251,8.6444,8.6848,8.9638,9.162,9.1363,9.1363,9.1363,9.1363,9.162,9.1803,9.1803,9.1803,9.1803,9.1803,9.1803,9.1803,9.1803,9.173,9.1326,9.0519,8.8042,8.527,8.2186,7.9617,7.6387,7.2606,7.2386,7.1872,7.1123,7.2679,7.4331,7.6093,7.7671,7.9764,8.2113,8.3728,8.4425,8.4646,8.617,8.6371,8.5894,8.6628,8.6958,8.6885,8.5967,8.6224,8.6885,8.6885,8.6885,8.6904,8.6978,8.7509,8.8096,8.8096,8.8683,8.9473,9.017,8.995,8.9693,9.0317,8.9913,8.962,9.0317,9.0445,8.9657,8.7418,8.6757,8.538,8.1709,8.1525,8.1342,7.989,8.0241,8.0131,7.8662,7.7656,7.5931,7.301,7.2004,7.083,6.9155,7.0499,7.1307,7.1087,7.2826,7.4147,7.4867,7.9653,8.292,8.4462,8.6958,8.8573,8.929,8.929,8.9693,9.0482,9.0482,9.0922,9.1693,9.1693,9.173,9.1803,9.1803,9.1803,9.1803,9.1803,9.1803,9.1803,9.1803,9.1803,9.1803,7.9433,8.0167,8.1415,8.4352,8.5637,8.7105,8.9528,9.0959,9.1803,9.1803,9.1803,9.1803,9.1803,9.1803,9.1803,9.1803,9.1803,9.1803,9.1803,9.1803,9.1803,9.1803,9.1803,9.1436,9.0629,8.872,8.6371,8.3654,8.0718,7.7708,7.4625,7.3193,7.2078,7.138,7.2973,7.4845,7.6922,7.8589,8.0975,8.3728,8.4866,8.56,8.6097,8.6757,8.6794,8.6554,8.6867,8.6978,8.6941,8.6628,8.6407,8.6261,8.6261,8.6261,8.6481,8.7435,8.7949,8.8316,8.8776,8.951,9.0207,9.0519,9.0739,9.0812,9.0629,9.0354,9.0207,9.0537,9.0996,9.1033,9.0078,8.872,8.7509,8.6885,8.582,8.4866,8.4205,8.3124,8.184,8.0241,7.7157,7.4625,7.334,7.1615,7.0697,7.1027,7.077,7.0367,6.9876,7.138,7.2628,7.3435,7.8222,8.1525,8.3141,8.6518,8.8867,9.0097,9.0097,9.0555,9.1326,9.1326,9.151,9.1803,9.1803,9.1803,9.1803,9.1803,9.1803,9.1803,9.1803,9.1803,9.1803,9.1803,9.1803,9.1803,8.2884,8.3177,8.4352,8.8243,8.8169,8.85,9.1363,9.1803,9.1803,9.1803,9.1803,9.1803,9.1803,9.1803,9.1803,9.1803,9.1803,9.1803,9.1803,9.1803,9.1803,9.1803,9.1803,9.1546,9.0959,8.9381,8.7509,8.5306,8.2333,7.947,7.679,7.4588,7.3377,7.3142,7.4771,7.657,7.85,8.0424,8.2663,8.5049,8.6077,8.6848,8.7344,8.7344,8.7491,8.7638,8.7161,8.7308,8.7675,8.7418,8.7142,8.6775,8.6297,8.6297,8.6738,8.7876,8.8536,8.905,8.9583,9.0317,9.0959,9.0959,9.1216,9.1363,9.1033,9.0776,9.0665,9.0922,9.14,9.1803,9.1803,9.0408,8.9417,8.9821,8.8849,8.7711,8.6775,8.5196,8.3324,8.1269,7.7084,7.4111,7.3413,7.1394,7.066,7.2055,7.1101,7.033,7.0,7.105,7.2114,7.3193,7.7928,8.1285,8.2884,8.6664,8.9234,9.0592,9.0849,9.1253,9.1803,9.1803,9.1803,9.1803,9.1803,9.1803,9.1803,9.1803,9.1803,9.1803,9.1803,9.1803,9.1803,9.1803,9.1803,9.1803,8.5286,8.7031,8.8647,9.0298,9.1216,9.173,9.1803,9.1803,9.1803,9.1803,9.1803,9.1803,9.1803,9.1803,9.1803,9.1803,9.1803,9.1803,9.1803,9.1803,9.1803,9.1803,9.1803,9.1803,9.1803,9.0207,8.8592,8.6978,8.4519,8.1693,7.8516,7.6864,7.6497,7.7289,7.8993,8.0167,8.1122,8.3508,8.5013,8.593,8.7545,8.8169,8.8206,8.8206,8.8683,8.9143,8.7565,8.8005,8.9253,8.8463,8.872,8.9069,8.7491,8.7545,8.8169,8.8206,8.9344,9.0592,9.0592,9.1179,9.1803,9.1803,9.1216,9.0812,9.162,9.1179,9.0849,9.162,9.1803,9.1803,9.1803,9.1767,9.0959,8.861,8.9528,8.9454,8.6261,8.5783,8.4572,8.1379,7.8075,7.5139,7.2753,7.1064,7.044,7.1233,7.1307,7.1637,7.2422,7.2459,7.323,7.483,7.9617,8.292,8.4572,8.7785,8.9803,9.0629,9.14,9.1803,9.1803,9.1803,9.1803,9.1803,9.1803,9.1803,9.1803,9.1803,9.1803,9.1803,9.1803,9.1803,9.1803,9.1803,9.1803,9.1803,8.7895,8.9124,9.0188,9.1216,9.162,9.1803,9.1803,9.1803,9.1803,9.1803,9.1803,9.1803,9.1803,9.1803,9.1803,9.1803,9.1803,9.1803,9.1803,9.1803,9.1803,9.1803,9.1803,9.1803,9.1803,9.0207,8.8886,8.7839,8.5416,8.2847,8.0241,7.969,7.958,7.9895,8.1525,8.27,8.3544,8.4866,8.5894,8.6664,8.7178,8.7399,8.7435,8.7986,8.8353,8.861,8.8629,8.8959,8.9363,8.9106,8.9179,8.9326,8.8812,8.8812,8.9143,8.9674,9.0188,9.0739,9.1253,9.1583,9.1803,9.1803,9.162,9.1473,9.173,9.1583,9.1473,9.173,9.1803,9.1803,9.1803,9.1803,9.1546,9.0776,9.1069,9.0298,8.7068,8.5673,8.3581,7.98,7.6937,7.4536,7.2679,7.2055,7.1835,7.2092,7.16,7.1417,7.1674,7.2716,7.3817,7.4867,7.914,8.2663,8.538,8.8078,9.006,9.1436,9.1693,9.1803,9.1803,9.1803,9.1803,9.1803,9.1803,9.1803,9.1803,9.1803,9.1803,9.1803,9.1803,9.1803,9.1803,9.1803,9.1803,9.1803,8.951,9.0244,9.0849,9.1657,9.1803,9.1803,9.1803,9.1803,9.1803,9.1803,9.1803,9.1803,9.1803,9.1803,9.1803,9.1803,9.1803,9.1803,9.1803,9.1803,9.1803,9.1803,9.1803,9.1803,9.1803,9.0519,8.9583,8.9087,8.6371,8.4132,8.237,8.2023,8.2076,8.2406,8.3728,8.4572,8.5086,8.5894,8.6554,8.7014,8.7325,8.7638,8.7968,8.8463,8.9014,8.9528,8.9436,8.9803,9.0244,8.995,9.006,9.028,9.028,9.028,9.0317,9.0555,9.0812,9.1179,9.1657,9.1803,9.1803,9.1803,9.1803,9.1803,9.1803,9.1803,9.1803,9.1803,9.1803,9.1803,9.1803,9.1803,9.1803,9.1803,9.1546,9.0335,8.7418,8.5343,8.2774,7.9029,7.6922,7.516,7.3546,7.4258,7.4515,7.3891,7.4536,7.4536,7.3619,7.4221,7.5249,7.6717,8.0681,8.4058,8.6664,8.8793,9.0519,9.1803,9.1803,9.1803,9.1803,9.1803,9.1803,9.1803,9.1803,9.1803,9.1803,9.1803,9.1803,9.1803,9.1803,9.1803,9.1803,9.1803,9.1803,9.1803,9.0298,9.0629,9.0922,9.1657,9.1803,9.1803,9.1803,9.1803,9.1803,9.1803,9.1803,9.1803,9.1803,9.1803,9.1803,9.1803,9.1803,9.1803,9.1803,9.1803,9.1803,9.1803,9.1803,9.1803,9.1803,9.1033,9.0555,9.0445,8.7362,8.549,8.4756,8.3931,8.4005,8.4792,8.5527,8.5874,8.593,8.6701,8.7014,8.7124,8.7912,8.8683,8.94,8.9473,9.0391,9.1546,9.006,9.0537,9.1693,9.0959,9.1179,9.1803,9.1803,9.1803,9.1657,9.0922,9.1216,9.1803,9.1803,9.1803,9.1803,9.1803,9.1803,9.1803,9.1803,9.1803,9.1803,9.1803,9.1803,9.1803,9.1803,9.1803,9.1767,9.173,9.1033,8.9638,8.7088,8.4776,8.2096,7.8883,7.7876,7.6848,7.5307,7.7304,7.8038,7.646,7.914,7.9858,7.7656,7.7011,7.7708,8.0,8.3781,8.6628,8.8353,8.9858,9.0996,9.1803,9.1803,9.1803,9.1803,9.1803,9.1803,9.1803,9.1803,9.1803,9.1803,9.1803,9.1803,9.1803,9.1803,9.1803,9.1803,9.1803,9.1803,9.1803,9.0408,9.1106,9.1583,9.1767,9.1803,9.1803,9.1803,9.1803,9.1803,9.1803,9.1803,9.1803,9.1803,9.1803,9.1803,9.1803,9.1803,9.1803,9.1803,9.1803,9.1803,9.1803,9.1803,9.1803,9.1803,9.1033,9.0005,8.8757,8.7399,8.6628,8.639,8.56,8.5673,8.6427,8.6628,8.6738,8.6738,8.6904,8.7344,8.7949,8.8133,8.8683,8.9473,9.006,9.0555,9.0922,9.1143,9.1473,9.1767,9.1583,9.1657,9.1803,9.1803,9.1803,9.1767,9.1583,9.1657,9.1803,9.1803,9.1803,9.1803,9.1803,9.1803,9.1803,9.1803,9.1803,9.1803,9.1803,9.1803,9.1803,9.1803,9.1803,9.1583,9.0996,9.0207,8.8409,8.4776,8.3251,8.1269,7.7986,7.8552,7.8809,7.7818,7.8825,7.9339,7.8972,7.9066,7.9433,8.0078,8.1709,8.259,8.2553,8.4646,8.7142,9.0005,9.0408,9.0996,9.1803,9.1803,9.1803,9.1803,9.1803,9.1803,9.1803,9.1803,9.1803,9.1803,9.1803,9.1803,9.1803,9.1803,9.1803,9.1803,9.1803,9.1803,9.1803,9.0354,9.0959,9.1363,9.173,9.1803,9.1803,9.1803,9.1803,9.1803,9.1803,9.1803,9.1803,9.1803,9.1803,9.1803,9.1803,9.1803,9.1803,9.1803,9.1803,9.1803,9.1803,9.1803,9.1803,9.1803,9.1363,9.0555,8.9307,8.8482,8.8078,8.8078,8.7288,8.7325,8.8078,8.8078,8.8078,8.8078,8.8078,8.8335,8.8793,8.916,8.9564,9.0024,9.0849,9.1143,9.1216,9.1657,9.1803,9.1803,9.1803,9.1803,9.1803,9.1803,9.1803,9.1803,9.1803,9.1803,9.1803,9.1803,9.1803,9.1803,9.1803,9.1803,9.1803,9.1803,9.1803,9.1803,9.1803,9.1803,9.1803,9.1803,9.1803,9.1436,9.0244,8.9069,8.7014,8.3361,8.1819,8.0424,7.8662,7.958,8.0461,8.0791,8.1856,8.2092,8.0991,8.1856,8.2333,8.2096,8.4719,8.571,8.4535,8.6775,8.883,9.0592,9.0959,9.1363,9.1803,9.1803,9.1803,9.1803,9.1803,9.1803,9.1803,9.1803,9.1803,9.1803,9.1803,9.1803,9.1803,9.1803,9.1803,9.1803,9.1803,9.1803,9.1803,9.0482,9.0776,9.0996,9.1693,9.1803,9.1803,9.1803,9.1803,9.1803,9.1803,9.1803,9.1803,9.1803,9.1803,9.1803,9.1803,9.1803,9.1803,9.1803,9.1803,9.1803,9.1803,9.1803,9.1803,9.1803,9.1803,9.14,9.0592,8.9913,8.951,8.94,8.872,8.8739,8.94,8.94,8.94,8.94,8.94,8.9473,8.9657,9.0317,9.0665,9.0849,9.1546,9.1803,9.1803,9.1803,9.1803,9.1803,9.1803,9.1803,9.1803,9.1803,9.1803,9.1803,9.1803,9.1803,9.1803,9.1803,9.1803,9.1803,9.1803,9.1803,9.1803,9.1803,9.1803,9.1803,9.1803,9.1803,9.1803,9.1803,9.1803,9.1179,8.9326,8.7785,8.5637,8.2296,8.0771,8.0036,8.0147,8.1085,8.237,8.3968,8.5233,8.5233,8.3434,8.56,8.6207,8.4409,8.7031,8.7949,8.6554,8.9197,9.0665,9.0776,9.1473,9.1803,9.1803,9.1803,9.1803,9.1803,9.1803,9.1803,9.1803,9.1803,9.1803,9.1803,9.1803,9.1803,9.1803,9.1803,9.1803,9.1803,9.1803,9.1803,9.1803,9.1289,9.162,9.1657,9.1767,9.1803,9.1803,9.1803,9.1803,9.1803,9.1803,9.1803,9.1803,9.1803,9.1803,9.1803,9.1803,9.1803,9.1803,9.1803,9.1803,9.1803,9.1803,9.1803,9.1803,9.1803,9.1803,9.14,9.0592,9.0464,9.006,8.94,8.9253,8.929,8.94,8.94,8.94,8.94,8.94,8.9803,9.0427,9.0555,9.1033,9.162,9.173,9.1803,9.1803,9.1803,9.1803,9.1803,9.1803,9.1803,9.1803,9.1803,9.1803,9.1803,9.1803,9.1803,9.1803,9.1803,9.1803,9.1803,9.1803,9.1803,9.1803,9.1803,9.1803,9.1803,9.1803,9.1803,9.1803,9.1803,9.1803,9.0812,8.7858,8.6591,8.4609,8.0734,8.0534,8.1085,8.1746,8.3728,8.5673,8.7288,8.7068,8.7198,8.8189,8.7491,8.7418,8.8409,8.9583,9.0115,8.9858,9.0335,9.0922,9.162,9.173,9.1803,9.1803,9.1803,9.1803,9.1803,9.1803,9.1803,9.1803,9.1803,9.1803,9.1803,9.1803,9.1803,9.1803,9.1803,9.1803,9.1803,9.1803,9.1803,9.1803,9.0354,9.1216,9.1803,9.1803,9.1803,9.1803,9.1803,9.1803,9.1803,9.1803,9.1803,9.1803,9.1803,9.1803,9.1803,9.1803,9.1803,9.1803,9.1803,9.1803,9.1803,9.1803,9.1803,9.1803,9.1803,9.1803,9.162,9.1253,9.0812,9.0629,9.0702,9.0244,9.028,9.0702,9.0702,9.0702,9.0702,9.0702,9.0922,9.1253,9.1253,9.1473,9.1803,9.1803,9.1803,9.1803,9.1803,9.1803,9.1803,9.1803,9.1803,9.1803,9.1803,9.1803,9.1803,9.1803,9.1803,9.1803,9.1803,9.1803,9.1803,9.1803,9.1803,9.1803,9.1803,9.1803,9.1803,9.1803,9.1803,9.1803,9.1803,9.1803,9.1033,8.8666,8.6518,8.4352,8.2076,8.1305,8.1636,8.3287,8.5233,8.7252,8.9307,8.8739,8.8592,8.9326,8.8702,8.8629,8.9363,9.017,9.0812,9.1216,9.1253,9.1436,9.1803,9.1803,9.1803,9.1803,9.1803,9.1803,9.1803,9.1803,9.1803,9.1803,9.1803,9.1803,9.1803,9.1803,9.1803,9.1803,9.1803,9.1803,9.1803,9.1803,9.1803,9.1803,8.9877,9.0959,9.1803,9.1803,9.1803,9.1803,9.1803,9.1803,9.1803,9.1803,9.1803,9.1803,9.1803,9.1803,9.1803,9.1803,9.1803,9.1803,9.1803,9.1803,9.1803,9.1803,9.1803,9.1803,9.1803,9.1803,9.1803,9.1803,9.1179,9.1179,9.1803,9.1179,9.1216,9.1803,9.1803,9.1803,9.1803,9.1583,9.162,9.1767,9.1583,9.162,9.1803,9.1803,9.1803,9.1803,9.1803,9.1803,9.1803,9.1803,9.1803,9.1803,9.1803,9.1803,9.1803,9.1803,9.1803,9.1803,9.1803,9.1803,9.1803,9.1803,9.1803,9.1803,9.1803,9.1803,9.1803,9.1803,9.1803,9.1803,9.1803,9.1803,9.1143,8.9143,8.6757,8.4756,8.3564,8.2663,8.2957,8.5159,8.6848,8.8629,9.0702,9.0317,8.995,8.995,8.995,8.995,8.995,9.0555,9.1179,9.1767,9.1803,9.1803,9.1803,9.1803,9.1803,9.1803,9.1803,9.1803,9.1803,9.1803,9.1803,9.1803,9.1803,9.1803,9.1803,9.1803,9.1803,9.1803,9.1803,9.1803,9.1803,9.1803,9.1803,9.1803,9.1326,9.173,9.1803,9.1803,9.1803,9.1803,9.1803,9.1803,9.1803,9.1803,9.1803,9.1803,9.1803,9.1803,9.1803,9.1803,9.1803,9.1803,9.1803,9.1803,9.1803,9.1803,9.1803,9.1803,9.1803,9.1803,9.1803,9.1803,9.173,9.173,9.1803,9.173,9.173,9.1803,9.1803,9.1803,9.173,9.0996,9.1106,9.173,9.0996,9.1143,9.1803,9.1803,9.1803,9.1803,9.1803,9.1803,9.1803,9.1803,9.1803,9.1803,9.1803,9.1803,9.1803,9.1803,9.1803,9.1803,9.1803,9.1803,9.1803,9.1803,9.1803,9.1803,9.1803,9.1803,9.1803,9.1803,9.1803,9.1803,9.1803,9.1803,9.0776,8.7675,8.6978,8.6023,8.3711,8.4572,8.6077,8.7729,8.9381,9.0702,9.162,9.1657,9.162,9.162,9.162,9.162,9.162,9.1693,9.173,9.1803,9.1803,9.1803,9.1803,9.1803,9.1803,9.1803,9.1803,9.1803,9.1803,9.1803,9.1803,9.1803,9.1803,9.1803,9.1803,9.1803,9.1803,9.1803,9.1803,9.1803,9.1803,9.1803,9.1803,9.1803,9.017,9.1106,9.1803,9.1803,9.1803,9.1803,9.1803,9.1803,9.1803,9.1803,9.1803,9.1803,9.1803,9.1803,9.1803,9.1803,9.1803,9.1803,9.1803,9.1803,9.1803,9.1803,9.1803,9.1803,9.1803,9.1803,9.1803,9.1803,9.1803,9.1803,9.1803,9.1803,9.1546,9.1069,9.1583,9.151,9.1069,9.1253,9.1216,9.1069,9.1253,9.1216,9.1106,9.162,9.1803,9.1803,9.1803,9.1803,9.1803,9.1803,9.1803,9.1803,9.1803,9.1803,9.1803,9.1803,9.1803,9.1803,9.1803,9.1803,9.1803,9.1803,9.1803,9.195,9.2464,9.217,9.2097,9.3125,9.2501,9.195,9.2501,9.217,9.14,9.0188,8.872,8.7619,8.7161,8.7215,8.7692,8.8812,9.0372,9.1473,9.1767,9.1803,9.1803,9.1803,9.1803,9.1803,9.1803,9.1803,9.1803,9.1803,9.1803,9.1803,9.1803,9.1803,9.1803,9.1803,9.1803,9.1803,9.1803,9.1803,9.1803,9.1803,9.1803,9.1803,9.1803,9.1803,9.1803,9.1803,9.1803,9.1803,9.1803,9.1803,9.1803,9.1803,8.973,9.0886,9.1803,9.1803,9.1803,9.1803,9.1803,9.1803,9.1803,9.1803,9.1803,9.1803,9.1803,9.1803,9.1803,9.1803,9.1803,9.1803,9.1803,9.1803,9.1803,9.1803,9.1803,9.1803,9.1803,9.1803,9.1803,9.1803,9.1803,9.1803,9.1803,9.1803,9.151,9.0996,9.1289,9.1253,9.0959,9.0776,9.0629,9.0629,9.0922,9.0886,9.0702,9.1473,9.1803,9.1803,9.1803,9.1803,9.1803,9.1803,9.1803,9.1803,9.1803,9.1803,9.1803,9.1803,9.1987,9.2134,9.1877,9.1987,9.2134,9.1877,9.1803,9.195,9.2574,9.2427,9.2464,9.3308,9.2831,9.2317,9.2648,9.2207,9.173,9.1473,9.0041,8.916,8.9693,8.9307,8.9271,9.006,9.1143,9.1803,9.1803,9.1803,9.1803,9.1803,9.1803,9.1803,9.1803,9.1803,9.1803,9.1803,9.1803,9.1803,9.1803,9.1803,9.1803,9.1803,9.1803,9.1803,9.1803,9.1803,9.1803,9.1803,9.1803,9.1803,9.1803,9.1803,9.1803,9.1803,9.1803,9.1803,9.1803,9.1803,9.1803,9.1803,9.0445,9.1253,9.1803,9.1803,9.1803,9.1803,9.1803,9.1803,9.1803,9.1803,9.1803,9.1803,9.1803,9.1803,9.1803,9.1803,9.1803,9.1803,9.1803,9.1803,9.1803,9.1803,9.1803,9.1803,9.1803,9.1803,9.1803,9.1803,9.1803,9.1803,9.1803,9.1803,9.1803,9.1767,9.0959,9.1069,9.162,8.9234,8.9124,9.0519,8.973,8.9877,9.0702,9.1473,9.1803,9.1803,9.1803,9.1803,9.1803,9.1803,9.1803,9.1803,9.1803,9.1803,9.1803,9.1803,9.2427,9.2905,9.2024,9.2427,9.2868,9.2024,9.1803,9.1803,9.1803,9.2464,9.2868,9.1987,9.2501,9.2831,9.1987,9.1803,9.1546,9.0739,9.0629,9.0629,9.0629,9.0629,9.0922,9.1693,9.1803,9.1803,9.1803,9.1803,9.1803,9.1803,9.1803,9.1803,9.1803,9.1803,9.1803,9.1803,9.1803,9.1803,9.1803,9.1803,9.1803,9.1803,9.1803,9.1803,9.1803,9.1803,9.1803,9.1803,9.1803,9.1803,9.1803,9.1803,9.1803,9.1803,9.1803,9.1803,9.1803,9.1803,9.1803,9.1803,8.9693,9.0849,9.1803,9.1803,9.1803,9.1803,9.1803,9.1803,9.1803,9.1803,9.1803,9.1803,9.1803,9.1803,9.1803,9.1803,9.1803,9.1803,9.1803,9.1803,9.1803,9.1803,9.1803,9.1803,9.1803,9.1803,9.1803,9.1803,9.1803,9.1803,9.1803,9.1803,9.151,9.0959,9.1289,9.0959,9.0097,8.9968,8.9528,8.8977,8.9895,9.006,8.9913,9.1289,9.1803,9.1803,9.1803,9.1803,9.1803,9.1803,9.1803,9.1803,9.1803,9.1803,9.1803,9.1803,9.1987,9.2134,9.1877,9.1987,9.2134,9.184,9.1803,9.195,9.2574,9.2427,9.2611,9.4116,9.3235,9.2464,9.3382,9.2574,9.173,9.1473,9.1436,9.1436,9.1436,9.1436,9.1546,9.1767,9.1803,9.1803,9.1803,9.1803,9.1803,9.1803,9.1803,9.1803,9.1803,9.1803,9.1803,9.1803,9.1803,9.1803,9.1803,9.1803,9.1803,9.1803,9.1803,9.1803,9.1803,9.1803,9.1803,9.1803,9.1803,9.1803,9.1803,9.1803,9.1803,9.1803,9.1803,9.1803,9.1803,9.1803,9.1803,9.1803,8.94,9.0702,9.1803,9.1803,9.1803,9.1803,9.1803,9.1803,9.1803,9.1803,9.1803,9.1803,9.1803,9.1803,9.1803,9.1803,9.1803,9.1803,9.1803,9.1803,9.1803,9.1803,9.1803,9.1803,9.1803,9.1803,9.1803,9.1803,9.1803,9.1803,9.1803,9.1803,9.1546,9.1069,9.1253,9.0959,9.0317,9.017,8.9748,8.9234,9.0225,9.0317,9.0024,9.1326,9.1803,9.1803,9.1803,9.1803,9.1803,9.1803,9.1803,9.1803,9.1803,9.1803,9.1803,9.1803,9.2024,9.2244,9.1877,9.206,9.2244,9.1877,9.1803,9.195,9.2464,9.2427,9.2758,9.4244,9.3345,9.2611,9.3639,9.2721,9.1803,9.1803,9.1803,9.1803,9.1803,9.1803,9.1803,9.1803,9.1803,9.1803,9.1803,9.1803,9.1803,9.1803,9.1803,9.1803,9.1803,9.1803,9.1803,9.1803,9.1803,9.1803,9.1803,9.1803,9.1803,9.1803,9.1803,9.1803,9.1803,9.1803,9.1803,9.1803,9.1803,9.1803,9.1803,9.1803,9.1803,9.1803,9.1803,9.1803,9.1803,9.1803,9.1803,9.1803,8.94,9.0629,9.173,9.1803,9.1803,9.1803,9.1803,9.1803,9.1803,9.1803,9.1803,9.1803,9.1803,9.1803,9.1803,9.1803,9.1803,9.1803,9.1803,9.1803,9.1803,9.1803,9.1803,9.1803,9.1803,9.1803,9.1803,9.1803,9.1803,9.1803,9.1803,9.1803,9.1803,9.1767,9.1033,9.1069,9.1583,9.0134,8.9877,9.0501,9.0592,9.0592,9.0702,9.1473,9.1803,9.1803,9.1803,9.1803,9.1803,9.1803,9.1803,9.1803,9.1803,9.1803,9.1803,9.1803,9.2354,9.2831,9.2024,9.2391,9.2831,9.2097,9.184,9.1803,9.1913,9.2464,9.3015,9.3198,9.3088,9.3015,9.3088,9.2391,9.1803,9.1803,9.1803,9.1803,9.1803,9.1803,9.1803,9.1803,9.1803,9.1803,9.1803,9.1803,9.1803,9.1803,9.1803,9.1803,9.1803,9.1803,9.1803,9.1803,9.1803,9.1803,9.1803,9.1803,9.1803,9.1803,9.1803,9.1803,9.1803,9.1803,9.1803,9.1803,9.1803,9.1803,9.1803,9.1803,9.1803,9.1803,9.1803,9.1803,9.1803,9.1803,9.1803,9.1803,8.929,9.017,9.1069,9.1693,9.1803,9.1803,9.1803,9.1803,9.1803,9.1803,9.1803,9.1803,9.1803,9.1803,9.1803,9.1803,9.1803,9.1803,9.1803,9.1803,9.1803,9.1803,9.1803,9.1803,9.1803,9.1803,9.1803,9.1803,9.1803,9.1803,9.1803,9.1803,9.1803,9.1803,9.162,9.1289,9.0849,9.0482,9.006,8.973,9.0354,9.0592,9.0702,9.1473,9.1803,9.1803,9.1803,9.1803,9.1803,9.1803,9.1803,9.1803,9.1803,9.1803,9.1803,9.1803,9.1913,9.2024,9.184,9.195,9.2207,9.2684,9.2281,9.1987,9.2648,9.2427,9.2464,9.3749,9.3015,9.2281,9.2978,9.2391,9.1803,9.1803,9.1803,9.1803,9.1803,9.1803,9.1803,9.1803,9.1803,9.1803,9.1803,9.1803,9.1803,9.1803,9.1803,9.1803,9.1803,9.1803,9.1803,9.1803,9.1803,9.1803,9.1803,9.1803,9.1803,9.1803,9.1803,9.1803,9.1803,9.1803,9.1803,9.1803,9.1803,9.1803,9.1803,9.1803,9.1803,9.1803,9.1803,9.1803,9.1803,9.1803,9.1803,9.1803,8.9326,9.0354,9.1326,9.173,9.1803,9.1803,9.1803,9.1803,9.1803,9.1803,9.1803,9.1803,9.1803,9.1803,9.1803,9.1803,9.1803,9.1803,9.1803,9.1803,9.1803,9.1803,9.1803,9.1803,9.1803,9.1803,9.1803,9.1803,9.1803,9.1803,9.1803,9.1803,9.1803,9.1803,9.1803,9.1583,9.1179,9.1179,9.0922,9.0592,9.0996,9.1179,9.1216,9.1657,9.1803,9.1803,9.1803,9.1803,9.1803,9.1803,9.1803,9.1803,9.1803,9.1803,9.1803,9.1803,9.1803,9.1803,9.1803,9.1803,9.1913,9.2354,9.2134,9.2024,9.2905,9.2427,9.217,9.3455,9.2684,9.206,9.2941,9.2391,9.1803,9.1803,9.1803,9.1803,9.1803,9.1803,9.1803,9.1803,9.1803,9.1803,9.1803,9.1803,9.1803,9.1803,9.1803,9.1803,9.1803,9.1803,9.1803,9.1803,9.1803,9.1803,9.1803,9.1803,9.1803,9.1803,9.1803,9.1803,9.1803,9.1803,9.1803,9.1803,9.1803,9.1803,9.1803,9.1803,9.1803,9.1803,9.1803,9.1803,9.1803,9.1803,9.1803,9.1803,8.9363,9.0592,9.1657,9.1767,9.1803,9.1803,9.1803,9.1803,9.1803,9.1803,9.1803,9.1803,9.1803,9.1803,9.1803,9.1803,9.1803,9.1803,9.1803,9.1803,9.1803,9.1803,9.1803,9.1803,9.1803,9.1803,9.1803,9.1803,9.1803,9.1803,9.1803,9.1803,9.1803,9.1803,9.1803,9.1803,9.1803,9.1803,9.1803,9.1803,9.1803,9.1803,9.1803,9.1803,9.1803,9.1803,9.1803,9.1803,9.1803,9.1803,9.1803,9.1803,9.1803,9.1803,9.1803,9.1803,9.1803,9.1803,9.1803,9.1803,9.184,9.1987,9.2024,9.2207,9.2941,9.2427,9.206,9.2941,9.2391,9.206,9.2941,9.2391,9.184,9.1987,9.1913,9.1803,9.1803,9.1803,9.1803,9.1803,9.1803,9.1803,9.1803,9.1803,9.1803,9.1803,9.1803,9.1803,9.1803,9.1803,9.1803,9.1803,9.1803,9.1803,9.1803,9.1803,9.1803,9.1803,9.1803,9.1803,9.1803,9.1803,9.1803,9.1803,9.1803,9.1803,9.1803,9.1803,9.1803,9.1803,9.1803,9.1803,9.1803,9.1803,9.1803,9.1803,8.9253,9.0134,9.0996,9.1693,9.1803,9.1803,9.1803,9.1803,9.1803,9.1803,9.1803,9.1803,9.1803,9.1803,9.1803,9.1803,9.1803,9.1803,9.1803,9.1803,9.1803,9.1803,9.1803,9.1803,9.1803,9.1803,9.1803,9.1803,9.1803,9.1803,9.1803,9.1803,9.1803,9.1803,9.1803,9.1803,9.1803,9.1803,9.1803,9.1803,9.1803,9.1803,9.1803,9.1803,9.1803,9.1803,9.1803,9.1803,9.1803,9.1803,9.1803,9.1803,9.1803,9.1803,9.1803,9.1803,9.1803,9.1803,9.1803,9.1803,9.1987,9.2758,9.2941,9.2978,9.3088,9.2427,9.206,9.2941,9.2391,9.206,9.2941,9.2391,9.206,9.2794,9.2281,9.1803,9.1803,9.1803,9.1803,9.1803,9.1803,9.1803,9.1803,9.1803,9.1803,9.1803,9.1803,9.1803,9.1803,9.1803,9.1803,9.1803,9.1803,9.1803,9.1803,9.1803,9.1803,9.1803,9.1803,9.1803,9.1803,9.1803,9.1803,9.1803,9.1803,9.1803,9.1803,9.1803,9.1803,9.1803,9.1803,9.1803,9.1803,9.1803,9.1803,9.1803,8.8683,8.9748,9.0702,9.1069,9.151,9.1803,9.1803,9.1803,9.1803,9.1803,9.1803,9.1803,9.1803,9.1803,9.1803,9.1803,9.1803,9.1803,9.1803,9.1803,9.1803,9.1803,9.1803,9.1803,9.1803,9.1803,9.1803,9.1803,9.1803,9.1803,9.1803,9.1803,9.1803,9.1803,9.1803,9.1803,9.1803,9.1803,9.1803,9.1803,9.1803,9.1803,9.1803,9.1803,9.1803,9.1803,9.1803,9.1803,9.1803,9.1803,9.1803,9.1803,9.1803,9.1803,9.1803,9.1803,9.1803,9.1803,9.1803,9.1803,9.1877,9.2281,9.2354,9.2501,9.2978,9.2427,9.1913,9.2281,9.2464,9.2648,9.3015,9.2391,9.2244,9.3565,9.2648,9.195,9.2464,9.2097,9.1803,9.1803,9.1803,9.1803,9.1803,9.1803,9.1803,9.1803,9.1803,9.1803,9.1803,9.1803,9.1803,9.1803,9.1803,9.1803,9.1803,9.1803,9.1803,9.1803,9.1803,9.1803,9.1803,9.1803,9.1803,9.1803,9.1803,9.1803,9.1803,9.1803,9.1803,9.1803,9.1803,9.1803,9.1803,9.1803,9.1803,9.1803]}]]